Time,TemperatureF,DewpointF,PressureIn,WindDirection,WindDirectionDegrees,WindSpeedMPH,WindSpeedGustMPH,Humidity,HourlyPrecipIn,Conditions,Clouds,dailyrainin,SoftwareType,DateUTC
2013-03-03 00:00:00,27.2,21.6,29.74,ENE,57,4.0,10.0,79,0.00,,,0.00,VWS V14.01,2013-03-03 05:00:00,
2013-03-03 00:01:00,27.2,21.6,29.74,North,10,3.0,10.0,79,0.00,,,0.00,VWS V14.01,2013-03-03 05:01:00,
2013-03-03 00:02:00,27.2,21.6,29.74,North,10,3.0,10.0,79,0.00,,,0.00,VWS V14.01,2013-03-03 05:02:00,
2013-03-03 00:03:00,27.2,21.6,29.74,North,10,3.0,10.0,79,0.00,,,0.00,VWS V14.01,2013-03-03 05:03:00,
2013-03-03 00:04:00,27.2,21.6,29.74,SE,136,0.0,3.0,79,0.00,,,0.00,VWS V14.01,2013-03-03 05:04:00,
2013-03-03 00:05:00,27.2,21.6,29.74,SE,132,2.0,3.0,79,0.00,,,0.00,VWS V14.01,2013-03-03 05:05:00,
2013-03-03 00:06:00,27.2,21.6,29.74,East,86,0.0,7.0,79,0.00,,,0.00,VWS V14.01,2013-03-03 05:06:00,
2013-03-03 00:07:00,27.2,21.6,29.74,East,86,0.0,7.0,79,0.00,,,0.00,VWS V14.01,2013-03-03 05:07:00,
2013-03-03 00:08:00,27.2,21.6,29.74,East,86,0.0,7.0,79,0.00,,,0.00,VWS V14.01,2013-03-03 05:08:00,
2013-03-03 00:09:00,27.1,21.5,29.74,SW,233,4.0,7.0,79,0.00,,,0.00,VWS V14.01,2013-03-03 05:09:00,
2013-03-03 00:10:00,27.2,21.6,29.74,North,11,2.0,7.0,79,0.00,,,0.00,VWS V14.01,2013-03-03 05:10:00,
2013-03-03 00:11:00,27.1,21.5,29.74,ENE,74,1.0,8.0,79,0.00,,,0.00,VWS V14.01,2013-03-03 05:11:00,
2013-03-03 00:12:00,27.1,21.5,29.74,ENE,74,1.0,8.0,79,0.00,,,0.00,VWS V14.01,2013-03-03 05:12:00,
2013-03-03 00:13:00,27.1,21.5,29.74,ENE,74,1.0,8.0,79,0.00,,,0.00,VWS V14.01,2013-03-03 05:13:00,
2013-03-03 00:14:00,27.1,21.5,29.74,NE,45,1.0,8.0,79,0.00,,,0.00,VWS V14.01,2013-03-03 05:14:00,
2013-03-03 00:15:00,27.1,21.5,29.74,ESE,123,2.0,8.0,79,0.00,,,0.00,VWS V14.01,2013-03-03 05:15:00,
2013-03-03 00:16:00,27.1,21.5,29.74,ESE,105,0.0,8.0,79,0.00,,,0.00,VWS V14.01,2013-03-03 05:16:00,
2013-03-03 00:17:00,27.1,21.5,29.74,ESE,105,0.0,8.0,79,0.00,,,0.00,VWS V14.01,2013-03-03 05:17:00,
2013-03-03 00:18:00,27.1,21.5,29.74,ESE,105,0.0,8.0,79,0.00,,,0.00,VWS V14.01,2013-03-03 05:18:00,
2013-03-03 00:19:00,27.1,21.5,29.74,WNW,292,5.0,8.0,79,0.00,,,0.00,VWS V14.01,2013-03-03 05:19:00,
2013-03-03 00:20:00,27.1,21.5,29.74,NW,304,1.0,8.0,79,0.00,,,0.00,VWS V14.01,2013-03-03 05:20:00,
2013-03-03 00:21:00,27.1,21.5,29.74,East,90,1.0,2.0,79,0.00,,,0.00,VWS V14.01,2013-03-03 05:21:00,
2013-03-03 00:22:00,27.1,21.5,29.74,East,90,1.0,2.0,79,0.00,,,0.00,VWS V14.01,2013-03-03 05:22:00,
2013-03-03 00:23:00,27.1,21.5,29.74,East,90,1.0,2.0,79,0.00,,,0.00,VWS V14.01,2013-03-03 05:23:00,
2013-03-03 00:24:00,27.1,21.5,29.74,ENE,61,1.0,4.0,79,0.00,,,0.00,VWS V14.01,2013-03-03 05:24:00,
2013-03-03 00:25:00,27.1,21.5,29.74,North,360,4.0,4.0,79,0.00,,,0.00,VWS V14.01,2013-03-03 05:25:00,
2013-03-03 00:26:00,27.1,21.5,29.74,NNE,19,1.0,4.0,79,0.00,,,0.00,VWS V14.01,2013-03-03 05:26:00,
2013-03-03 00:27:00,27.1,21.5,29.74,NNE,19,1.0,4.0,79,0.00,,,0.00,VWS V14.01,2013-03-03 05:27:00,
2013-03-03 00:28:00,27.1,21.5,29.74,NW,315,1.0,4.0,79,0.00,,,0.00,VWS V14.01,2013-03-03 05:28:00,
2013-03-03 00:29:00,27.1,21.5,29.74,NNE,30,4.0,4.0,79,0.00,,,0.00,VWS V14.01,2013-03-03 05:29:00,
2013-03-03 00:30:00,27.0,21.4,29.74,NW,313,0.0,4.0,79,0.00,,,0.00,VWS V14.01,2013-03-03 05:30:00,
2013-03-03 00:31:00,27.0,21.4,29.74,North,355,2.0,5.0,79,0.00,,,0.00,VWS V14.01,2013-03-03 05:31:00,
2013-03-03 00:32:00,27.0,21.4,29.74,North,355,2.0,5.0,79,0.00,,,0.00,VWS V14.01,2013-03-03 05:32:00,
2013-03-03 00:33:00,27.1,21.5,29.74,NE,52,3.0,8.0,79,0.00,,,0.00,VWS V14.01,2013-03-03 05:33:00,
2013-03-03 00:34:00,27.0,21.4,29.74,North,355,2.0,8.0,79,0.00,,,0.00,VWS V14.01,2013-03-03 05:34:00,
2013-03-03 00:35:00,27.0,21.4,29.74,NE,38,1.0,8.0,79,0.00,,,0.00,VWS V14.01,2013-03-03 05:35:00,
2013-03-03 00:36:00,27.0,21.4,29.74,NE,39,3.0,8.0,79,0.00,,,0.00,VWS V14.01,2013-03-03 05:36:00,
2013-03-03 00:37:00,27.0,21.4,29.74,NE,39,3.0,8.0,79,0.00,,,0.00,VWS V14.01,2013-03-03 05:37:00,
2013-03-03 00:38:00,27.0,21.4,29.74,NE,39,3.0,8.0,79,0.00,,,0.00,VWS V14.01,2013-03-03 05:38:00,
2013-03-03 00:39:00,27.0,21.1,29.74,NNE,18,2.0,8.0,78,0.00,,,0.00,VWS V14.01,2013-03-03 05:39:00,
2013-03-03 00:40:00,27.0,21.1,29.74,East,101,7.0,8.0,78,0.00,,,0.00,VWS V14.01,2013-03-03 05:40:00,
2013-03-03 00:41:00,27.0,21.1,29.74,NNE,19,7.0,12.0,78,0.00,,,0.00,VWS V14.01,2013-03-03 05:41:00,
2013-03-03 00:42:00,27.0,21.1,29.74,NNE,19,7.0,12.0,78,0.00,,,0.00,VWS V14.01,2013-03-03 05:42:00,
2013-03-03 00:43:00,27.0,21.1,29.74,NNE,19,7.0,12.0,78,0.00,,,0.00,VWS V14.01,2013-03-03 05:43:00,
2013-03-03 00:44:00,27.0,21.4,29.74,NE,53,0.0,12.0,79,0.00,,,0.00,VWS V14.01,2013-03-03 05:44:00,
2013-03-03 00:45:00,27.0,21.4,29.74,NE,44,1.0,12.0,79,0.00,,,0.00,VWS V14.01,2013-03-03 05:45:00,
2013-03-03 00:46:00,27.0,21.4,29.74,North,5,2.0,12.0,79,0.00,,,0.00,VWS V14.01,2013-03-03 05:46:00,
2013-03-03 00:47:00,27.0,21.4,29.74,North,5,2.0,12.0,79,0.00,,,0.00,VWS V14.01,2013-03-03 05:47:00,
2013-03-03 00:48:00,27.0,21.1,29.74,ENE,64,0.0,12.0,78,0.00,,,0.00,VWS V14.01,2013-03-03 05:48:00,
2013-03-03 00:49:00,27.0,21.1,29.74,NW,304,5.0,12.0,78,0.00,,,0.00,VWS V14.01,2013-03-03 05:49:00,
2013-03-03 00:50:00,27.0,21.1,29.74,NE,34,4.0,12.0,78,0.00,,,0.00,VWS V14.01,2013-03-03 05:50:00,
2013-03-03 00:51:00,27.0,21.1,29.74,NNE,33,1.0,1.0,78,0.00,,,0.00,VWS V14.01,2013-03-03 05:51:00,
2013-03-03 00:52:00,27.0,21.1,29.74,NNE,33,1.0,1.0,78,0.00,,,0.00,VWS V14.01,2013-03-03 05:52:00,
2013-03-03 00:53:00,27.0,21.1,29.74,NNE,33,1.0,1.0,78,0.00,,,0.00,VWS V14.01,2013-03-03 05:53:00,
2013-03-03 00:54:00,27.0,21.1,29.74,SW,225,0.0,1.0,78,0.00,,,0.00,VWS V14.01,2013-03-03 05:54:00,
2013-03-03 00:55:00,27.0,21.1,29.74,WSW,256,2.0,2.0,78,0.00,,,0.00,VWS V14.01,2013-03-03 05:55:00,
2013-03-03 00:56:00,27.0,21.1,29.74,WNW,303,4.0,4.0,78,0.00,,,0.00,VWS V14.01,2013-03-03 05:56:00,
2013-03-03 00:57:00,27.0,21.1,29.74,WNW,303,4.0,4.0,78,0.00,,,0.00,VWS V14.01,2013-03-03 05:57:00,
2013-03-03 00:58:00,27.0,21.1,29.74,WNW,303,4.0,4.0,78,0.00,,,0.00,VWS V14.01,2013-03-03 05:58:00,
2013-03-03 00:59:00,27.0,21.1,29.74,NE,42,0.0,4.0,78,0.00,,,0.00,VWS V14.01,2013-03-03 05:59:00,
2013-03-03 01:00:00,27.0,21.1,29.74,WNW,291,4.0,4.0,78,0.00,,,0.00,VWS V14.01,2013-03-03 06:00:00,
2013-03-03 01:01:00,27.0,21.1,29.74,NNW,334,0.0,4.0,78,0.00,,,0.00,VWS V14.01,2013-03-03 06:01:00,
2013-03-03 01:02:00,27.0,21.1,29.74,NNW,334,0.0,4.0,78,0.00,,,0.00,VWS V14.01,2013-03-03 06:02:00,
2013-03-03 01:03:00,27.0,21.1,29.74,NW,318,0.0,0.0,78,0.00,,,0.00,VWS V14.01,2013-03-03 06:03:00,
2013-03-03 01:04:00,27.0,21.1,29.74,West,259,2.0,3.0,78,0.00,,,0.00,VWS V14.01,2013-03-03 06:04:00,
2013-03-03 01:05:00,27.0,21.1,29.74,NNE,33,5.0,5.0,78,0.00,,,0.00,VWS V14.01,2013-03-03 06:05:00,
2013-03-03 01:06:00,27.0,21.1,29.74,South,186,5.0,5.0,78,0.00,,,0.00,VWS V14.01,2013-03-03 06:06:00,
2013-03-03 01:07:00,27.0,21.1,29.74,South,186,5.0,5.0,78,0.00,,,0.00,VWS V14.01,2013-03-03 06:07:00,
2013-03-03 01:08:00,27.0,21.1,29.74,South,186,5.0,5.0,78,0.00,,,0.00,VWS V14.01,2013-03-03 06:08:00,
2013-03-03 01:09:00,27.0,21.1,29.74,North,5,0.0,5.0,78,0.00,,,0.00,VWS V14.01,2013-03-03 06:09:00,
2013-03-03 01:10:00,26.9,21.0,29.74,NNE,20,3.0,5.0,78,0.00,,,0.00,VWS V14.01,2013-03-03 06:10:00,
2013-03-03 01:11:00,26.9,21.0,29.74,NNE,20,1.0,1.0,78,0.00,,,0.00,VWS V14.01,2013-03-03 06:11:00,
2013-03-03 01:12:00,26.9,21.0,29.74,NNE,20,1.0,1.0,78,0.00,,,0.00,VWS V14.01,2013-03-03 06:12:00,
2013-03-03 01:13:00,26.9,21.0,29.74,NNE,20,1.0,1.0,78,0.00,,,0.00,VWS V14.01,2013-03-03 06:13:00,
2013-03-03 01:14:00,26.9,21.0,29.74,NW,315,8.0,12.0,78,0.00,,,0.00,VWS V14.01,2013-03-03 06:14:00,
2013-03-03 01:15:00,26.9,21.0,29.74,NE,43,2.0,12.0,78,0.00,,,0.00,VWS V14.01,2013-03-03 06:15:00,
2013-03-03 01:16:00,26.9,21.0,29.74,NE,44,1.0,12.0,78,0.00,,,0.00,VWS V14.01,2013-03-03 06:16:00,
2013-03-03 01:17:00,26.9,21.0,29.74,NE,44,1.0,12.0,78,0.00,,,0.00,VWS V14.01,2013-03-03 06:17:00,
2013-03-03 01:18:00,26.9,21.0,29.74,NE,44,1.0,12.0,78,0.00,,,0.00,VWS V14.01,2013-03-03 06:18:00,
2013-03-03 01:19:00,26.9,21.0,29.74,NNE,26,4.0,12.0,78,0.00,,,0.00,VWS V14.01,2013-03-03 06:19:00,
2013-03-03 01:20:00,26.9,21.0,29.74,East,99,1.0,12.0,78,0.00,,,0.00,VWS V14.01,2013-03-03 06:20:00,
2013-03-03 01:21:00,26.9,21.0,29.74,ENE,66,0.0,0.0,78,0.00,,,0.00,VWS V14.01,2013-03-03 06:21:00,
2013-03-03 01:22:00,26.9,21.0,29.74,ENE,66,0.0,0.0,78,0.00,,,0.00,VWS V14.01,2013-03-03 06:22:00,
2013-03-03 01:23:00,26.9,21.0,29.74,ENE,66,0.0,0.0,78,0.00,,,0.00,VWS V14.01,2013-03-03 06:23:00,
2013-03-03 01:24:00,26.8,20.9,29.74,North,5,0.0,0.0,78,0.00,,,0.00,VWS V14.01,2013-03-03 06:24:00,
2013-03-03 01:25:00,26.8,20.9,29.74,WSW,244,5.0,5.0,78,0.00,,,0.00,VWS V14.01,2013-03-03 06:25:00,
2013-03-03 01:26:00,26.8,20.9,29.74,WSW,244,5.0,5.0,78,0.00,,,0.00,VWS V14.01,2013-03-03 06:26:00,
2013-03-03 01:27:00,26.8,20.9,29.74,WSW,244,5.0,5.0,78,0.00,,,0.00,VWS V14.01,2013-03-03 06:27:00,
2013-03-03 01:28:00,26.8,20.9,29.74,NNE,15,3.0,5.0,78,0.00,,,0.00,VWS V14.01,2013-03-03 06:28:00,
2013-03-03 01:29:00,26.8,20.9,29.74,NNE,30,1.0,5.0,78,0.00,,,0.00,VWS V14.01,2013-03-03 06:29:00,
2013-03-03 01:30:00,26.8,20.9,29.74,NNE,20,0.0,5.0,78,0.00,,,0.00,VWS V14.01,2013-03-03 06:30:00,
2013-03-03 01:31:00,26.8,20.9,29.74,NNE,20,0.0,5.0,78,0.00,,,0.00,VWS V14.01,2013-03-03 06:31:00,
2013-03-03 01:32:00,26.8,20.9,29.74,NNE,20,0.0,5.0,78,0.00,,,0.00,VWS V14.01,2013-03-03 06:32:00,
2013-03-03 01:33:00,26.8,20.9,29.74,NNE,20,0.0,5.0,78,0.00,,,0.00,VWS V14.01,2013-03-03 06:33:00,
2013-03-03 01:34:00,26.8,20.9,29.74,NE,37,2.0,4.0,78,0.00,,,0.00,VWS V14.01,2013-03-03 06:34:00,
2013-03-03 01:35:00,26.7,20.8,29.74,West,263,4.0,4.0,78,0.00,,,0.00,VWS V14.01,2013-03-03 06:35:00,
2013-03-03 01:36:00,26.7,20.8,29.74,SE,140,2.0,5.0,78,0.00,,,0.00,VWS V14.01,2013-03-03 06:36:00,
2013-03-03 01:37:00,26.7,20.8,29.74,SE,140,2.0,5.0,78,0.00,,,0.00,VWS V14.01,2013-03-03 06:37:00,
2013-03-03 01:38:00,26.7,20.8,29.74,SE,140,2.0,5.0,78,0.00,,,0.00,VWS V14.01,2013-03-03 06:38:00,
2013-03-03 01:39:00,26.7,20.8,29.74,NE,42,0.0,5.0,78,0.00,,,0.00,VWS V14.01,2013-03-03 06:39:00,
2013-03-03 01:40:00,26.7,20.8,29.74,North,355,1.0,5.0,78,0.00,,,0.00,VWS V14.01,2013-03-03 06:40:00,
2013-03-03 01:41:00,26.7,20.8,29.74,NNW,348,4.0,9.0,78,0.00,,,0.00,VWS V14.01,2013-03-03 06:41:00,
2013-03-03 01:42:00,26.7,20.8,29.74,NNW,348,4.0,9.0,78,0.00,,,0.00,VWS V14.01,2013-03-03 06:42:00,
2013-03-03 01:43:00,26.7,20.8,29.74,NNW,348,4.0,9.0,78,0.00,,,0.00,VWS V14.01,2013-03-03 06:43:00,
2013-03-03 01:44:00,26.6,20.7,29.74,North,349,2.0,10.0,78,0.00,,,0.00,VWS V14.01,2013-03-03 06:44:00,
2013-03-03 01:45:00,26.6,20.7,29.73,NE,48,0.0,10.0,78,0.00,,,0.00,VWS V14.01,2013-03-03 06:45:00,
2013-03-03 01:46:00,26.6,20.7,29.73,NE,48,0.0,10.0,78,0.00,,,0.00,VWS V14.01,2013-03-03 06:46:00,
2013-03-03 01:47:00,26.6,20.7,29.73,NE,48,0.0,10.0,78,0.00,,,0.00,VWS V14.01,2013-03-03 06:47:00,
2013-03-03 01:48:00,26.6,20.7,29.73,NE,48,0.0,10.0,78,0.00,,,0.00,VWS V14.01,2013-03-03 06:48:00,
2013-03-03 01:49:00,26.6,20.7,29.73,NNW,347,4.0,10.0,78,0.00,,,0.00,VWS V14.01,2013-03-03 06:49:00,
2013-03-03 01:50:00,26.6,20.7,29.73,ENE,69,4.0,10.0,78,0.00,,,0.00,VWS V14.01,2013-03-03 06:50:00,
2013-03-03 01:51:00,26.6,20.7,29.73,ENE,69,4.0,10.0,78,0.00,,,0.00,VWS V14.01,2013-03-03 06:51:00,
2013-03-03 01:52:00,26.6,20.7,29.73,ENE,69,4.0,10.0,78,0.00,,,0.00,VWS V14.01,2013-03-03 06:52:00,
2013-03-03 01:53:00,26.5,20.6,29.73,WNW,303,5.0,5.0,78,0.00,,,0.00,VWS V14.01,2013-03-03 06:53:00,
2013-03-03 01:54:00,26.5,20.6,29.73,NW,322,3.0,7.0,78,0.00,,,0.00,VWS V14.01,2013-03-03 06:54:00,
2013-03-03 01:55:00,26.5,20.6,29.73,NNW,327,0.0,7.0,78,0.00,,,0.00,VWS V14.01,2013-03-03 06:55:00,
2013-03-03 01:56:00,26.5,20.6,29.73,NNW,327,0.0,7.0,78,0.00,,,0.00,VWS V14.01,2013-03-03 06:56:00,
2013-03-03 01:57:00,26.5,20.6,29.73,NNW,327,0.0,7.0,78,0.00,,,0.00,VWS V14.01,2013-03-03 06:57:00,
2013-03-03 01:58:00,26.5,20.6,29.73,North,350,0.0,7.0,78,0.00,,,0.00,VWS V14.01,2013-03-03 06:58:00,
2013-03-03 01:59:00,26.5,20.6,29.73,North,9,2.0,7.0,78,0.00,,,0.00,VWS V14.01,2013-03-03 06:59:00,
2013-03-03 02:00:00,26.5,20.6,29.73,NNW,336,2.0,7.0,78,0.00,,,0.00,VWS V14.01,2013-03-03 07:00:00,
2013-03-03 02:01:00,26.5,20.6,29.73,NNE,23,1.0,7.0,78,0.00,,,0.00,VWS V14.01,2013-03-03 07:01:00,
2013-03-03 02:02:00,26.5,20.6,29.73,NNE,23,1.0,7.0,78,0.00,,,0.00,VWS V14.01,2013-03-03 07:02:00,
2013-03-03 02:03:00,26.4,20.5,29.73,NNE,29,2.0,2.0,78,0.00,,,0.00,VWS V14.01,2013-03-03 07:03:00,
2013-03-03 02:04:00,26.4,20.5,29.73,West,280,0.0,6.0,78,0.00,,,0.00,VWS V14.01,2013-03-03 07:04:00,
2013-03-03 02:05:00,26.4,20.5,29.73,NNE,24,5.0,6.0,78,0.00,,,0.00,VWS V14.01,2013-03-03 07:05:00,
2013-03-03 02:06:00,26.4,20.5,29.73,ENE,69,3.0,6.0,78,0.00,,,0.00,VWS V14.01,2013-03-03 07:06:00,
2013-03-03 02:07:00,26.4,20.5,29.73,ENE,69,3.0,6.0,78,0.00,,,0.00,VWS V14.01,2013-03-03 07:07:00,
2013-03-03 02:08:00,26.4,20.5,29.73,ENE,69,3.0,6.0,78,0.00,,,0.00,VWS V14.01,2013-03-03 07:08:00,
2013-03-03 02:09:00,26.4,20.5,29.73,NNE,24,2.0,6.0,78,0.00,,,0.00,VWS V14.01,2013-03-03 07:09:00,
2013-03-03 02:10:00,26.4,20.5,29.73,NW,317,0.0,6.0,78,0.00,,,0.00,VWS V14.01,2013-03-03 07:10:00,
2013-03-03 02:11:00,26.4,20.5,29.73,ENE,59,1.0,2.0,78,0.00,,,0.00,VWS V14.01,2013-03-03 07:11:00,
2013-03-03 02:12:00,26.4,20.5,29.73,ENE,59,1.0,2.0,78,0.00,,,0.00,VWS V14.01,2013-03-03 07:12:00,
2013-03-03 02:13:00,26.4,20.5,29.73,ENE,59,1.0,2.0,78,0.00,,,0.00,VWS V14.01,2013-03-03 07:13:00,
2013-03-03 02:14:00,26.4,20.5,29.73,WNW,284,3.0,4.0,78,0.00,,,0.00,VWS V14.01,2013-03-03 07:14:00,
2013-03-03 02:15:00,26.4,20.5,29.73,North,360,1.0,4.0,78,0.00,,,0.00,VWS V14.01,2013-03-03 07:15:00,
2013-03-03 02:16:00,26.4,20.5,29.73,NNE,22,0.0,4.0,78,0.00,,,0.00,VWS V14.01,2013-03-03 07:16:00,
2013-03-03 02:17:00,26.4,20.5,29.73,NNE,22,0.0,4.0,78,0.00,,,0.00,VWS V14.01,2013-03-03 07:17:00,
2013-03-03 02:18:00,26.4,20.5,29.73,NNE,22,0.0,4.0,78,0.00,,,0.00,VWS V14.01,2013-03-03 07:18:00,
2013-03-03 02:19:00,26.4,20.5,29.73,NNW,340,6.0,6.0,78,0.00,,,0.00,VWS V14.01,2013-03-03 07:19:00,
2013-03-03 02:20:00,26.4,20.5,29.73,WNW,282,1.0,6.0,78,0.00,,,0.00,VWS V14.01,2013-03-03 07:20:00,
2013-03-03 02:21:00,26.4,20.5,29.73,NW,317,0.0,1.0,78,0.00,,,0.00,VWS V14.01,2013-03-03 07:21:00,
2013-03-03 02:22:00,26.4,20.5,29.73,NW,317,0.0,1.0,78,0.00,,,0.00,VWS V14.01,2013-03-03 07:22:00,
2013-03-03 02:23:00,26.4,20.5,29.73,NW,317,0.0,1.0,78,0.00,,,0.00,VWS V14.01,2013-03-03 07:23:00,
2013-03-03 02:24:00,26.3,20.1,29.73,NNW,337,1.0,5.0,77,0.00,,,0.00,VWS V14.01,2013-03-03 07:24:00,
2013-03-03 02:25:00,26.3,20.1,29.73,NNE,14,1.0,5.0,77,0.00,,,0.00,VWS V14.01,2013-03-03 07:25:00,
2013-03-03 02:26:00,26.3,20.1,29.73,NNE,14,1.0,5.0,77,0.00,,,0.00,VWS V14.01,2013-03-03 07:26:00,
2013-03-03 02:27:00,26.3,20.1,29.73,NNE,14,1.0,5.0,77,0.00,,,0.00,VWS V14.01,2013-03-03 07:27:00,
2013-03-03 02:28:00,26.3,20.1,29.73,NNE,14,1.0,5.0,77,0.00,,,0.00,VWS V14.01,2013-03-03 07:28:00,
2013-03-03 02:29:00,26.3,20.4,29.73,NNE,23,1.0,5.0,78,0.00,,,0.00,VWS V14.01,2013-03-03 07:29:00,
2013-03-03 02:30:00,26.3,20.1,29.72,NNE,14,0.0,5.0,77,0.00,,,0.00,VWS V14.01,2013-03-03 07:30:00,
2013-03-03 02:31:00,26.3,20.1,29.72,NNW,330,0.0,2.0,77,0.00,,,0.00,VWS V14.01,2013-03-03 07:31:00,
2013-03-03 02:32:00,26.3,20.1,29.72,NNW,330,0.0,2.0,77,0.00,,,0.00,VWS V14.01,2013-03-03 07:32:00,
2013-03-03 02:33:00,26.3,20.1,29.72,NNW,330,0.0,2.0,77,0.00,,,0.00,VWS V14.01,2013-03-03 07:33:00,
2013-03-03 02:34:00,26.3,20.1,29.72,NNW,343,0.0,2.0,77,0.00,,,0.00,VWS V14.01,2013-03-03 07:34:00,
2013-03-03 02:35:00,26.3,20.1,29.72,NNW,344,2.0,3.0,77,0.00,,,0.00,VWS V14.01,2013-03-03 07:35:00,
2013-03-03 02:36:00,26.3,20.1,29.72,WNW,291,5.0,5.0,77,0.00,,,0.00,VWS V14.01,2013-03-03 07:36:00,
2013-03-03 02:37:00,26.3,20.1,29.72,WNW,291,5.0,5.0,77,0.00,,,0.00,VWS V14.01,2013-03-03 07:37:00,
2013-03-03 02:38:00,26.3,20.1,29.72,WNW,291,5.0,5.0,77,0.00,,,0.00,VWS V14.01,2013-03-03 07:38:00,
2013-03-03 02:39:00,26.3,20.1,29.72,North,349,9.0,10.0,77,0.00,,,0.00,VWS V14.01,2013-03-03 07:39:00,
2013-03-03 02:40:00,26.3,20.1,29.72,NNE,13,7.0,10.0,77,0.00,,,0.00,VWS V14.01,2013-03-03 07:40:00,
2013-03-03 02:41:00,26.3,20.1,29.72,NNW,345,7.0,8.0,77,0.00,,,0.00,VWS V14.01,2013-03-03 07:41:00,
2013-03-03 02:42:00,26.3,20.1,29.72,NNW,345,7.0,8.0,77,0.00,,,0.00,VWS V14.01,2013-03-03 07:42:00,
2013-03-03 02:43:00,26.3,20.1,29.72,NNW,345,7.0,8.0,77,0.00,,,0.00,VWS V14.01,2013-03-03 07:43:00,
2013-03-03 02:44:00,26.3,20.1,29.72,SSE,155,2.0,8.0,77,0.00,,,0.00,VWS V14.01,2013-03-03 07:44:00,
2013-03-03 02:45:00,26.2,20.0,29.72,NNW,339,3.0,8.0,77,0.00,,,0.00,VWS V14.01,2013-03-03 07:45:00,
2013-03-03 02:46:00,26.3,20.1,29.72,NW,321,2.0,8.0,77,0.00,,,0.00,VWS V14.01,2013-03-03 07:46:00,
2013-03-03 02:47:00,26.3,20.1,29.72,NW,321,2.0,8.0,77,0.00,,,0.00,VWS V14.01,2013-03-03 07:47:00,
2013-03-03 02:48:00,26.3,20.1,29.72,NW,321,2.0,8.0,77,0.00,,,0.00,VWS V14.01,2013-03-03 07:48:00,
2013-03-03 02:49:00,26.2,20.0,29.72,NW,309,0.0,8.0,77,0.00,,,0.00,VWS V14.01,2013-03-03 07:49:00,
2013-03-03 02:50:00,26.3,20.1,29.72,NNW,338,4.0,8.0,77,0.00,,,0.00,VWS V14.01,2013-03-03 07:50:00,
2013-03-03 02:51:00,26.3,20.1,29.72,NW,323,0.0,2.0,77,0.00,,,0.00,VWS V14.01,2013-03-03 07:51:00,
2013-03-03 02:52:00,26.3,20.1,29.72,NW,323,0.0,2.0,77,0.00,,,0.00,VWS V14.01,2013-03-03 07:52:00,
2013-03-03 02:53:00,26.3,20.1,29.72,NW,323,0.0,2.0,77,0.00,,,0.00,VWS V14.01,2013-03-03 07:53:00,
2013-03-03 02:54:00,26.2,20.0,29.72,WNW,302,1.0,2.0,77,0.00,,,0.00,VWS V14.01,2013-03-03 07:54:00,
2013-03-03 02:55:00,26.2,20.0,29.72,NNW,336,2.0,2.0,77,0.00,,,0.00,VWS V14.01,2013-03-03 07:55:00,
2013-03-03 02:56:00,26.3,20.1,29.72,North,355,2.0,2.0,77,0.00,,,0.00,VWS V14.01,2013-03-03 07:56:00,
2013-03-03 02:57:00,26.3,20.1,29.72,North,355,2.0,2.0,77,0.00,,,0.00,VWS V14.01,2013-03-03 07:57:00,
2013-03-03 02:58:00,26.3,20.1,29.72,North,355,2.0,2.0,77,0.00,,,0.00,VWS V14.01,2013-03-03 07:58:00,
2013-03-03 02:59:00,26.2,20.0,29.72,NNW,347,2.0,2.0,77,0.00,,,0.00,VWS V14.01,2013-03-03 07:59:00,
2013-03-03 03:00:00,26.2,20.0,29.72,West,263,2.0,4.0,77,0.00,,,0.00,VWS V14.01,2013-03-03 08:00:00,
2013-03-03 03:01:00,26.2,20.0,29.72,NNW,337,8.0,8.0,77,0.00,,,0.00,VWS V14.01,2013-03-03 08:01:00,
2013-03-03 03:02:00,26.2,20.0,29.72,NNW,337,8.0,8.0,77,0.00,,,0.00,VWS V14.01,2013-03-03 08:02:00,
2013-03-03 03:03:00,26.2,20.0,29.72,NNW,337,8.0,8.0,77,0.00,,,0.00,VWS V14.01,2013-03-03 08:03:00,
2013-03-03 03:04:00,26.2,19.7,29.72,NW,311,1.0,8.0,76,0.00,,,0.00,VWS V14.01,2013-03-03 08:04:00,
2013-03-03 03:05:00,26.2,20.0,29.72,NNW,338,9.0,9.0,77,0.00,,,0.00,VWS V14.01,2013-03-03 08:05:00,
2013-03-03 03:06:00,26.2,20.0,29.72,NNW,327,1.0,9.0,77,0.00,,,0.00,VWS V14.01,2013-03-03 08:06:00,
2013-03-03 03:07:00,26.2,20.0,29.72,NNW,327,1.0,9.0,77,0.00,,,0.00,VWS V14.01,2013-03-03 08:07:00,
2013-03-03 03:08:00,26.2,20.0,29.72,NNW,327,1.0,9.0,77,0.00,,,0.00,VWS V14.01,2013-03-03 08:08:00,
2013-03-03 03:09:00,26.2,20.0,29.72,West,277,5.0,9.0,77,0.00,,,0.00,VWS V14.01,2013-03-03 08:09:00,
2013-03-03 03:10:00,26.2,20.0,29.72,NW,317,4.0,9.0,77,0.00,,,0.00,VWS V14.01,2013-03-03 08:10:00,
2013-03-03 03:11:00,26.2,20.0,29.72,NW,326,2.0,2.0,77,0.00,,,0.00,VWS V14.01,2013-03-03 08:11:00,
2013-03-03 03:12:00,26.2,20.0,29.72,NW,326,2.0,2.0,77,0.00,,,0.00,VWS V14.01,2013-03-03 08:12:00,
2013-03-03 03:13:00,26.2,20.0,29.72,NW,326,2.0,2.0,77,0.00,,,0.00,VWS V14.01,2013-03-03 08:13:00,
2013-03-03 03:14:00,26.2,19.7,29.72,WNW,303,3.0,3.0,76,0.00,,,0.00,VWS V14.01,2013-03-03 08:14:00,
2013-03-03 03:15:00,26.1,19.9,29.71,WNW,303,0.0,3.0,77,0.00,,,0.00,VWS V14.01,2013-03-03 08:15:00,
2013-03-03 03:16:00,26.2,20.0,29.71,WNW,299,1.0,3.0,77,0.00,,,0.00,VWS V14.01,2013-03-03 08:16:00,
2013-03-03 03:17:00,26.2,20.0,29.71,WNW,299,1.0,3.0,77,0.00,,,0.00,VWS V14.01,2013-03-03 08:17:00,
2013-03-03 03:18:00,26.2,20.0,29.71,WNW,299,1.0,3.0,77,0.00,,,0.00,VWS V14.01,2013-03-03 08:18:00,
2013-03-03 03:19:00,26.2,20.0,29.71,NE,49,5.0,6.0,77,0.00,,,0.00,VWS V14.01,2013-03-03 08:19:00,
2013-03-03 03:20:00,26.2,20.0,29.71,NE,47,2.0,6.0,77,0.00,,,0.00,VWS V14.01,2013-03-03 08:20:00,
2013-03-03 03:21:00,26.1,19.9,29.71,NE,47,2.0,2.0,77,0.00,,,0.00,VWS V14.01,2013-03-03 08:21:00,
2013-03-03 03:22:00,26.1,19.9,29.71,NE,47,2.0,2.0,77,0.00,,,0.00,VWS V14.01,2013-03-03 08:22:00,
2013-03-03 03:23:00,26.1,19.9,29.71,NE,47,2.0,2.0,77,0.00,,,0.00,VWS V14.01,2013-03-03 08:23:00,
2013-03-03 03:24:00,26.1,19.6,29.71,ENE,70,2.0,4.0,76,0.00,,,0.00,VWS V14.01,2013-03-03 08:24:00,
2013-03-03 03:25:00,26.1,19.9,29.71,North,350,1.0,4.0,77,0.00,,,0.00,VWS V14.01,2013-03-03 08:25:00,
2013-03-03 03:26:00,26.1,19.6,29.71,NE,48,3.0,4.0,76,0.00,,,0.00,VWS V14.01,2013-03-03 08:26:00,
2013-03-03 03:27:00,26.1,19.6,29.71,NE,48,3.0,4.0,76,0.00,,,0.00,VWS V14.01,2013-03-03 08:27:00,
2013-03-03 03:28:00,26.1,19.6,29.71,NE,48,3.0,4.0,76,0.00,,,0.00,VWS V14.01,2013-03-03 08:28:00,
2013-03-03 03:29:00,26.1,19.6,29.71,NNW,338,7.0,7.0,76,0.00,,,0.00,VWS V14.01,2013-03-03 08:29:00,
2013-03-03 03:30:00,26.1,19.6,29.71,NW,305,2.0,7.0,76,0.00,,,0.00,VWS V14.01,2013-03-03 08:30:00,
2013-03-03 03:31:00,26.1,19.6,29.71,WNW,290,3.0,4.0,76,0.00,,,0.00,VWS V14.01,2013-03-03 08:31:00,
2013-03-03 03:32:00,26.1,19.6,29.71,WNW,290,3.0,4.0,76,0.00,,,0.00,VWS V14.01,2013-03-03 08:32:00,
2013-03-03 03:33:00,26.1,19.6,29.71,WNW,290,3.0,4.0,76,0.00,,,0.00,VWS V14.01,2013-03-03 08:33:00,
2013-03-03 03:34:00,26.1,19.6,29.71,North,360,3.0,7.0,76,0.00,,,0.00,VWS V14.01,2013-03-03 08:34:00,
2013-03-03 03:35:00,26.1,19.6,29.71,NE,55,4.0,7.0,76,0.00,,,0.00,VWS V14.01,2013-03-03 08:35:00,
2013-03-03 03:36:00,26.1,19.6,29.71,NE,36,0.0,7.0,76,0.00,,,0.00,VWS V14.01,2013-03-03 08:36:00,
2013-03-03 03:37:00,26.1,19.6,29.71,NE,36,0.0,7.0,76,0.00,,,0.00,VWS V14.01,2013-03-03 08:37:00,
2013-03-03 03:38:00,26.1,19.6,29.71,NNW,344,0.0,7.0,76,0.00,,,0.00,VWS V14.01,2013-03-03 08:38:00,
2013-03-03 03:39:00,26.1,19.6,29.71,NNW,336,7.0,8.0,76,0.00,,,0.00,VWS V14.01,2013-03-03 08:39:00,
2013-03-03 03:40:00,26.1,19.6,29.71,West,269,0.0,9.0,76,0.00,,,0.00,VWS V14.01,2013-03-03 08:40:00,
2013-03-03 03:41:00,26.1,19.6,29.71,West,269,0.0,0.0,76,0.00,,,0.00,VWS V14.01,2013-03-03 08:41:00,
2013-03-03 03:42:00,26.1,19.6,29.71,West,269,0.0,0.0,76,0.00,,,0.00,VWS V14.01,2013-03-03 08:42:00,
2013-03-03 03:43:00,26.1,19.6,29.71,West,269,0.0,0.0,76,0.00,,,0.00,VWS V14.01,2013-03-03 08:43:00,
2013-03-03 03:44:00,26.1,19.6,29.71,West,279,3.0,6.0,76,0.00,,,0.00,VWS V14.01,2013-03-03 08:44:00,
2013-03-03 03:45:00,26.1,19.6,29.72,East,95,0.0,6.0,76,0.00,,,0.00,VWS V14.01,2013-03-03 08:45:00,
2013-03-03 03:46:00,26.0,19.5,29.72,NNW,327,4.0,6.0,76,0.00,,,0.00,VWS V14.01,2013-03-03 08:46:00,
2013-03-03 03:47:00,26.0,19.5,29.72,NNW,327,4.0,6.0,76,0.00,,,0.00,VWS V14.01,2013-03-03 08:47:00,
2013-03-03 03:48:00,26.0,19.5,29.72,SSE,160,4.0,7.0,76,0.00,,,0.00,VWS V14.01,2013-03-03 08:48:00,
2013-03-03 03:49:00,26.0,19.5,29.72,West,261,1.0,7.0,76,0.00,,,0.00,VWS V14.01,2013-03-03 08:49:00,
2013-03-03 03:50:00,26.0,19.5,29.72,ENE,64,0.0,7.0,76,0.00,,,0.00,VWS V14.01,2013-03-03 08:50:00,
2013-03-03 03:51:00,26.0,19.5,29.72,NW,324,3.0,3.0,76,0.00,,,0.00,VWS V14.01,2013-03-03 08:51:00,
2013-03-03 03:52:00,26.0,19.5,29.72,NW,324,3.0,3.0,76,0.00,,,0.00,VWS V14.01,2013-03-03 08:52:00,
2013-03-03 03:53:00,26.0,19.5,29.72,NW,324,3.0,3.0,76,0.00,,,0.00,VWS V14.01,2013-03-03 08:53:00,
2013-03-03 03:54:00,26.0,19.5,29.72,North,360,2.0,4.0,76,0.00,,,0.00,VWS V14.01,2013-03-03 08:54:00,
2013-03-03 03:55:00,26.0,19.5,29.72,North,360,2.0,4.0,76,0.00,,,0.00,VWS V14.01,2013-03-03 08:55:00,
2013-03-03 03:56:00,26.0,19.5,29.72,NNW,348,1.0,4.0,76,0.00,,,0.00,VWS V14.01,2013-03-03 08:56:00,
2013-03-03 03:57:00,26.0,19.5,29.72,NNW,348,1.0,4.0,76,0.00,,,0.00,VWS V14.01,2013-03-03 08:57:00,
2013-03-03 03:58:00,26.0,19.5,29.72,NNE,27,0.0,4.0,76,0.00,,,0.00,VWS V14.01,2013-03-03 08:58:00,
2013-03-03 03:59:00,26.0,19.5,29.72,NE,35,0.0,4.0,76,0.00,,,0.00,VWS V14.01,2013-03-03 08:59:00,
2013-03-03 04:00:00,26.0,19.5,29.72,NNE,32,1.0,4.0,76,0.00,,,0.00,VWS V14.01,2013-03-03 09:00:00,
2013-03-03 04:01:00,26.0,19.5,29.72,East,101,1.0,3.0,76,0.00,,,0.00,VWS V14.01,2013-03-03 09:01:00,
2013-03-03 04:02:00,26.0,19.5,29.72,East,101,1.0,3.0,76,0.00,,,0.00,VWS V14.01,2013-03-03 09:02:00,
2013-03-03 04:03:00,26.0,19.5,29.72,NE,48,4.0,4.0,76,0.00,,,0.00,VWS V14.01,2013-03-03 09:03:00,
2013-03-03 04:04:00,26.0,19.5,29.72,NNE,26,0.0,4.0,76,0.00,,,0.00,VWS V14.01,2013-03-03 09:04:00,
2013-03-03 04:05:00,26.0,19.5,29.72,NNW,344,1.0,4.0,76,0.00,,,0.00,VWS V14.01,2013-03-03 09:05:00,
2013-03-03 04:06:00,26.0,19.5,29.72,North,5,2.0,4.0,76,0.00,,,0.00,VWS V14.01,2013-03-03 09:06:00,
2013-03-03 04:07:00,26.0,19.5,29.72,North,5,2.0,4.0,76,0.00,,,0.00,VWS V14.01,2013-03-03 09:07:00,
2013-03-03 04:08:00,26.0,19.5,29.72,SW,223,1.0,4.0,76,0.00,,,0.00,VWS V14.01,2013-03-03 09:08:00,
2013-03-03 04:09:00,26.0,19.5,29.72,SW,223,0.0,4.0,76,0.00,,,0.00,VWS V14.01,2013-03-03 09:09:00,
2013-03-03 04:10:00,26.0,19.5,29.72,West,271,7.0,7.0,76,0.00,,,0.00,VWS V14.01,2013-03-03 09:10:00,
2013-03-03 04:11:00,26.0,19.5,29.72,NW,306,2.0,7.0,76,0.00,,,0.00,VWS V14.01,2013-03-03 09:11:00,
2013-03-03 04:12:00,26.0,19.5,29.72,NW,306,2.0,7.0,76,0.00,,,0.00,VWS V14.01,2013-03-03 09:12:00,
2013-03-03 04:13:00,26.0,19.5,29.72,NW,306,2.0,7.0,76,0.00,,,0.00,VWS V14.01,2013-03-03 09:13:00,
2013-03-03 04:14:00,25.9,19.4,29.72,SSW,205,4.0,7.0,76,0.00,,,0.00,VWS V14.01,2013-03-03 09:14:00,
2013-03-03 04:15:00,26.0,19.5,29.72,NW,313,2.0,7.0,76,0.00,,,0.00,VWS V14.01,2013-03-03 09:15:00,
2013-03-03 04:16:00,26.0,19.5,29.72,West,266,1.0,7.0,76,0.00,,,0.00,VWS V14.01,2013-03-03 09:16:00,
2013-03-03 04:17:00,26.0,19.5,29.72,West,266,1.0,7.0,76,0.00,,,0.00,VWS V14.01,2013-03-03 09:17:00,
2013-03-03 04:18:00,25.9,19.4,29.72,NW,320,0.0,7.0,76,0.00,,,0.00,VWS V14.01,2013-03-03 09:18:00,
2013-03-03 04:19:00,25.9,19.4,29.72,NW,320,0.0,7.0,76,0.00,,,0.00,VWS V14.01,2013-03-03 09:19:00,
2013-03-03 04:20:00,25.9,19.4,29.72,NW,320,1.0,7.0,76,0.00,,,0.00,VWS V14.01,2013-03-03 09:20:00,
2013-03-03 04:21:00,25.9,19.4,29.72,NW,320,3.0,3.0,76,0.00,,,0.00,VWS V14.01,2013-03-03 09:21:00,
2013-03-03 04:22:00,25.9,19.4,29.72,NW,320,3.0,3.0,76,0.00,,,0.00,VWS V14.01,2013-03-03 09:22:00,
2013-03-03 04:23:00,25.9,19.4,29.72,NW,320,3.0,3.0,76,0.00,,,0.00,VWS V14.01,2013-03-03 09:23:00,
2013-03-03 04:24:00,25.9,19.4,29.72,West,267,3.0,3.0,76,0.00,,,0.00,VWS V14.01,2013-03-03 09:24:00,
2013-03-03 04:25:00,25.9,19.4,29.72,NW,318,7.0,7.0,76,0.00,,,0.00,VWS V14.01,2013-03-03 09:25:00,
2013-03-03 04:26:00,25.9,19.4,29.72,NW,306,6.0,7.0,76,0.00,,,0.00,VWS V14.01,2013-03-03 09:26:00,
2013-03-03 04:27:00,25.9,19.4,29.72,NW,306,6.0,7.0,76,0.00,,,0.00,VWS V14.01,2013-03-03 09:27:00,
2013-03-03 04:28:00,25.9,19.4,29.72,NNW,332,1.0,7.0,76,0.00,,,0.00,VWS V14.01,2013-03-03 09:28:00,
2013-03-03 04:29:00,25.9,19.4,29.72,NW,316,0.0,7.0,76,0.00,,,0.00,VWS V14.01,2013-03-03 09:29:00,
2013-03-03 04:30:00,25.8,19.3,29.72,West,263,5.0,7.0,76,0.00,,,0.00,VWS V14.01,2013-03-03 09:30:00,
2013-03-03 04:31:00,25.9,19.4,29.72,NNW,338,0.0,3.0,76,0.00,,,0.00,VWS V14.01,2013-03-03 09:31:00,
2013-03-03 04:32:00,25.9,19.4,29.72,NNW,338,0.0,3.0,76,0.00,,,0.00,VWS V14.01,2013-03-03 09:32:00,
2013-03-03 04:33:00,25.9,19.4,29.72,NNW,338,0.0,3.0,76,0.00,,,0.00,VWS V14.01,2013-03-03 09:33:00,
2013-03-03 04:34:00,25.8,19.3,29.72,NE,44,2.0,3.0,76,0.00,,,0.00,VWS V14.01,2013-03-03 09:34:00,
2013-03-03 04:35:00,25.8,19.3,29.72,NE,34,0.0,3.0,76,0.00,,,0.00,VWS V14.01,2013-03-03 09:35:00,
2013-03-03 04:36:00,25.8,19.3,29.72,NE,34,0.0,3.0,76,0.00,,,0.00,VWS V14.01,2013-03-03 09:36:00,
2013-03-03 04:37:00,25.8,19.3,29.72,NE,34,0.0,3.0,76,0.00,,,0.00,VWS V14.01,2013-03-03 09:37:00,
2013-03-03 04:38:00,25.8,19.3,29.72,NE,34,0.0,3.0,76,0.00,,,0.00,VWS V14.01,2013-03-03 09:38:00,
2013-03-03 04:39:00,25.8,19.3,29.72,South,175,0.0,3.0,76,0.00,,,0.00,VWS V14.01,2013-03-03 09:39:00,
2013-03-03 04:40:00,25.8,19.3,29.72,South,188,1.0,4.0,76,0.00,,,0.00,VWS V14.01,2013-03-03 09:40:00,
2013-03-03 04:41:00,25.8,19.3,29.72,South,188,1.0,1.0,76,0.00,,,0.00,VWS V14.01,2013-03-03 09:41:00,
2013-03-03 04:42:00,25.8,19.3,29.72,South,188,1.0,1.0,76,0.00,,,0.00,VWS V14.01,2013-03-03 09:42:00,
2013-03-03 04:43:00,25.8,19.3,29.72,South,188,1.0,1.0,76,0.00,,,0.00,VWS V14.01,2013-03-03 09:43:00,
2013-03-03 04:44:00,25.8,19.6,29.72,NNE,33,2.0,7.0,77,0.00,,,0.00,VWS V14.01,2013-03-03 09:44:00,
2013-03-03 04:45:00,25.8,19.6,29.72,NE,38,3.0,7.0,77,0.00,,,0.00,VWS V14.01,2013-03-03 09:45:00,
2013-03-03 04:46:00,25.8,19.6,29.72,NE,38,0.0,7.0,77,0.00,,,0.00,VWS V14.01,2013-03-03 09:46:00,
2013-03-03 04:47:00,25.8,19.6,29.72,NE,38,0.0,7.0,77,0.00,,,0.00,VWS V14.01,2013-03-03 09:47:00,
2013-03-03 04:48:00,25.8,19.6,29.72,NE,38,0.0,7.0,77,0.00,,,0.00,VWS V14.01,2013-03-03 09:48:00,
2013-03-03 04:49:00,25.8,19.6,29.72,NE,52,2.0,7.0,77,0.00,,,0.00,VWS V14.01,2013-03-03 09:49:00,
2013-03-03 04:50:00,25.8,19.6,29.72,North,360,2.0,7.0,77,0.00,,,0.00,VWS V14.01,2013-03-03 09:50:00,
2013-03-03 04:51:00,25.7,19.5,29.72,North,360,0.0,0.0,77,0.00,,,0.00,VWS V14.01,2013-03-03 09:51:00,
2013-03-03 04:52:00,25.7,19.5,29.72,North,360,0.0,0.0,77,0.00,,,0.00,VWS V14.01,2013-03-03 09:52:00,
2013-03-03 04:53:00,25.7,19.5,29.72,North,360,0.0,0.0,77,0.00,,,0.00,VWS V14.01,2013-03-03 09:53:00,
2013-03-03 04:54:00,25.8,19.6,29.72,NNW,347,1.0,2.0,77,0.00,,,0.00,VWS V14.01,2013-03-03 09:54:00,
2013-03-03 04:55:00,25.7,19.5,29.72,North,350,0.0,2.0,77,0.00,,,0.00,VWS V14.01,2013-03-03 09:55:00,
2013-03-03 04:56:00,25.7,19.5,29.72,North,350,0.0,2.0,77,0.00,,,0.00,VWS V14.01,2013-03-03 09:56:00,
2013-03-03 04:57:00,25.7,19.5,29.72,North,350,0.0,2.0,77,0.00,,,0.00,VWS V14.01,2013-03-03 09:57:00,
2013-03-03 04:58:00,25.8,19.6,29.72,NNE,19,1.0,2.0,77,0.00,,,0.00,VWS V14.01,2013-03-03 09:58:00,
2013-03-03 04:59:00,25.7,19.5,29.72,North,11,0.0,2.0,77,0.00,,,0.00,VWS V14.01,2013-03-03 09:59:00,
2013-03-03 05:00:00,25.8,19.6,29.73,North,11,0.0,3.0,77,0.00,,,0.00,VWS V14.01,2013-03-03 10:00:00,
2013-03-03 05:01:00,25.7,19.5,29.73,North,5,1.0,2.0,77,0.00,,,0.00,VWS V14.01,2013-03-03 10:01:00,
2013-03-03 05:02:00,25.7,19.5,29.73,North,5,1.0,2.0,77,0.00,,,0.00,VWS V14.01,2013-03-03 10:02:00,
2013-03-03 05:03:00,25.8,19.6,29.73,North,5,0.0,2.0,77,0.00,,,0.00,VWS V14.01,2013-03-03 10:03:00,
2013-03-03 05:04:00,25.8,19.6,29.73,NNW,330,0.0,2.0,77,0.00,,,0.00,VWS V14.01,2013-03-03 10:04:00,
2013-03-03 05:05:00,25.8,19.6,29.73,NNW,330,0.0,2.0,77,0.00,,,0.00,VWS V14.01,2013-03-03 10:05:00,
2013-03-03 05:06:00,25.8,19.6,29.73,NNW,330,0.0,2.0,77,0.00,,,0.00,VWS V14.01,2013-03-03 10:06:00,
2013-03-03 05:07:00,25.8,19.6,29.73,NNW,330,0.0,2.0,77,0.00,,,0.00,VWS V14.01,2013-03-03 10:07:00,
2013-03-03 05:08:00,25.8,19.6,29.73,NE,49,0.0,2.0,77,0.00,,,0.00,VWS V14.01,2013-03-03 10:08:00,
2013-03-03 05:09:00,25.8,19.6,29.73,NE,49,2.0,2.0,77,0.00,,,0.00,VWS V14.01,2013-03-03 10:09:00,
2013-03-03 05:10:00,25.8,19.6,29.73,NE,49,0.0,3.0,77,0.00,,,0.00,VWS V14.01,2013-03-03 10:10:00,
2013-03-03 05:11:00,25.8,19.6,29.73,NE,49,0.0,0.0,77,0.00,,,0.00,VWS V14.01,2013-03-03 10:11:00,
2013-03-03 05:12:00,25.8,19.6,29.73,NE,49,0.0,0.0,77,0.00,,,0.00,VWS V14.01,2013-03-03 10:12:00,
2013-03-03 05:13:00,25.8,19.6,29.73,NE,49,0.0,0.0,77,0.00,,,0.00,VWS V14.01,2013-03-03 10:13:00,
2013-03-03 05:14:00,25.8,19.6,29.73,NE,49,2.0,2.0,77,0.00,,,0.00,VWS V14.01,2013-03-03 10:14:00,
2013-03-03 05:15:00,25.8,19.6,29.73,NNW,329,0.0,2.0,77,0.00,,,0.00,VWS V14.01,2013-03-03 10:15:00,
2013-03-03 05:16:00,25.8,19.6,29.73,NNW,329,1.0,2.0,77,0.00,,,0.00,VWS V14.01,2013-03-03 10:16:00,
2013-03-03 05:17:00,25.8,19.6,29.73,NNW,329,1.0,2.0,77,0.00,,,0.00,VWS V14.01,2013-03-03 10:17:00,
2013-03-03 05:18:00,25.8,19.6,29.73,NNW,329,1.0,2.0,77,0.00,,,0.00,VWS V14.01,2013-03-03 10:18:00,
2013-03-03 05:19:00,25.8,19.6,29.73,NNE,22,2.0,2.0,77,0.00,,,0.00,VWS V14.01,2013-03-03 10:19:00,
2013-03-03 05:20:00,25.8,19.6,29.73,WNW,292,4.0,4.0,77,0.00,,,0.00,VWS V14.01,2013-03-03 10:20:00,
2013-03-03 05:21:00,25.8,19.6,29.73,ENE,72,3.0,3.0,77,0.00,,,0.00,VWS V14.01,2013-03-03 10:21:00,
2013-03-03 05:22:00,25.8,19.6,29.73,ENE,72,3.0,3.0,77,0.00,,,0.00,VWS V14.01,2013-03-03 10:22:00,
2013-03-03 05:23:00,25.8,19.6,29.73,ENE,72,3.0,3.0,77,0.00,,,0.00,VWS V14.01,2013-03-03 10:23:00,
2013-03-03 05:24:00,25.7,19.5,29.73,WSW,242,0.0,3.0,77,0.00,,,0.00,VWS V14.01,2013-03-03 10:24:00,
2013-03-03 05:25:00,25.8,19.6,29.73,North,11,4.0,5.0,77,0.00,,,0.00,VWS V14.01,2013-03-03 10:25:00,
2013-03-03 05:26:00,25.7,19.5,29.73,North,11,0.0,5.0,77,0.00,,,0.00,VWS V14.01,2013-03-03 10:26:00,
2013-03-03 05:27:00,25.7,19.5,29.73,North,11,0.0,5.0,77,0.00,,,0.00,VWS V14.01,2013-03-03 10:27:00,
2013-03-03 05:28:00,25.7,19.5,29.73,North,11,0.0,5.0,77,0.00,,,0.00,VWS V14.01,2013-03-03 10:28:00,
2013-03-03 05:29:00,25.7,19.5,29.73,SE,131,1.0,5.0,77,0.00,,,0.00,VWS V14.01,2013-03-03 10:29:00,
2013-03-03 05:30:00,25.7,19.5,29.73,WNW,296,2.0,5.0,77,0.00,,,0.00,VWS V14.01,2013-03-03 10:30:00,
2013-03-03 05:31:00,25.7,19.5,29.73,WNW,298,2.0,5.0,77,0.00,,,0.00,VWS V14.01,2013-03-03 10:31:00,
2013-03-03 05:32:00,25.7,19.5,29.73,WNW,298,2.0,5.0,77,0.00,,,0.00,VWS V14.01,2013-03-03 10:32:00,
2013-03-03 05:33:00,25.7,19.5,29.73,East,91,1.0,3.0,77,0.00,,,0.00,VWS V14.01,2013-03-03 10:33:00,
2013-03-03 05:34:00,25.7,19.5,29.73,ENE,78,3.0,3.0,77,0.00,,,0.00,VWS V14.01,2013-03-03 10:34:00,
2013-03-03 05:35:00,25.7,19.5,29.73,ENE,66,2.0,3.0,77,0.00,,,0.00,VWS V14.01,2013-03-03 10:35:00,
2013-03-03 05:36:00,25.7,19.5,29.73,East,89,6.0,6.0,77,0.00,,,0.00,VWS V14.01,2013-03-03 10:36:00,
2013-03-03 05:37:00,25.7,19.5,29.73,East,89,6.0,6.0,77,0.00,,,0.00,VWS V14.01,2013-03-03 10:37:00,
2013-03-03 05:38:00,25.7,19.2,29.73,East,92,0.0,6.0,76,0.00,,,0.00,VWS V14.01,2013-03-03 10:38:00,
2013-03-03 05:39:00,25.7,19.2,29.73,East,92,1.0,6.0,76,0.00,,,0.00,VWS V14.01,2013-03-03 10:39:00,
2013-03-03 05:40:00,25.7,19.2,29.73,NNE,23,2.0,6.0,76,0.00,,,0.00,VWS V14.01,2013-03-03 10:40:00,
2013-03-03 05:41:00,25.6,19.1,29.73,North,360,4.0,4.0,76,0.00,,,0.00,VWS V14.01,2013-03-03 10:41:00,
2013-03-03 05:42:00,25.7,19.2,29.73,NNW,334,0.0,4.0,76,0.00,,,0.00,VWS V14.01,2013-03-03 10:42:00,
2013-03-03 05:43:00,25.6,19.1,29.73,NNE,21,4.0,5.0,76,0.00,,,0.00,VWS V14.01,2013-03-03 10:43:00,
2013-03-03 05:44:00,25.6,19.1,29.73,NNE,26,3.0,5.0,76,0.00,,,0.00,VWS V14.01,2013-03-03 10:44:00,
2013-03-03 05:45:00,25.6,19.1,29.73,North,355,7.0,7.0,76,0.00,,,0.00,VWS V14.01,2013-03-03 10:45:00,
2013-03-03 05:46:00,25.6,19.1,29.73,NW,321,3.0,7.0,76,0.00,,,0.00,VWS V14.01,2013-03-03 10:46:00,
2013-03-03 05:47:00,25.6,19.1,29.73,NW,321,3.0,7.0,76,0.00,,,0.00,VWS V14.01,2013-03-03 10:47:00,
2013-03-03 05:48:00,25.6,19.1,29.73,West,263,0.0,7.0,76,0.00,,,0.00,VWS V14.01,2013-03-03 10:48:00,
2013-03-03 05:49:00,25.6,19.1,29.73,North,355,0.0,7.0,76,0.00,,,0.00,VWS V14.01,2013-03-03 10:49:00,
2013-03-03 05:50:00,25.6,19.1,29.73,NNE,13,2.0,7.0,76,0.00,,,0.00,VWS V14.01,2013-03-03 10:50:00,
2013-03-03 05:51:00,25.6,19.1,29.73,NNE,13,1.0,2.0,76,0.00,,,0.00,VWS V14.01,2013-03-03 10:51:00,
2013-03-03 05:52:00,25.6,19.1,29.73,NNE,13,1.0,2.0,76,0.00,,,0.00,VWS V14.01,2013-03-03 10:52:00,
2013-03-03 05:53:00,25.6,19.1,29.73,NNE,13,1.0,2.0,76,0.00,,,0.00,VWS V14.01,2013-03-03 10:53:00,
2013-03-03 05:54:00,25.6,19.1,29.73,NNE,20,0.0,2.0,76,0.00,,,0.00,VWS V14.01,2013-03-03 10:54:00,
2013-03-03 05:55:00,25.6,19.1,29.73,NNE,15,1.0,2.0,76,0.00,,,0.00,VWS V14.01,2013-03-03 10:55:00,
2013-03-03 05:56:00,25.6,19.1,29.73,NNE,19,1.0,2.0,76,0.00,,,0.00,VWS V14.01,2013-03-03 10:56:00,
2013-03-03 05:57:00,25.6,19.1,29.73,NNE,19,1.0,2.0,76,0.00,,,0.00,VWS V14.01,2013-03-03 10:57:00,
2013-03-03 05:58:00,25.6,19.1,29.73,NNE,19,1.0,2.0,76,0.00,,,0.00,VWS V14.01,2013-03-03 10:58:00,
2013-03-03 05:59:00,25.6,19.1,29.73,West,260,5.0,5.0,76,0.00,,,0.00,VWS V14.01,2013-03-03 10:59:00,
2013-03-03 06:00:00,25.6,19.1,29.73,North,355,2.0,5.0,76,0.00,,,0.00,VWS V14.01,2013-03-03 11:00:00,
2013-03-03 06:01:00,25.6,19.1,29.73,WNW,289,1.0,2.0,76,0.00,,,0.00,VWS V14.01,2013-03-03 11:01:00,
2013-03-03 06:02:00,25.6,19.1,29.73,WNW,289,1.0,2.0,76,0.00,,,0.00,VWS V14.01,2013-03-03 11:02:00,
2013-03-03 06:03:00,25.6,19.1,29.73,WNW,289,0.0,2.0,76,0.00,,,0.00,VWS V14.01,2013-03-03 11:03:00,
2013-03-03 06:04:00,25.6,19.1,29.73,North,9,2.0,4.0,76,0.00,,,0.00,VWS V14.01,2013-03-03 11:04:00,
2013-03-03 06:05:00,25.6,19.1,29.73,NW,323,0.0,4.0,76,0.00,,,0.00,VWS V14.01,2013-03-03 11:05:00,
2013-03-03 06:06:00,25.6,19.1,29.73,NW,323,1.0,4.0,76,0.00,,,0.00,VWS V14.01,2013-03-03 11:06:00,
2013-03-03 06:07:00,25.6,19.1,29.73,NW,323,1.0,4.0,76,0.00,,,0.00,VWS V14.01,2013-03-03 11:07:00,
2013-03-03 06:08:00,25.6,19.1,29.73,NW,326,0.0,4.0,76,0.00,,,0.00,VWS V14.01,2013-03-03 11:08:00,
2013-03-03 06:09:00,25.6,19.1,29.73,ENE,61,0.0,4.0,76,0.00,,,0.00,VWS V14.01,2013-03-03 11:09:00,
2013-03-03 06:10:00,25.6,19.1,29.73,ENE,61,2.0,4.0,76,0.00,,,0.00,VWS V14.01,2013-03-03 11:10:00,
2013-03-03 06:11:00,25.6,19.1,29.73,ENE,62,0.0,3.0,76,0.00,,,0.00,VWS V14.01,2013-03-03 11:11:00,
2013-03-03 06:12:00,25.6,19.1,29.73,ENE,62,0.0,3.0,76,0.00,,,0.00,VWS V14.01,2013-03-03 11:12:00,
2013-03-03 06:13:00,25.6,19.1,29.73,NNW,329,0.0,3.0,76,0.00,,,0.00,VWS V14.01,2013-03-03 11:13:00,
2013-03-03 06:14:00,25.6,19.1,29.73,NNW,330,2.0,3.0,76,0.00,,,0.00,VWS V14.01,2013-03-03 11:14:00,
2013-03-03 06:15:00,25.6,19.1,29.73,NE,51,1.0,3.0,76,0.00,,,0.00,VWS V14.01,2013-03-03 11:15:00,
2013-03-03 06:16:00,25.6,19.1,29.73,NNE,23,1.0,3.0,76,0.00,,,0.00,VWS V14.01,2013-03-03 11:16:00,
2013-03-03 06:17:00,25.6,19.1,29.73,NNE,23,1.0,3.0,76,0.00,,,0.00,VWS V14.01,2013-03-03 11:17:00,
2013-03-03 06:18:00,25.6,19.1,29.73,NNE,23,1.0,3.0,76,0.00,,,0.00,VWS V14.01,2013-03-03 11:18:00,
2013-03-03 06:19:00,25.6,19.1,29.73,North,355,0.0,3.0,76,0.00,,,0.00,VWS V14.01,2013-03-03 11:19:00,
2013-03-03 06:20:00,25.6,19.1,29.73,North,355,0.0,3.0,76,0.00,,,0.00,VWS V14.01,2013-03-03 11:20:00,
2013-03-03 06:21:00,25.6,19.1,29.73,North,355,2.0,2.0,76,0.00,,,0.00,VWS V14.01,2013-03-03 11:21:00,
2013-03-03 06:22:00,25.6,19.1,29.73,North,355,2.0,2.0,76,0.00,,,0.00,VWS V14.01,2013-03-03 11:22:00,
2013-03-03 06:23:00,25.6,19.1,29.73,North,355,2.0,2.0,76,0.00,,,0.00,VWS V14.01,2013-03-03 11:23:00,
2013-03-03 06:24:00,25.6,19.1,29.73,ENE,61,3.0,3.0,76,0.00,,,0.00,VWS V14.01,2013-03-03 11:24:00,
2013-03-03 06:25:00,25.6,19.1,29.73,ENE,59,0.0,3.0,76,0.00,,,0.00,VWS V14.01,2013-03-03 11:25:00,
2013-03-03 06:26:00,25.6,19.1,29.73,West,281,3.0,3.0,76,0.00,,,0.00,VWS V14.01,2013-03-03 11:26:00,
2013-03-03 06:27:00,25.6,19.1,29.73,West,281,3.0,3.0,76,0.00,,,0.00,VWS V14.01,2013-03-03 11:27:00,
2013-03-03 06:28:00,25.6,19.1,29.73,West,281,3.0,3.0,76,0.00,,,0.00,VWS V14.01,2013-03-03 11:28:00,
2013-03-03 06:29:00,25.6,19.1,29.73,NNE,13,2.0,3.0,76,0.00,,,0.00,VWS V14.01,2013-03-03 11:29:00,
2013-03-03 06:30:00,25.6,19.1,29.73,NE,37,5.0,7.0,76,0.00,,,0.00,VWS V14.01,2013-03-03 11:30:00,
2013-03-03 06:31:00,25.6,19.1,29.73,NE,40,3.0,4.0,76,0.00,,,0.00,VWS V14.01,2013-03-03 11:31:00,
2013-03-03 06:32:00,25.6,19.1,29.73,NE,40,3.0,4.0,76,0.00,,,0.00,VWS V14.01,2013-03-03 11:32:00,
2013-03-03 06:33:00,25.6,19.1,29.73,NE,40,3.0,4.0,76,0.00,,,0.00,VWS V14.01,2013-03-03 11:33:00,
2013-03-03 06:34:00,25.6,19.1,29.73,NNW,333,0.0,4.0,76,0.00,,,0.00,VWS V14.01,2013-03-03 11:34:00,
2013-03-03 06:35:00,25.6,19.1,29.73,NNW,333,0.0,4.0,76,0.00,,,0.00,VWS V14.01,2013-03-03 11:35:00,
2013-03-03 06:36:00,25.6,19.1,29.73,NNW,333,1.0,4.0,76,0.00,,,0.00,VWS V14.01,2013-03-03 11:36:00,
2013-03-03 06:37:00,25.6,19.1,29.73,NNW,333,1.0,4.0,76,0.00,,,0.00,VWS V14.01,2013-03-03 11:37:00,
2013-03-03 06:38:00,25.6,19.1,29.73,NNW,333,1.0,4.0,76,0.00,,,0.00,VWS V14.01,2013-03-03 11:38:00,
2013-03-03 06:39:00,25.6,19.1,29.73,NE,35,1.0,4.0,76,0.00,,,0.00,VWS V14.01,2013-03-03 11:39:00,
2013-03-03 06:40:00,25.6,19.1,29.73,NE,36,0.0,4.0,76,0.00,,,0.00,VWS V14.01,2013-03-03 11:40:00,
2013-03-03 06:41:00,25.6,19.1,29.73,NE,36,1.0,1.0,76,0.00,,,0.00,VWS V14.01,2013-03-03 11:41:00,
2013-03-03 06:42:00,25.6,19.1,29.73,NE,36,1.0,1.0,76,0.00,,,0.00,VWS V14.01,2013-03-03 11:42:00,
2013-03-03 06:43:00,25.6,19.1,29.73,NE,36,1.0,1.0,76,0.00,,,0.00,VWS V14.01,2013-03-03 11:43:00,
2013-03-03 06:44:00,25.6,19.1,29.73,North,360,2.0,3.0,76,0.00,,,0.00,VWS V14.01,2013-03-03 11:44:00,
2013-03-03 06:45:00,25.6,19.1,29.73,ENE,74,5.0,8.0,76,0.00,,,0.00,VWS V14.01,2013-03-03 11:45:00,
2013-03-03 06:46:00,25.6,19.1,29.73,North,360,1.0,8.0,76,0.00,,,0.00,VWS V14.01,2013-03-03 11:46:00,
2013-03-03 06:47:00,25.6,19.1,29.73,North,360,1.0,8.0,76,0.00,,,0.00,VWS V14.01,2013-03-03 11:47:00,
2013-03-03 06:48:00,25.6,19.1,29.73,North,360,1.0,8.0,76,0.00,,,0.00,VWS V14.01,2013-03-03 11:48:00,
2013-03-03 06:49:00,25.6,19.1,29.73,WNW,297,1.0,8.0,76,0.00,,,0.00,VWS V14.01,2013-03-03 11:49:00,
2013-03-03 06:50:00,25.6,19.1,29.73,WNW,294,2.0,8.0,76,0.00,,,0.00,VWS V14.01,2013-03-03 11:50:00,
2013-03-03 06:51:00,25.6,19.1,29.73,NNW,344,3.0,4.0,76,0.00,,,0.00,VWS V14.01,2013-03-03 11:51:00,
2013-03-03 06:52:00,25.6,19.1,29.73,NNW,344,3.0,4.0,76,0.00,,,0.00,VWS V14.01,2013-03-03 11:52:00,
2013-03-03 06:53:00,25.6,19.1,29.73,NNW,344,3.0,4.0,76,0.00,,,0.00,VWS V14.01,2013-03-03 11:53:00,
2013-03-03 06:54:00,25.7,19.2,29.73,North,349,4.0,4.0,76,0.00,,,0.00,VWS V14.01,2013-03-03 11:54:00,
2013-03-03 06:55:00,25.6,19.1,29.73,NW,325,0.0,5.0,76,0.00,,,0.00,VWS V14.01,2013-03-03 11:55:00,
2013-03-03 06:56:00,25.7,19.2,29.73,NW,325,0.0,5.0,76,0.00,,,0.00,VWS V14.01,2013-03-03 11:56:00,
2013-03-03 06:57:00,25.7,19.2,29.73,NW,325,0.0,5.0,76,0.00,,,0.00,VWS V14.01,2013-03-03 11:57:00,
2013-03-03 06:58:00,25.7,19.2,29.73,NW,325,0.0,5.0,76,0.00,,,0.00,VWS V14.01,2013-03-03 11:58:00,
2013-03-03 06:59:00,25.7,19.5,29.73,NW,318,3.0,5.0,77,0.00,,,0.00,VWS V14.01,2013-03-03 11:59:00,
2013-03-03 07:00:00,25.7,19.5,29.74,West,274,5.0,8.0,77,0.00,,,0.00,VWS V14.01,2013-03-03 12:00:00,
2013-03-03 07:01:00,25.7,19.5,29.74,West,275,0.0,1.0,77,0.00,,,0.00,VWS V14.01,2013-03-03 12:01:00,
2013-03-03 07:02:00,25.7,19.5,29.74,West,275,0.0,1.0,77,0.00,,,0.00,VWS V14.01,2013-03-03 12:02:00,
2013-03-03 07:03:00,25.7,19.5,29.74,West,275,0.0,1.0,77,0.00,,,0.00,VWS V14.01,2013-03-03 12:03:00,
2013-03-03 07:04:00,25.7,19.2,29.74,North,355,1.0,3.0,76,0.00,,,0.00,VWS V14.01,2013-03-03 12:04:00,
2013-03-03 07:05:00,25.7,19.2,29.74,NW,313,0.0,5.0,76,0.00,,,0.00,VWS V14.01,2013-03-03 12:05:00,
2013-03-03 07:06:00,25.8,19.3,29.74,NNW,331,3.0,5.0,76,0.00,,,0.00,VWS V14.01,2013-03-03 12:06:00,
2013-03-03 07:07:00,25.8,19.3,29.74,NNW,331,3.0,5.0,76,0.00,,,0.00,VWS V14.01,2013-03-03 12:07:00,
2013-03-03 07:08:00,25.8,19.6,29.74,NNW,346,0.0,5.0,77,0.00,,,0.00,VWS V14.01,2013-03-03 12:08:00,
2013-03-03 07:09:00,25.8,19.6,29.74,NNW,346,1.0,5.0,77,0.00,,,0.00,VWS V14.01,2013-03-03 12:09:00,
2013-03-03 07:10:00,25.8,19.3,29.74,North,5,1.0,5.0,76,0.00,,,0.00,VWS V14.01,2013-03-03 12:10:00,
2013-03-03 07:11:00,25.8,19.3,29.74,WNW,294,0.0,3.0,76,0.00,,,0.00,VWS V14.01,2013-03-03 12:11:00,
2013-03-03 07:12:00,25.8,19.3,29.74,WNW,294,0.0,3.0,76,0.00,,,0.00,VWS V14.01,2013-03-03 12:12:00,
2013-03-03 07:13:00,25.8,19.3,29.74,WNW,294,0.0,3.0,76,0.00,,,0.00,VWS V14.01,2013-03-03 12:13:00,
2013-03-03 07:14:00,25.8,19.3,29.74,NNE,30,4.0,5.0,76,0.00,,,0.00,VWS V14.01,2013-03-03 12:14:00,
2013-03-03 07:15:00,25.8,19.3,29.74,North,355,2.0,6.0,76,0.00,,,0.00,VWS V14.01,2013-03-03 12:15:00,
2013-03-03 07:16:00,25.8,19.3,29.74,North,5,0.0,6.0,76,0.00,,,0.00,VWS V14.01,2013-03-03 12:16:00,
2013-03-03 07:17:00,25.8,19.3,29.74,North,5,0.0,6.0,76,0.00,,,0.00,VWS V14.01,2013-03-03 12:17:00,
2013-03-03 07:18:00,25.8,19.3,29.74,North,5,0.0,6.0,76,0.00,,,0.00,VWS V14.01,2013-03-03 12:18:00,
2013-03-03 07:19:00,25.9,19.4,29.74,NW,312,0.0,6.0,76,0.00,,,0.00,VWS V14.01,2013-03-03 12:19:00,
2013-03-03 07:20:00,25.9,19.4,29.74,ENE,70,2.0,6.0,76,0.00,,,0.00,VWS V14.01,2013-03-03 12:20:00,
2013-03-03 07:21:00,25.9,19.4,29.74,WNW,295,4.0,6.0,76,0.00,,,0.00,VWS V14.01,2013-03-03 12:21:00,
2013-03-03 07:22:00,25.9,19.4,29.74,WNW,295,4.0,6.0,76,0.00,,,0.00,VWS V14.01,2013-03-03 12:22:00,
2013-03-03 07:23:00,25.9,19.4,29.74,North,360,3.0,6.0,76,0.00,,,0.00,VWS V14.01,2013-03-03 12:23:00,
2013-03-03 07:24:00,26.0,19.5,29.74,North,355,1.0,6.0,76,0.00,,,0.00,VWS V14.01,2013-03-03 12:24:00,
2013-03-03 07:25:00,26.0,19.5,29.74,NE,52,3.0,6.0,76,0.00,,,0.00,VWS V14.01,2013-03-03 12:25:00,
2013-03-03 07:26:00,26.0,19.5,29.74,NE,35,3.0,6.0,76,0.00,,,0.00,VWS V14.01,2013-03-03 12:26:00,
2013-03-03 07:27:00,26.0,19.5,29.74,NE,35,3.0,6.0,76,0.00,,,0.00,VWS V14.01,2013-03-03 12:27:00,
2013-03-03 07:28:00,26.0,19.8,29.74,WSW,242,1.0,6.0,77,0.00,,,0.00,VWS V14.01,2013-03-03 12:28:00,
2013-03-03 07:29:00,26.1,19.9,29.74,SE,141,2.0,6.0,77,0.00,,,0.00,VWS V14.01,2013-03-03 12:29:00,
2013-03-03 07:30:00,26.1,19.9,29.74,NW,319,1.0,9.0,77,0.00,,,0.00,VWS V14.01,2013-03-03 12:30:00,
2013-03-03 07:31:00,26.1,19.9,29.74,ESE,120,2.0,2.0,77,0.00,,,0.00,VWS V14.01,2013-03-03 12:31:00,
2013-03-03 07:32:00,26.1,19.9,29.74,ESE,120,2.0,2.0,77,0.00,,,0.00,VWS V14.01,2013-03-03 12:32:00,
2013-03-03 07:33:00,26.1,19.9,29.74,ESE,120,2.0,2.0,77,0.00,,,0.00,VWS V14.01,2013-03-03 12:33:00,
2013-03-03 07:34:00,26.1,19.6,29.74,ENE,63,1.0,2.0,76,0.00,,,0.00,VWS V14.01,2013-03-03 12:34:00,
2013-03-03 07:35:00,26.2,19.7,29.74,North,360,3.0,11.0,76,0.00,,,0.00,VWS V14.01,2013-03-03 12:35:00,
2013-03-03 07:36:00,26.2,19.7,29.74,NE,41,2.0,11.0,76,0.00,,,0.00,VWS V14.01,2013-03-03 12:36:00,
2013-03-03 07:37:00,26.2,19.7,29.74,NE,41,2.0,11.0,76,0.00,,,0.00,VWS V14.01,2013-03-03 12:37:00,
2013-03-03 07:38:00,26.2,19.7,29.74,NE,41,2.0,11.0,76,0.00,,,0.00,VWS V14.01,2013-03-03 12:38:00,
2013-03-03 07:39:00,26.2,19.7,29.74,NNW,338,4.0,11.0,76,0.00,,,0.00,VWS V14.01,2013-03-03 12:39:00,
2013-03-03 07:40:00,26.2,19.7,29.74,NNE,28,1.0,11.0,76,0.00,,,0.00,VWS V14.01,2013-03-03 12:40:00,
2013-03-03 07:41:00,26.2,19.7,29.74,NNE,28,1.0,11.0,76,0.00,,,0.00,VWS V14.01,2013-03-03 12:41:00,
2013-03-03 07:42:00,26.2,19.7,29.74,NNE,28,1.0,11.0,76,0.00,,,0.00,VWS V14.01,2013-03-03 12:42:00,
2013-03-03 07:43:00,26.3,19.8,29.74,NNW,337,2.0,4.0,76,0.00,,,0.00,VWS V14.01,2013-03-03 12:43:00,
2013-03-03 07:44:00,26.3,19.8,29.74,NE,42,2.0,4.0,76,0.00,,,0.00,VWS V14.01,2013-03-03 12:44:00,
2013-03-03 07:45:00,26.3,19.8,29.74,West,264,3.0,6.0,76,0.00,,,0.00,VWS V14.01,2013-03-03 12:45:00,
2013-03-03 07:46:00,26.3,19.8,29.74,West,264,3.0,6.0,76,0.00,,,0.00,VWS V14.01,2013-03-03 12:46:00,
2013-03-03 07:47:00,26.3,19.8,29.74,West,264,3.0,6.0,76,0.00,,,0.00,VWS V14.01,2013-03-03 12:47:00,
2013-03-03 07:48:00,26.4,19.6,29.74,NNW,342,6.0,6.0,75,0.00,,,0.00,VWS V14.01,2013-03-03 12:48:00,
2013-03-03 07:49:00,26.4,19.6,29.74,NNW,340,3.0,6.0,75,0.00,,,0.00,VWS V14.01,2013-03-03 12:49:00,
2013-03-03 07:50:00,26.5,19.7,29.74,North,360,2.0,6.0,75,0.00,,,0.00,VWS V14.01,2013-03-03 12:50:00,
2013-03-03 07:51:00,26.4,19.6,29.74,North,355,2.0,2.0,75,0.00,,,0.00,VWS V14.01,2013-03-03 12:51:00,
2013-03-03 07:52:00,26.4,19.6,29.74,North,355,2.0,2.0,75,0.00,,,0.00,VWS V14.01,2013-03-03 12:52:00,
2013-03-03 07:53:00,26.4,19.6,29.74,North,355,2.0,2.0,75,0.00,,,0.00,VWS V14.01,2013-03-03 12:53:00,
2013-03-03 07:54:00,26.5,19.7,29.74,ENE,71,7.0,7.0,75,0.00,,,0.00,VWS V14.01,2013-03-03 12:54:00,
2013-03-03 07:55:00,26.5,19.7,29.74,NE,34,4.0,11.0,75,0.00,,,0.00,VWS V14.01,2013-03-03 12:55:00,
2013-03-03 07:56:00,26.5,19.7,29.74,NE,38,5.0,11.0,75,0.00,,,0.00,VWS V14.01,2013-03-03 12:56:00,
2013-03-03 07:57:00,26.5,19.7,29.74,NE,38,5.0,11.0,75,0.00,,,0.00,VWS V14.01,2013-03-03 12:57:00,
2013-03-03 07:58:00,26.5,19.7,29.74,NE,38,5.0,11.0,75,0.00,,,0.00,VWS V14.01,2013-03-03 12:58:00,
2013-03-03 07:59:00,26.5,19.4,29.74,ESE,115,4.0,11.0,74,0.00,,,0.00,VWS V14.01,2013-03-03 12:59:00,
2013-03-03 08:00:00,26.5,19.4,29.74,NW,323,8.0,11.0,74,0.00,,,0.00,VWS V14.01,2013-03-03 13:00:00,
2013-03-03 08:01:00,26.5,19.4,29.74,ENE,61,8.0,8.0,74,0.00,,,0.00,VWS V14.01,2013-03-03 13:01:00,
2013-03-03 08:02:00,26.5,19.4,29.74,ENE,61,8.0,8.0,74,0.00,,,0.00,VWS V14.01,2013-03-03 13:02:00,
2013-03-03 08:03:00,26.5,19.4,29.74,ENE,61,8.0,8.0,74,0.00,,,0.00,VWS V14.01,2013-03-03 13:03:00,
2013-03-03 08:04:00,26.6,19.4,29.74,North,355,1.0,8.0,74,0.00,,,0.00,VWS V14.01,2013-03-03 13:04:00,
2013-03-03 08:05:00,26.6,19.4,29.74,North,5,4.0,8.0,74,0.00,,,0.00,VWS V14.01,2013-03-03 13:05:00,
2013-03-03 08:06:00,26.5,19.4,29.74,North,355,6.0,8.0,74,0.00,,,0.00,VWS V14.01,2013-03-03 13:06:00,
2013-03-03 08:07:00,26.5,19.4,29.74,North,355,6.0,8.0,74,0.00,,,0.00,VWS V14.01,2013-03-03 13:07:00,
2013-03-03 08:08:00,26.5,19.4,29.74,North,355,6.0,8.0,74,0.00,,,0.00,VWS V14.01,2013-03-03 13:08:00,
2013-03-03 08:09:00,26.5,19.4,29.74,North,350,1.0,8.0,74,0.00,,,0.00,VWS V14.01,2013-03-03 13:09:00,
2013-03-03 08:10:00,26.5,19.4,29.74,West,264,5.0,8.0,74,0.00,,,0.00,VWS V14.01,2013-03-03 13:10:00,
2013-03-03 08:11:00,26.5,19.4,29.74,North,360,3.0,3.0,74,0.00,,,0.00,VWS V14.01,2013-03-03 13:11:00,
2013-03-03 08:12:00,26.5,19.4,29.74,North,360,3.0,3.0,74,0.00,,,0.00,VWS V14.01,2013-03-03 13:12:00,
2013-03-03 08:13:00,26.5,19.4,29.74,North,360,3.0,3.0,74,0.00,,,0.00,VWS V14.01,2013-03-03 13:13:00,
2013-03-03 08:14:00,26.6,19.4,29.74,NE,56,3.0,3.0,74,0.00,,,0.00,VWS V14.01,2013-03-03 13:14:00,
2013-03-03 08:15:00,26.6,19.4,29.73,North,355,2.0,3.0,74,0.00,,,0.00,VWS V14.01,2013-03-03 13:15:00,
2013-03-03 08:16:00,26.6,19.4,29.73,SSW,213,0.0,4.0,74,0.00,,,0.00,VWS V14.01,2013-03-03 13:16:00,
2013-03-03 08:17:00,26.6,19.4,29.73,SSW,213,0.0,4.0,74,0.00,,,0.00,VWS V14.01,2013-03-03 13:17:00,
2013-03-03 08:18:00,26.6,19.4,29.73,SSW,213,0.0,4.0,74,0.00,,,0.00,VWS V14.01,2013-03-03 13:18:00,
2013-03-03 08:19:00,26.7,19.5,29.73,NNE,33,5.0,5.0,74,0.00,,,0.00,VWS V14.01,2013-03-03 13:19:00,
2013-03-03 08:20:00,26.7,19.5,29.73,NE,35,1.0,5.0,74,0.00,,,0.00,VWS V14.01,2013-03-03 13:20:00,
2013-03-03 08:21:00,26.7,19.5,29.73,NW,318,3.0,5.0,74,0.00,,,0.00,VWS V14.01,2013-03-03 13:21:00,
2013-03-03 08:22:00,26.7,19.5,29.73,NW,318,3.0,5.0,74,0.00,,,0.00,VWS V14.01,2013-03-03 13:22:00,
2013-03-03 08:23:00,26.7,19.5,29.73,NW,318,3.0,5.0,74,0.00,,,0.00,VWS V14.01,2013-03-03 13:23:00,
2013-03-03 08:24:00,26.8,19.6,29.73,NNE,19,5.0,6.0,74,0.00,,,0.00,VWS V14.01,2013-03-03 13:24:00,
2013-03-03 08:25:00,26.8,19.6,29.73,NNW,346,3.0,6.0,74,0.00,,,0.00,VWS V14.01,2013-03-03 13:25:00,
2013-03-03 08:26:00,26.8,19.6,29.73,East,84,2.0,6.0,74,0.00,,,0.00,VWS V14.01,2013-03-03 13:26:00,
2013-03-03 08:27:00,26.8,19.6,29.73,East,84,2.0,6.0,74,0.00,,,0.00,VWS V14.01,2013-03-03 13:27:00,
2013-03-03 08:28:00,26.8,19.6,29.73,East,84,2.0,6.0,74,0.00,,,0.00,VWS V14.01,2013-03-03 13:28:00,
2013-03-03 08:29:00,26.8,19.6,29.73,North,360,2.0,6.0,74,0.00,,,0.00,VWS V14.01,2013-03-03 13:29:00,
2013-03-03 08:30:00,26.8,19.6,29.74,WNW,298,2.0,6.0,74,0.00,,,0.00,VWS V14.01,2013-03-03 13:30:00,
2013-03-03 08:31:00,26.8,19.6,29.74,NW,316,0.0,2.0,74,0.00,,,0.00,VWS V14.01,2013-03-03 13:31:00,
2013-03-03 08:32:00,26.8,19.6,29.74,NW,316,0.0,2.0,74,0.00,,,0.00,VWS V14.01,2013-03-03 13:32:00,
2013-03-03 08:33:00,26.8,19.6,29.74,NW,316,0.0,2.0,74,0.00,,,0.00,VWS V14.01,2013-03-03 13:33:00,
2013-03-03 08:34:00,26.8,19.6,29.74,NE,53,0.0,4.0,74,0.00,,,0.00,VWS V14.01,2013-03-03 13:34:00,
2013-03-03 08:35:00,26.8,19.3,29.74,ENE,66,2.0,4.0,73,0.00,,,0.00,VWS V14.01,2013-03-03 13:35:00,
2013-03-03 08:36:00,26.9,19.4,29.74,ENE,74,0.0,4.0,73,0.00,,,0.00,VWS V14.01,2013-03-03 13:36:00,
2013-03-03 08:37:00,26.9,19.4,29.74,ENE,74,0.0,4.0,73,0.00,,,0.00,VWS V14.01,2013-03-03 13:37:00,
2013-03-03 08:38:00,26.9,19.4,29.74,ENE,74,0.0,4.0,73,0.00,,,0.00,VWS V14.01,2013-03-03 13:38:00,
2013-03-03 08:39:00,26.9,19.4,29.74,North,10,3.0,4.0,73,0.00,,,0.00,VWS V14.01,2013-03-03 13:39:00,
2013-03-03 08:40:00,26.9,19.4,29.74,NW,322,7.0,9.0,73,0.00,,,0.00,VWS V14.01,2013-03-03 13:40:00,
2013-03-03 08:41:00,26.9,19.4,29.74,NE,35,4.0,4.0,73,0.00,,,0.00,VWS V14.01,2013-03-03 13:41:00,
2013-03-03 08:42:00,26.9,19.4,29.74,NE,35,4.0,4.0,73,0.00,,,0.00,VWS V14.01,2013-03-03 13:42:00,
2013-03-03 08:43:00,26.8,19.3,29.74,North,5,2.0,4.0,73,0.00,,,0.00,VWS V14.01,2013-03-03 13:43:00,
2013-03-03 08:44:00,26.8,19.3,29.74,NNW,337,0.0,4.0,73,0.00,,,0.00,VWS V14.01,2013-03-03 13:44:00,
2013-03-03 08:45:00,26.9,19.4,29.73,NW,322,2.0,4.0,73,0.00,,,0.00,VWS V14.01,2013-03-03 13:45:00,
2013-03-03 08:46:00,26.9,19.4,29.73,NW,322,1.0,4.0,73,0.00,,,0.00,VWS V14.01,2013-03-03 13:46:00,
2013-03-03 08:47:00,26.9,19.4,29.73,NW,322,1.0,4.0,73,0.00,,,0.00,VWS V14.01,2013-03-03 13:47:00,
2013-03-03 08:48:00,26.9,19.4,29.73,NW,322,1.0,4.0,73,0.00,,,0.00,VWS V14.01,2013-03-03 13:48:00,
2013-03-03 08:49:00,26.9,19.4,29.73,NNE,14,0.0,4.0,73,0.00,,,0.00,VWS V14.01,2013-03-03 13:49:00,
2013-03-03 08:50:00,26.9,19.4,29.73,NNW,332,2.0,4.0,73,0.00,,,0.00,VWS V14.01,2013-03-03 13:50:00,
2013-03-03 08:51:00,27.0,19.5,29.73,ENE,69,7.0,7.0,73,0.00,,,0.00,VWS V14.01,2013-03-03 13:51:00,
2013-03-03 08:52:00,27.0,19.5,29.73,ENE,69,7.0,7.0,73,0.00,,,0.00,VWS V14.01,2013-03-03 13:52:00,
2013-03-03 08:53:00,27.0,19.5,29.73,ENE,69,7.0,7.0,73,0.00,,,0.00,VWS V14.01,2013-03-03 13:53:00,
2013-03-03 08:54:00,27.0,19.5,29.73,NNE,16,3.0,7.0,73,0.00,,,0.00,VWS V14.01,2013-03-03 13:54:00,
2013-03-03 08:55:00,27.0,19.5,29.73,North,5,3.0,7.0,73,0.00,,,0.00,VWS V14.01,2013-03-03 13:55:00,
2013-03-03 08:56:00,27.0,19.5,29.73,WSW,254,8.0,8.0,73,0.00,,,0.00,VWS V14.01,2013-03-03 13:56:00,
2013-03-03 08:57:00,27.0,19.5,29.73,WSW,254,8.0,8.0,73,0.00,,,0.00,VWS V14.01,2013-03-03 13:57:00,
2013-03-03 08:58:00,27.0,19.5,29.73,NE,36,7.0,8.0,73,0.00,,,0.00,VWS V14.01,2013-03-03 13:58:00,
2013-03-03 08:59:00,27.0,19.5,29.73,North,5,2.0,8.0,73,0.00,,,0.00,VWS V14.01,2013-03-03 13:59:00,
2013-03-03 09:00:00,27.0,19.5,29.74,NE,47,2.0,8.0,73,0.00,,,0.00,VWS V14.01,2013-03-03 14:00:00,
2013-03-03 09:01:00,27.0,19.5,29.74,NNE,23,2.0,4.0,73,0.00,,,0.00,VWS V14.01,2013-03-03 14:01:00,
2013-03-03 09:02:00,27.0,19.5,29.74,NNE,23,2.0,4.0,73,0.00,,,0.00,VWS V14.01,2013-03-03 14:02:00,
2013-03-03 09:03:00,27.0,19.5,29.74,NNE,23,2.0,4.0,73,0.00,,,0.00,VWS V14.01,2013-03-03 14:03:00,
2013-03-03 09:04:00,27.0,19.5,29.74,NW,316,4.0,4.0,73,0.00,,,0.00,VWS V14.01,2013-03-03 14:04:00,
2013-03-03 09:05:00,27.0,19.5,29.74,WNW,282,5.0,7.0,73,0.00,,,0.00,VWS V14.01,2013-03-03 14:05:00,
2013-03-03 09:06:00,27.1,19.6,29.74,WNW,294,5.0,7.0,73,0.00,,,0.00,VWS V14.01,2013-03-03 14:06:00,
2013-03-03 09:07:00,27.0,19.2,29.74,North,360,4.0,7.0,72,0.00,,,0.00,VWS V14.01,2013-03-03 14:07:00,
2013-03-03 09:08:00,27.0,19.2,29.74,NNW,346,4.0,7.0,72,0.00,,,0.00,VWS V14.01,2013-03-03 14:08:00,
2013-03-03 09:09:00,27.0,19.2,29.74,NE,51,1.0,7.0,72,0.00,,,0.00,VWS V14.01,2013-03-03 14:09:00,
2013-03-03 09:10:00,27.0,19.5,29.74,WNW,287,5.0,8.0,73,0.00,,,0.00,VWS V14.01,2013-03-03 14:10:00,
2013-03-03 09:11:00,27.0,19.2,29.74,North,355,4.0,8.0,72,0.00,,,0.00,VWS V14.01,2013-03-03 14:11:00,
2013-03-03 09:12:00,27.0,19.2,29.74,North,355,4.0,8.0,72,0.00,,,0.00,VWS V14.01,2013-03-03 14:12:00,
2013-03-03 09:13:00,27.0,19.2,29.74,North,355,4.0,8.0,72,0.00,,,0.00,VWS V14.01,2013-03-03 14:13:00,
2013-03-03 09:14:00,27.0,19.2,29.74,NNW,329,3.0,10.0,72,0.00,,,0.00,VWS V14.01,2013-03-03 14:14:00,
2013-03-03 09:15:00,27.0,19.2,29.73,ENE,60,2.0,10.0,72,0.00,,,0.00,VWS V14.01,2013-03-03 14:15:00,
2013-03-03 09:16:00,27.0,19.2,29.73,NE,53,0.0,10.0,72,0.00,,,0.00,VWS V14.01,2013-03-03 14:16:00,
2013-03-03 09:17:00,27.0,19.2,29.73,NE,53,0.0,10.0,72,0.00,,,0.00,VWS V14.01,2013-03-03 14:17:00,
2013-03-03 09:18:00,27.0,19.2,29.73,NE,53,0.0,10.0,72,0.00,,,0.00,VWS V14.01,2013-03-03 14:18:00,
2013-03-03 09:19:00,27.1,19.3,29.73,NNE,13,3.0,10.0,72,0.00,,,0.00,VWS V14.01,2013-03-03 14:19:00,
2013-03-03 09:20:00,27.1,19.3,29.73,NE,46,1.0,10.0,72,0.00,,,0.00,VWS V14.01,2013-03-03 14:20:00,
2013-03-03 09:21:00,27.1,19.3,29.73,NE,34,3.0,3.0,72,0.00,,,0.00,VWS V14.01,2013-03-03 14:21:00,
2013-03-03 09:22:00,27.1,19.3,29.73,NE,34,3.0,3.0,72,0.00,,,0.00,VWS V14.01,2013-03-03 14:22:00,
2013-03-03 09:23:00,27.2,19.7,29.73,ENE,61,3.0,9.0,73,0.00,,,0.00,VWS V14.01,2013-03-03 14:23:00,
2013-03-03 09:24:00,27.2,19.4,29.73,North,5,9.0,9.0,72,0.00,,,0.00,VWS V14.01,2013-03-03 14:24:00,
2013-03-03 09:25:00,27.2,19.4,29.73,ENE,73,3.0,9.0,72,0.00,,,0.00,VWS V14.01,2013-03-03 14:25:00,
2013-03-03 09:26:00,27.2,19.4,29.73,North,360,8.0,9.0,72,0.00,,,0.00,VWS V14.01,2013-03-03 14:26:00,
2013-03-03 09:27:00,27.2,19.4,29.73,North,360,8.0,9.0,72,0.00,,,0.00,VWS V14.01,2013-03-03 14:27:00,
2013-03-03 09:28:00,27.2,19.4,29.73,North,360,8.0,9.0,72,0.00,,,0.00,VWS V14.01,2013-03-03 14:28:00,
2013-03-03 09:29:00,27.2,19.1,29.73,NNE,26,2.0,9.0,71,0.00,,,0.00,VWS V14.01,2013-03-03 14:29:00,
2013-03-03 09:30:00,27.2,19.1,29.73,NE,44,4.0,9.0,71,0.00,,,0.00,VWS V14.01,2013-03-03 14:30:00,
2013-03-03 09:31:00,27.1,19.0,29.73,NE,46,3.0,3.0,71,0.00,,,0.00,VWS V14.01,2013-03-03 14:31:00,
2013-03-03 09:32:00,27.1,19.0,29.73,NE,46,3.0,3.0,71,0.00,,,0.00,VWS V14.01,2013-03-03 14:32:00,
2013-03-03 09:33:00,27.1,19.0,29.73,NNW,347,2.0,3.0,71,0.00,,,0.00,VWS V14.01,2013-03-03 14:33:00,
2013-03-03 09:34:00,27.2,19.1,29.73,NNW,329,2.0,3.0,71,0.00,,,0.00,VWS V14.01,2013-03-03 14:34:00,
2013-03-03 09:35:00,27.2,19.1,29.73,NNW,331,2.0,5.0,71,0.00,,,0.00,VWS V14.01,2013-03-03 14:35:00,
2013-03-03 09:36:00,27.2,19.1,29.73,NNW,333,0.0,5.0,71,0.00,,,0.00,VWS V14.01,2013-03-03 14:36:00,
2013-03-03 09:37:00,27.2,19.1,29.73,NNW,333,0.0,5.0,71,0.00,,,0.00,VWS V14.01,2013-03-03 14:37:00,
2013-03-03 09:38:00,27.3,19.5,29.73,ENE,61,3.0,5.0,72,0.00,,,0.00,VWS V14.01,2013-03-03 14:38:00,
2013-03-03 09:39:00,27.4,19.2,29.73,NNW,338,4.0,5.0,71,0.00,,,0.00,VWS V14.01,2013-03-03 14:39:00,
2013-03-03 09:40:00,27.4,19.2,29.73,NE,36,2.0,5.0,71,0.00,,,0.00,VWS V14.01,2013-03-03 14:40:00,
2013-03-03 09:41:00,27.4,19.2,29.73,NNE,30,9.0,9.0,71,0.00,,,0.00,VWS V14.01,2013-03-03 14:41:00,
2013-03-03 09:42:00,27.4,19.2,29.73,NNE,30,9.0,9.0,71,0.00,,,0.00,VWS V14.01,2013-03-03 14:42:00,
2013-03-03 09:43:00,27.5,19.4,29.73,NNE,30,2.0,9.0,71,0.00,,,0.00,VWS V14.01,2013-03-03 14:43:00,
2013-03-03 09:44:00,27.5,19.4,29.73,SE,133,1.0,9.0,71,0.00,,,0.00,VWS V14.01,2013-03-03 14:44:00,
2013-03-03 09:45:00,27.6,19.4,29.73,NNE,22,5.0,10.0,71,0.00,,,0.00,VWS V14.01,2013-03-03 14:45:00,
2013-03-03 09:46:00,27.6,19.4,29.73,NNE,32,8.0,10.0,71,0.00,,,0.00,VWS V14.01,2013-03-03 14:46:00,
2013-03-03 09:47:00,27.6,19.4,29.73,NNE,32,8.0,10.0,71,0.00,,,0.00,VWS V14.01,2013-03-03 14:47:00,
2013-03-03 09:48:00,27.6,19.4,29.73,NNE,32,8.0,10.0,71,0.00,,,0.00,VWS V14.01,2013-03-03 14:48:00,
2013-03-03 09:49:00,27.7,19.2,29.73,North,360,8.0,10.0,70,0.00,,,0.00,VWS V14.01,2013-03-03 14:49:00,
2013-03-03 09:50:00,27.7,19.2,29.73,North,355,3.0,10.0,70,0.00,,,0.00,VWS V14.01,2013-03-03 14:50:00,
2013-03-03 09:51:00,27.8,19.3,29.73,WSW,246,6.0,6.0,70,0.00,,,0.00,VWS V14.01,2013-03-03 14:51:00,
2013-03-03 09:52:00,27.8,19.3,29.73,WSW,246,6.0,6.0,70,0.00,,,0.00,VWS V14.01,2013-03-03 14:52:00,
2013-03-03 09:53:00,27.8,19.3,29.73,WSW,246,6.0,6.0,70,0.00,,,0.00,VWS V14.01,2013-03-03 14:53:00,
2013-03-03 09:54:00,27.8,19.3,29.73,WNW,297,6.0,10.0,70,0.00,,,0.00,VWS V14.01,2013-03-03 14:54:00,
2013-03-03 09:55:00,27.8,19.3,29.73,ENE,65,7.0,14.0,70,0.00,,,0.00,VWS V14.01,2013-03-03 14:55:00,
2013-03-03 09:56:00,27.8,19.3,29.73,North,10,0.0,14.0,70,0.00,,,0.00,VWS V14.01,2013-03-03 14:56:00,
2013-03-03 09:57:00,27.8,19.3,29.73,North,10,0.0,14.0,70,0.00,,,0.00,VWS V14.01,2013-03-03 14:57:00,
2013-03-03 09:58:00,27.8,19.3,29.73,North,10,0.0,14.0,70,0.00,,,0.00,VWS V14.01,2013-03-03 14:58:00,
2013-03-03 09:59:00,27.8,19.3,29.73,North,355,3.0,14.0,70,0.00,,,0.00,VWS V14.01,2013-03-03 14:59:00,
2013-03-03 10:00:00,27.8,19.0,29.73,WNW,296,3.0,14.0,69,0.00,,,0.00,VWS V14.01,2013-03-03 15:00:00,
2013-03-03 10:01:00,27.8,19.0,29.73,NNE,25,4.0,6.0,69,0.00,,,0.00,VWS V14.01,2013-03-03 15:01:00,
2013-03-03 10:02:00,27.8,19.0,29.73,NNE,25,4.0,6.0,69,0.00,,,0.00,VWS V14.01,2013-03-03 15:02:00,
2013-03-03 10:03:00,27.8,19.0,29.73,NNE,25,4.0,6.0,69,0.00,,,0.00,VWS V14.01,2013-03-03 15:03:00,
2013-03-03 10:04:00,27.8,19.0,29.73,East,98,5.0,6.0,69,0.00,,,0.00,VWS V14.01,2013-03-03 15:04:00,
2013-03-03 10:05:00,27.8,19.0,29.73,North,355,6.0,10.0,69,0.00,,,0.00,VWS V14.01,2013-03-03 15:05:00,
2013-03-03 10:06:00,27.8,19.0,29.73,NE,41,1.0,10.0,69,0.00,,,0.00,VWS V14.01,2013-03-03 15:06:00,
2013-03-03 10:07:00,27.8,19.0,29.73,NE,41,1.0,10.0,69,0.00,,,0.00,VWS V14.01,2013-03-03 15:07:00,
2013-03-03 10:08:00,27.8,19.0,29.73,NE,41,1.0,10.0,69,0.00,,,0.00,VWS V14.01,2013-03-03 15:08:00,
2013-03-03 10:09:00,27.8,19.0,29.73,WNW,298,2.0,10.0,69,0.00,,,0.00,VWS V14.01,2013-03-03 15:09:00,
2013-03-03 10:10:00,27.8,19.0,29.73,WNW,296,5.0,10.0,69,0.00,,,0.00,VWS V14.01,2013-03-03 15:10:00,
2013-03-03 10:11:00,27.8,19.0,29.73,WNW,295,5.0,8.0,69,0.00,,,0.00,VWS V14.01,2013-03-03 15:11:00,
2013-03-03 10:12:00,27.8,19.0,29.73,WNW,295,5.0,8.0,69,0.00,,,0.00,VWS V14.01,2013-03-03 15:12:00,
2013-03-03 10:13:00,27.8,19.0,29.73,WNW,295,5.0,8.0,69,0.00,,,0.00,VWS V14.01,2013-03-03 15:13:00,
2013-03-03 10:14:00,27.8,19.0,29.73,NE,41,2.0,8.0,69,0.00,,,0.00,VWS V14.01,2013-03-03 15:14:00,
2013-03-03 10:15:00,27.8,19.0,29.73,NNW,330,3.0,8.0,69,0.00,,,0.00,VWS V14.01,2013-03-03 15:15:00,
2013-03-03 10:16:00,27.8,19.0,29.73,WSW,253,5.0,8.0,69,0.00,,,0.00,VWS V14.01,2013-03-03 15:16:00,
2013-03-03 10:17:00,27.8,19.0,29.73,WSW,253,5.0,8.0,69,0.00,,,0.00,VWS V14.01,2013-03-03 15:17:00,
2013-03-03 10:18:00,27.8,19.0,29.73,WSW,253,5.0,8.0,69,0.00,,,0.00,VWS V14.01,2013-03-03 15:18:00,
2013-03-03 10:19:00,27.9,19.1,29.73,NNE,30,5.0,8.0,69,0.00,,,0.00,VWS V14.01,2013-03-03 15:19:00,
2013-03-03 10:20:00,27.9,19.1,29.73,NNE,15,0.0,8.0,69,0.00,,,0.00,VWS V14.01,2013-03-03 15:20:00,
2013-03-03 10:21:00,28.0,19.2,29.73,SW,230,5.0,5.0,69,0.00,,,0.00,VWS V14.01,2013-03-03 15:21:00,
2013-03-03 10:22:00,28.0,19.2,29.73,SW,230,5.0,5.0,69,0.00,,,0.00,VWS V14.01,2013-03-03 15:22:00,
2013-03-03 10:23:00,28.1,19.3,29.73,West,274,1.0,5.0,69,0.00,,,0.00,VWS V14.01,2013-03-03 15:23:00,
2013-03-03 10:24:00,28.1,19.3,29.73,NNE,30,4.0,7.0,69,0.00,,,0.00,VWS V14.01,2013-03-03 15:24:00,
2013-03-03 10:25:00,28.2,19.4,29.73,NNW,340,4.0,9.0,69,0.00,,,0.00,VWS V14.01,2013-03-03 15:25:00,
2013-03-03 10:26:00,28.2,19.4,29.73,NW,323,2.0,9.0,69,0.00,,,0.00,VWS V14.01,2013-03-03 15:26:00,
2013-03-03 10:27:00,28.2,19.4,29.73,NW,323,2.0,9.0,69,0.00,,,0.00,VWS V14.01,2013-03-03 15:27:00,
2013-03-03 10:28:00,28.3,19.1,29.73,WNW,302,0.0,9.0,68,0.00,,,0.00,VWS V14.01,2013-03-03 15:28:00,
2013-03-03 10:29:00,28.3,19.5,29.73,NW,319,4.0,9.0,69,0.00,,,0.00,VWS V14.01,2013-03-03 15:29:00,
2013-03-03 10:30:00,28.3,19.5,29.73,ESE,103,2.0,9.0,69,0.00,,,0.00,VWS V14.01,2013-03-03 15:30:00,
2013-03-03 10:31:00,28.3,19.5,29.73,ESE,102,3.0,9.0,69,0.00,,,0.00,VWS V14.01,2013-03-03 15:31:00,
2013-03-03 10:32:00,28.3,19.5,29.73,ESE,102,3.0,9.0,69,0.00,,,0.00,VWS V14.01,2013-03-03 15:32:00,
2013-03-03 10:33:00,28.4,19.2,29.73,North,5,7.0,9.0,68,0.00,,,0.00,VWS V14.01,2013-03-03 15:33:00,
2013-03-03 10:34:00,28.4,19.2,29.73,North,11,1.0,9.0,68,0.00,,,0.00,VWS V14.01,2013-03-03 15:34:00,
2013-03-03 10:35:00,28.4,19.5,29.73,NE,51,2.0,9.0,69,0.00,,,0.00,VWS V14.01,2013-03-03 15:35:00,
2013-03-03 10:36:00,28.4,19.2,29.73,NE,43,2.0,9.0,68,0.00,,,0.00,VWS V14.01,2013-03-03 15:36:00,
2013-03-03 10:37:00,28.4,19.2,29.73,NE,43,2.0,9.0,68,0.00,,,0.00,VWS V14.01,2013-03-03 15:37:00,
2013-03-03 10:38:00,28.4,19.2,29.73,NE,43,2.0,9.0,68,0.00,,,0.00,VWS V14.01,2013-03-03 15:38:00,
2013-03-03 10:39:00,28.6,19.7,29.73,NNE,32,4.0,9.0,69,0.00,,,0.00,VWS V14.01,2013-03-03 15:39:00,
2013-03-03 10:40:00,28.6,19.7,29.73,WNW,283,4.0,9.0,69,0.00,,,0.00,VWS V14.01,2013-03-03 15:40:00,
2013-03-03 10:41:00,28.6,19.4,29.73,WNW,289,1.0,2.0,68,0.00,,,0.00,VWS V14.01,2013-03-03 15:41:00,
2013-03-03 10:42:00,28.6,19.4,29.73,WNW,289,1.0,2.0,68,0.00,,,0.00,VWS V14.01,2013-03-03 15:42:00,
2013-03-03 10:43:00,28.6,19.4,29.73,WNW,289,1.0,2.0,68,0.00,,,0.00,VWS V14.01,2013-03-03 15:43:00,
2013-03-03 10:44:00,28.7,19.5,29.73,ENE,63,2.0,2.0,68,0.00,,,0.00,VWS V14.01,2013-03-03 15:44:00,
2013-03-03 10:45:00,28.7,19.8,29.74,NNW,336,11.0,11.0,69,0.00,,,0.00,VWS V14.01,2013-03-03 15:45:00,
2013-03-03 10:46:00,28.7,19.5,29.74,WNW,297,4.0,11.0,68,0.00,,,0.00,VWS V14.01,2013-03-03 15:46:00,
2013-03-03 10:47:00,28.7,19.5,29.74,WNW,297,4.0,11.0,68,0.00,,,0.00,VWS V14.01,2013-03-03 15:47:00,
2013-03-03 10:48:00,28.7,19.5,29.74,WNW,297,4.0,11.0,68,0.00,,,0.00,VWS V14.01,2013-03-03 15:48:00,
2013-03-03 10:49:00,28.8,19.6,29.74,NE,40,4.0,11.0,68,0.00,,,0.00,VWS V14.01,2013-03-03 15:49:00,
2013-03-03 10:50:00,28.8,19.6,29.74,NNW,343,2.0,11.0,68,0.00,,,0.00,VWS V14.01,2013-03-03 15:50:00,
2013-03-03 10:51:00,28.8,19.6,29.74,NNW,346,1.0,2.0,68,0.00,,,0.00,VWS V14.01,2013-03-03 15:51:00,
2013-03-03 10:52:00,28.8,19.6,29.74,NNW,346,1.0,2.0,68,0.00,,,0.00,VWS V14.01,2013-03-03 15:52:00,
2013-03-03 10:53:00,28.8,19.6,29.74,NNW,346,1.0,2.0,68,0.00,,,0.00,VWS V14.01,2013-03-03 15:53:00,
2013-03-03 10:54:00,28.8,19.6,29.74,NW,311,1.0,4.0,68,0.00,,,0.00,VWS V14.01,2013-03-03 15:54:00,
2013-03-03 10:55:00,28.9,19.7,29.74,North,355,1.0,4.0,68,0.00,,,0.00,VWS V14.01,2013-03-03 15:55:00,
2013-03-03 10:56:00,28.9,19.7,29.74,North,355,1.0,4.0,68,0.00,,,0.00,VWS V14.01,2013-03-03 15:56:00,
2013-03-03 10:57:00,28.9,19.7,29.74,North,355,1.0,4.0,68,0.00,,,0.00,VWS V14.01,2013-03-03 15:57:00,
2013-03-03 10:58:00,29.0,19.8,29.74,NE,34,8.0,10.0,68,0.00,,,0.00,VWS V14.01,2013-03-03 15:58:00,
2013-03-03 10:59:00,29.0,19.8,29.74,NE,34,8.0,10.0,68,0.00,,,0.00,VWS V14.01,2013-03-03 15:59:00,
2013-03-03 11:00:00,29.0,19.8,29.73,North,355,10.0,10.0,68,0.00,,,0.00,VWS V14.01,2013-03-03 16:00:00,
2013-03-03 11:01:00,29.0,19.8,29.73,North,9,5.0,10.0,68,0.00,,,0.00,VWS V14.01,2013-03-03 16:01:00,
2013-03-03 11:02:00,29.0,19.8,29.73,North,9,5.0,10.0,68,0.00,,,0.00,VWS V14.01,2013-03-03 16:02:00,
2013-03-03 11:03:00,29.0,19.8,29.73,North,9,5.0,10.0,68,0.00,,,0.00,VWS V14.01,2013-03-03 16:03:00,
2013-03-03 11:04:00,29.0,19.8,29.73,NNE,32,6.0,8.0,68,0.00,,,0.00,VWS V14.01,2013-03-03 16:04:00,
2013-03-03 11:05:00,29.0,19.8,29.73,NNE,33,4.0,10.0,68,0.00,,,0.00,VWS V14.01,2013-03-03 16:05:00,
2013-03-03 11:06:00,29.0,19.8,29.73,North,5,6.0,10.0,68,0.00,,,0.00,VWS V14.01,2013-03-03 16:06:00,
2013-03-03 11:07:00,29.0,19.8,29.73,North,5,6.0,10.0,68,0.00,,,0.00,VWS V14.01,2013-03-03 16:07:00,
2013-03-03 11:08:00,29.0,19.8,29.73,North,5,6.0,10.0,68,0.00,,,0.00,VWS V14.01,2013-03-03 16:08:00,
2013-03-03 11:09:00,29.2,20.0,29.73,West,269,4.0,10.0,68,0.00,,,0.00,VWS V14.01,2013-03-03 16:09:00,
2013-03-03 11:10:00,29.2,20.0,29.73,NNE,17,3.0,10.0,68,0.00,,,0.00,VWS V14.01,2013-03-03 16:10:00,
2013-03-03 11:11:00,29.2,20.0,29.73,NNE,17,3.0,10.0,68,0.00,,,0.00,VWS V14.01,2013-03-03 16:11:00,
2013-03-03 11:12:00,29.2,20.0,29.73,NNE,17,3.0,10.0,68,0.00,,,0.00,VWS V14.01,2013-03-03 16:12:00,
2013-03-03 11:13:00,29.3,20.1,29.73,North,360,3.0,5.0,68,0.00,,,0.00,VWS V14.01,2013-03-03 16:13:00,
2013-03-03 11:14:00,29.3,20.1,29.73,NNE,28,1.0,5.0,68,0.00,,,0.00,VWS V14.01,2013-03-03 16:14:00,
2013-03-03 11:15:00,29.4,20.2,29.73,NNE,15,2.0,5.0,68,0.00,,,0.00,VWS V14.01,2013-03-03 16:15:00,
2013-03-03 11:16:00,29.4,20.2,29.73,North,5,3.0,5.0,68,0.00,,,0.00,VWS V14.01,2013-03-03 16:16:00,
2013-03-03 11:17:00,29.4,20.2,29.73,North,5,3.0,5.0,68,0.00,,,0.00,VWS V14.01,2013-03-03 16:17:00,
2013-03-03 11:18:00,29.5,20.3,29.73,NW,313,1.0,5.0,68,0.00,,,0.00,VWS V14.01,2013-03-03 16:18:00,
2013-03-03 11:19:00,29.5,19.9,29.73,ENE,61,1.0,10.0,67,0.00,,,0.00,VWS V14.01,2013-03-03 16:19:00,
2013-03-03 11:20:00,29.6,20.0,29.73,NNW,348,3.0,10.0,67,0.00,,,0.00,VWS V14.01,2013-03-03 16:20:00,
2013-03-03 11:21:00,29.6,20.0,29.73,NNE,17,0.0,1.0,67,0.00,,,0.00,VWS V14.01,2013-03-03 16:21:00,
2013-03-03 11:22:00,29.6,20.0,29.73,NNE,17,0.0,1.0,67,0.00,,,0.00,VWS V14.01,2013-03-03 16:22:00,
2013-03-03 11:23:00,29.6,20.0,29.73,North,5,4.0,4.0,67,0.00,,,0.00,VWS V14.01,2013-03-03 16:23:00,
2013-03-03 11:24:00,29.6,20.0,29.73,North,360,6.0,11.0,67,0.00,,,0.00,VWS V14.01,2013-03-03 16:24:00,
2013-03-03 11:25:00,29.5,19.9,29.73,North,360,1.0,11.0,67,0.00,,,0.00,VWS V14.01,2013-03-03 16:25:00,
2013-03-03 11:26:00,29.5,19.9,29.73,ENE,65,3.0,11.0,67,0.00,,,0.00,VWS V14.01,2013-03-03 16:26:00,
2013-03-03 11:27:00,29.5,19.9,29.73,ENE,65,3.0,11.0,67,0.00,,,0.00,VWS V14.01,2013-03-03 16:27:00,
2013-03-03 11:28:00,29.6,20.0,29.73,NNW,342,1.0,11.0,67,0.00,,,0.00,VWS V14.01,2013-03-03 16:28:00,
2013-03-03 11:29:00,29.6,20.0,29.73,ENE,65,1.0,11.0,67,0.00,,,0.00,VWS V14.01,2013-03-03 16:29:00,
2013-03-03 11:30:00,29.5,19.9,29.73,East,82,2.0,11.0,67,0.00,,,0.00,VWS V14.01,2013-03-03 16:30:00,
2013-03-03 11:31:00,29.6,20.0,29.73,NW,306,2.0,3.0,67,0.00,,,0.00,VWS V14.01,2013-03-03 16:31:00,
2013-03-03 11:32:00,29.6,20.0,29.73,NW,306,2.0,3.0,67,0.00,,,0.00,VWS V14.01,2013-03-03 16:32:00,
2013-03-03 11:33:00,29.6,20.0,29.73,NW,306,2.0,3.0,67,0.00,,,0.00,VWS V14.01,2013-03-03 16:33:00,
2013-03-03 11:34:00,29.7,20.1,29.73,NW,309,5.0,8.0,67,0.00,,,0.00,VWS V14.01,2013-03-03 16:34:00,
2013-03-03 11:35:00,29.7,20.1,29.73,WNW,300,3.0,8.0,67,0.00,,,0.00,VWS V14.01,2013-03-03 16:35:00,
2013-03-03 11:36:00,29.7,20.1,29.73,West,267,3.0,8.0,67,0.00,,,0.00,VWS V14.01,2013-03-03 16:36:00,
2013-03-03 11:37:00,29.7,20.1,29.73,West,267,3.0,8.0,67,0.00,,,0.00,VWS V14.01,2013-03-03 16:37:00,
2013-03-03 11:38:00,29.7,20.1,29.73,West,267,3.0,8.0,67,0.00,,,0.00,VWS V14.01,2013-03-03 16:38:00,
2013-03-03 11:39:00,29.8,20.2,29.73,WNW,302,3.0,8.0,67,0.00,,,0.00,VWS V14.01,2013-03-03 16:39:00,
2013-03-03 11:40:00,29.8,20.2,29.73,North,349,6.0,8.0,67,0.00,,,0.00,VWS V14.01,2013-03-03 16:40:00,
2013-03-03 11:41:00,29.8,20.2,29.73,North,5,5.0,5.0,67,0.00,,,0.00,VWS V14.01,2013-03-03 16:41:00,
2013-03-03 11:42:00,29.8,20.2,29.73,North,5,5.0,5.0,67,0.00,,,0.00,VWS V14.01,2013-03-03 16:42:00,
2013-03-03 11:43:00,29.8,20.2,29.73,North,5,5.0,5.0,67,0.00,,,0.00,VWS V14.01,2013-03-03 16:43:00,
2013-03-03 11:44:00,30.0,20.4,29.73,NNE,25,1.0,5.0,67,0.00,,,0.00,VWS V14.01,2013-03-03 16:44:00,
2013-03-03 11:45:00,29.9,19.9,29.73,NNE,21,0.0,5.0,66,0.00,,,0.00,VWS V14.01,2013-03-03 16:45:00,
2013-03-03 11:46:00,30.0,20.0,29.73,NNE,13,1.0,5.0,66,0.00,,,0.00,VWS V14.01,2013-03-03 16:46:00,
2013-03-03 11:47:00,30.0,20.0,29.73,NNE,13,1.0,5.0,66,0.00,,,0.00,VWS V14.01,2013-03-03 16:47:00,
2013-03-03 11:48:00,30.0,20.0,29.73,NNE,13,1.0,5.0,66,0.00,,,0.00,VWS V14.01,2013-03-03 16:48:00,
2013-03-03 11:49:00,30.1,20.1,29.73,WNW,302,1.0,5.0,66,0.00,,,0.00,VWS V14.01,2013-03-03 16:49:00,
2013-03-03 11:50:00,30.2,20.2,29.73,ENE,59,1.0,5.0,66,0.00,,,0.00,VWS V14.01,2013-03-03 16:50:00,
2013-03-03 11:51:00,30.2,20.6,29.73,ENE,57,2.0,2.0,67,0.00,,,0.00,VWS V14.01,2013-03-03 16:51:00,
2013-03-03 11:52:00,30.2,20.6,29.73,ENE,57,2.0,2.0,67,0.00,,,0.00,VWS V14.01,2013-03-03 16:52:00,
2013-03-03 11:53:00,30.2,20.6,29.73,ENE,57,2.0,2.0,67,0.00,,,0.00,VWS V14.01,2013-03-03 16:53:00,
2013-03-03 11:54:00,30.3,20.3,29.73,NNE,28,4.0,4.0,66,0.00,,,0.00,VWS V14.01,2013-03-03 16:54:00,
2013-03-03 11:55:00,30.3,20.7,29.73,NNW,333,1.0,7.0,67,0.00,,,0.00,VWS V14.01,2013-03-03 16:55:00,
2013-03-03 11:56:00,30.3,20.7,29.73,East,88,3.0,7.0,67,0.00,,,0.00,VWS V14.01,2013-03-03 16:56:00,
2013-03-03 11:57:00,30.3,20.7,29.73,East,88,3.0,7.0,67,0.00,,,0.00,VWS V14.01,2013-03-03 16:57:00,
2013-03-03 11:58:00,30.3,20.7,29.73,East,88,3.0,7.0,67,0.00,,,0.00,VWS V14.01,2013-03-03 16:58:00,
2013-03-03 11:59:00,30.5,20.9,29.73,NNW,329,6.0,7.0,67,0.00,,,0.00,VWS V14.01,2013-03-03 16:59:00,
2013-03-03 12:00:00,30.5,20.9,29.72,North,5,0.0,9.0,67,0.00,,,0.00,VWS V14.01,2013-03-03 17:00:00,
2013-03-03 12:01:00,30.5,20.9,29.72,North,5,0.0,9.0,67,0.00,,,0.00,VWS V14.01,2013-03-03 17:01:00,
2013-03-03 12:02:00,30.5,20.9,29.72,North,5,0.0,9.0,67,0.00,,,0.00,VWS V14.01,2013-03-03 17:02:00,
2013-03-03 12:03:00,30.5,20.9,29.72,North,5,0.0,9.0,67,0.00,,,0.00,VWS V14.01,2013-03-03 17:03:00,
2013-03-03 12:04:00,30.6,20.2,29.72,NNW,345,0.0,0.0,65,0.00,,,0.00,VWS V14.01,2013-03-03 17:04:00,
2013-03-03 12:05:00,30.6,20.6,29.72,NNE,17,4.0,4.0,66,0.00,,,0.00,VWS V14.01,2013-03-03 17:05:00,
2013-03-03 12:06:00,30.6,20.6,29.72,WSW,242,8.0,8.0,66,0.00,,,0.00,VWS V14.01,2013-03-03 17:06:00,
2013-03-03 12:07:00,30.6,20.6,29.72,WSW,242,8.0,8.0,66,0.00,,,0.00,VWS V14.01,2013-03-03 17:07:00,
2013-03-03 12:08:00,30.6,20.6,29.72,WSW,242,8.0,8.0,66,0.00,,,0.00,VWS V14.01,2013-03-03 17:08:00,
2013-03-03 12:09:00,30.6,20.2,29.72,WNW,283,6.0,8.0,65,0.00,,,0.00,VWS V14.01,2013-03-03 17:09:00,
2013-03-03 12:10:00,30.6,20.2,29.72,North,360,0.0,8.0,65,0.00,,,0.00,VWS V14.01,2013-03-03 17:10:00,
2013-03-03 12:11:00,30.6,20.2,29.72,South,184,2.0,2.0,65,0.00,,,0.00,VWS V14.01,2013-03-03 17:11:00,
2013-03-03 12:12:00,30.6,20.2,29.72,South,184,2.0,2.0,65,0.00,,,0.00,VWS V14.01,2013-03-03 17:12:00,
2013-03-03 12:13:00,30.6,20.2,29.72,South,184,2.0,2.0,65,0.00,,,0.00,VWS V14.01,2013-03-03 17:13:00,
2013-03-03 12:14:00,30.7,20.3,29.72,North,9,1.0,3.0,65,0.00,,,0.00,VWS V14.01,2013-03-03 17:14:00,
2013-03-03 12:15:00,30.7,20.3,29.71,South,174,3.0,4.0,65,0.00,,,0.00,VWS V14.01,2013-03-03 17:15:00,
2013-03-03 12:16:00,30.7,20.3,29.71,North,349,6.0,6.0,65,0.00,,,0.00,VWS V14.01,2013-03-03 17:16:00,
2013-03-03 12:17:00,30.7,20.3,29.71,North,349,6.0,6.0,65,0.00,,,0.00,VWS V14.01,2013-03-03 17:17:00,
2013-03-03 12:18:00,30.7,20.3,29.71,North,349,6.0,6.0,65,0.00,,,0.00,VWS V14.01,2013-03-03 17:18:00,
2013-03-03 12:19:00,31.0,20.6,29.71,West,272,3.0,6.0,65,0.00,,,0.00,VWS V14.01,2013-03-03 17:19:00,
2013-03-03 12:20:00,31.0,20.6,29.71,NNE,17,2.0,8.0,65,0.00,,,0.00,VWS V14.01,2013-03-03 17:20:00,
2013-03-03 12:21:00,31.1,20.7,29.71,West,277,3.0,4.0,65,0.00,,,0.00,VWS V14.01,2013-03-03 17:21:00,
2013-03-03 12:22:00,31.1,20.7,29.71,West,277,3.0,4.0,65,0.00,,,0.00,VWS V14.01,2013-03-03 17:22:00,
2013-03-03 12:23:00,31.1,20.7,29.71,West,277,3.0,4.0,65,0.00,,,0.00,VWS V14.01,2013-03-03 17:23:00,
2013-03-03 12:24:00,31.2,20.8,29.71,ESE,113,4.0,4.0,65,0.00,,,0.00,VWS V14.01,2013-03-03 17:24:00,
2013-03-03 12:25:00,31.3,20.5,29.71,North,355,2.0,4.0,64,0.00,,,0.00,VWS V14.01,2013-03-03 17:25:00,
2013-03-03 12:26:00,31.3,20.5,29.71,ENE,62,3.0,4.0,64,0.00,,,0.00,VWS V14.01,2013-03-03 17:26:00,
2013-03-03 12:27:00,31.3,20.5,29.71,ENE,62,3.0,4.0,64,0.00,,,0.00,VWS V14.01,2013-03-03 17:27:00,
2013-03-03 12:28:00,31.3,20.5,29.71,ENE,62,3.0,4.0,64,0.00,,,0.00,VWS V14.01,2013-03-03 17:28:00,
2013-03-03 12:29:00,31.4,20.6,29.71,West,264,7.0,7.0,64,0.00,,,0.00,VWS V14.01,2013-03-03 17:29:00,
2013-03-03 12:30:00,31.4,20.6,29.71,NE,43,2.0,8.0,64,0.00,,,0.00,VWS V14.01,2013-03-03 17:30:00,
2013-03-03 12:31:00,31.5,20.7,29.71,North,9,9.0,9.0,64,0.00,,,0.00,VWS V14.01,2013-03-03 17:31:00,
2013-03-03 12:32:00,31.5,20.7,29.71,North,9,9.0,9.0,64,0.00,,,0.00,VWS V14.01,2013-03-03 17:32:00,
2013-03-03 12:33:00,31.5,20.7,29.71,ENE,67,4.0,9.0,64,0.00,,,0.00,VWS V14.01,2013-03-03 17:33:00,
2013-03-03 12:34:00,31.5,20.7,29.71,NNW,347,5.0,9.0,64,0.00,,,0.00,VWS V14.01,2013-03-03 17:34:00,
2013-03-03 12:35:00,31.6,20.8,29.71,East,81,8.0,9.0,64,0.00,,,0.00,VWS V14.01,2013-03-03 17:35:00,
2013-03-03 12:36:00,31.5,20.4,29.71,NE,42,3.0,9.0,63,0.00,,,0.00,VWS V14.01,2013-03-03 17:36:00,
2013-03-03 12:37:00,31.5,20.4,29.71,NE,42,3.0,9.0,63,0.00,,,0.00,VWS V14.01,2013-03-03 17:37:00,
2013-03-03 12:38:00,31.5,20.4,29.71,NE,42,3.0,9.0,63,0.00,,,0.00,VWS V14.01,2013-03-03 17:38:00,
2013-03-03 12:39:00,31.4,20.3,29.71,NE,36,1.0,9.0,63,0.00,,,0.00,VWS V14.01,2013-03-03 17:39:00,
2013-03-03 12:40:00,31.4,20.3,29.71,North,355,1.0,9.0,63,0.00,,,0.00,VWS V14.01,2013-03-03 17:40:00,
2013-03-03 12:41:00,31.4,20.3,29.71,NE,39,4.0,4.0,63,0.00,,,0.00,VWS V14.01,2013-03-03 17:41:00,
2013-03-03 12:42:00,31.4,20.3,29.71,NE,39,4.0,4.0,63,0.00,,,0.00,VWS V14.01,2013-03-03 17:42:00,
2013-03-03 12:43:00,31.4,20.3,29.71,NW,315,3.0,14.0,63,0.00,,,0.00,VWS V14.01,2013-03-03 17:43:00,
2013-03-03 12:44:00,31.3,20.2,29.71,NW,323,12.0,14.0,63,0.00,,,0.00,VWS V14.01,2013-03-03 17:44:00,
2013-03-03 12:45:00,31.3,20.2,29.70,West,279,2.0,14.0,63,0.00,,,0.00,VWS V14.01,2013-03-03 17:45:00,
2013-03-03 12:46:00,31.3,20.2,29.70,North,360,4.0,14.0,63,0.00,,,0.00,VWS V14.01,2013-03-03 17:46:00,
2013-03-03 12:47:00,31.3,20.2,29.70,North,360,4.0,14.0,63,0.00,,,0.00,VWS V14.01,2013-03-03 17:47:00,
2013-03-03 12:48:00,31.3,20.5,29.70,NNE,19,6.0,14.0,64,0.00,,,0.00,VWS V14.01,2013-03-03 17:48:00,
2013-03-03 12:49:00,31.3,20.5,29.70,NNW,337,5.0,14.0,64,0.00,,,0.00,VWS V14.01,2013-03-03 17:49:00,
2013-03-03 12:50:00,31.3,20.2,29.70,NNW,342,6.0,14.0,63,0.00,,,0.00,VWS V14.01,2013-03-03 17:50:00,
2013-03-03 12:51:00,31.3,20.5,29.70,NNW,344,5.0,14.0,64,0.00,,,0.00,VWS V14.01,2013-03-03 17:51:00,
2013-03-03 12:52:00,31.3,20.5,29.70,NNW,344,5.0,14.0,64,0.00,,,0.00,VWS V14.01,2013-03-03 17:52:00,
2013-03-03 12:53:00,31.3,20.5,29.70,NNW,342,4.0,6.0,64,0.00,,,0.00,VWS V14.01,2013-03-03 17:53:00,
2013-03-03 12:54:00,31.3,20.5,29.70,NE,47,4.0,6.0,64,0.00,,,0.00,VWS V14.01,2013-03-03 17:54:00,
2013-03-03 12:55:00,31.3,20.5,29.70,WNW,286,1.0,6.0,64,0.00,,,0.00,VWS V14.01,2013-03-03 17:55:00,
2013-03-03 12:56:00,31.3,20.5,29.70,NNW,341,0.0,6.0,64,0.00,,,0.00,VWS V14.01,2013-03-03 17:56:00,
2013-03-03 12:57:00,31.3,20.5,29.70,NNW,341,0.0,6.0,64,0.00,,,0.00,VWS V14.01,2013-03-03 17:57:00,
2013-03-03 12:58:00,31.4,20.6,29.70,SSW,195,1.0,6.0,64,0.00,,,0.00,VWS V14.01,2013-03-03 17:58:00,
2013-03-03 12:59:00,31.4,20.6,29.70,West,274,3.0,7.0,64,0.00,,,0.00,VWS V14.01,2013-03-03 17:59:00,
2013-03-03 13:00:00,31.5,20.7,29.70,SW,215,1.0,7.0,64,0.00,,,0.00,VWS V14.01,2013-03-03 18:00:00,
2013-03-03 13:01:00,31.6,20.8,29.70,SW,215,1.0,1.0,64,0.00,,,0.00,VWS V14.01,2013-03-03 18:01:00,
2013-03-03 13:02:00,31.6,20.8,29.70,SW,215,1.0,1.0,64,0.00,,,0.00,VWS V14.01,2013-03-03 18:02:00,
2013-03-03 13:03:00,31.9,21.1,29.70,ENE,63,1.0,2.0,64,0.00,,,0.00,VWS V14.01,2013-03-03 18:03:00,
2013-03-03 13:04:00,32.0,21.2,29.70,NNW,333,4.0,5.0,64,0.00,,,0.00,VWS V14.01,2013-03-03 18:04:00,
2013-03-03 13:05:00,32.1,21.3,29.70,SSW,203,2.0,10.0,64,0.00,,,0.00,VWS V14.01,2013-03-03 18:05:00,
2013-03-03 13:06:00,32.2,21.4,29.70,WSW,249,2.0,10.0,64,0.00,,,0.00,VWS V14.01,2013-03-03 18:06:00,
2013-03-03 13:07:00,32.2,21.4,29.70,WSW,249,2.0,10.0,64,0.00,,,0.00,VWS V14.01,2013-03-03 18:07:00,
2013-03-03 13:08:00,32.2,21.4,29.70,WSW,249,2.0,10.0,64,0.00,,,0.00,VWS V14.01,2013-03-03 18:08:00,
2013-03-03 13:09:00,32.6,21.4,29.70,West,281,6.0,10.0,63,0.00,,,0.00,VWS V14.01,2013-03-03 18:09:00,
2013-03-03 13:10:00,32.6,21.4,29.70,North,5,1.0,10.0,63,0.00,,,0.00,VWS V14.01,2013-03-03 18:10:00,
2013-03-03 13:11:00,32.6,21.4,29.70,NNE,31,3.0,4.0,63,0.00,,,0.00,VWS V14.01,2013-03-03 18:11:00,
2013-03-03 13:12:00,32.6,21.4,29.70,NNE,31,3.0,4.0,63,0.00,,,0.00,VWS V14.01,2013-03-03 18:12:00,
2013-03-03 13:13:00,32.7,21.1,29.70,WSW,241,10.0,14.0,62,0.00,,,0.00,VWS V14.01,2013-03-03 18:13:00,
2013-03-03 13:14:00,32.7,21.1,29.70,NNW,336,2.0,14.0,62,0.00,,,0.00,VWS V14.01,2013-03-03 18:14:00,
2013-03-03 13:15:00,32.7,21.1,29.69,WNW,298,1.0,14.0,62,0.00,,,0.00,VWS V14.01,2013-03-03 18:15:00,
2013-03-03 13:16:00,32.7,21.1,29.69,NNE,22,1.0,14.0,62,0.00,,,0.00,VWS V14.01,2013-03-03 18:16:00,
2013-03-03 13:17:00,32.7,21.1,29.69,NNE,22,1.0,14.0,62,0.00,,,0.00,VWS V14.01,2013-03-03 18:17:00,
2013-03-03 13:18:00,32.7,21.1,29.69,NNE,22,1.0,14.0,62,0.00,,,0.00,VWS V14.01,2013-03-03 18:18:00,
2013-03-03 13:19:00,32.7,21.1,29.69,ESE,110,2.0,14.0,62,0.00,,,0.00,VWS V14.01,2013-03-03 18:19:00,
2013-03-03 13:20:00,32.7,21.1,29.69,NNW,337,5.0,14.0,62,0.00,,,0.00,VWS V14.01,2013-03-03 18:20:00,
2013-03-03 13:21:00,32.8,21.2,29.69,NW,315,4.0,7.0,62,0.00,,,0.00,VWS V14.01,2013-03-03 18:21:00,
2013-03-03 13:22:00,32.8,21.2,29.69,NW,315,4.0,7.0,62,0.00,,,0.00,VWS V14.01,2013-03-03 18:22:00,
2013-03-03 13:23:00,32.8,21.2,29.69,NW,315,4.0,7.0,62,0.00,,,0.00,VWS V14.01,2013-03-03 18:23:00,
2013-03-03 13:24:00,32.8,20.9,29.69,NW,317,1.0,7.0,61,0.00,,,0.00,VWS V14.01,2013-03-03 18:24:00,
2013-03-03 13:25:00,32.8,20.9,29.69,WNW,288,0.0,7.0,61,0.00,,,0.00,VWS V14.01,2013-03-03 18:25:00,
2013-03-03 13:26:00,32.8,20.9,29.69,NE,38,7.0,7.0,61,0.00,,,0.00,VWS V14.01,2013-03-03 18:26:00,
2013-03-03 13:27:00,32.8,20.9,29.69,NE,38,7.0,7.0,61,0.00,,,0.00,VWS V14.01,2013-03-03 18:27:00,
2013-03-03 13:28:00,32.8,20.9,29.69,NE,38,7.0,7.0,61,0.00,,,0.00,VWS V14.01,2013-03-03 18:28:00,
2013-03-03 13:29:00,32.9,21.3,29.69,West,273,6.0,7.0,62,0.00,,,0.00,VWS V14.01,2013-03-03 18:29:00,
2013-03-03 13:30:00,32.9,20.9,29.69,NNW,341,3.0,7.0,61,0.00,,,0.00,VWS V14.01,2013-03-03 18:30:00,
2013-03-03 13:31:00,32.9,21.3,29.69,WNW,299,2.0,7.0,62,0.00,,,0.00,VWS V14.01,2013-03-03 18:31:00,
2013-03-03 13:32:00,32.9,21.3,29.69,WNW,299,2.0,7.0,62,0.00,,,0.00,VWS V14.01,2013-03-03 18:32:00,
2013-03-03 13:33:00,33.1,21.5,29.69,West,259,2.0,7.0,62,0.00,,,0.00,VWS V14.01,2013-03-03 18:33:00,
2013-03-03 13:34:00,33.1,21.5,29.69,NNE,32,1.0,7.0,62,0.00,,,0.00,VWS V14.01,2013-03-03 18:34:00,
2013-03-03 13:35:00,33.2,21.6,29.69,SE,134,2.0,7.0,62,0.00,,,0.00,VWS V14.01,2013-03-03 18:35:00,
2013-03-03 13:36:00,33.3,21.7,29.69,NE,38,5.0,7.0,62,0.00,,,0.00,VWS V14.01,2013-03-03 18:36:00,
2013-03-03 13:37:00,33.3,21.3,29.69,North,360,4.0,7.0,61,0.00,,,0.00,VWS V14.01,2013-03-03 18:37:00,
2013-03-03 13:38:00,33.3,21.3,29.69,WSW,254,7.0,8.0,61,0.00,,,0.00,VWS V14.01,2013-03-03 18:38:00,
2013-03-03 13:39:00,33.3,21.3,29.69,NE,47,4.0,8.0,61,0.00,,,0.00,VWS V14.01,2013-03-03 18:39:00,
2013-03-03 13:40:00,33.3,21.3,29.69,WNW,283,5.0,8.0,61,0.00,,,0.00,VWS V14.01,2013-03-03 18:40:00,
2013-03-03 13:41:00,33.3,20.9,29.69,NNW,333,3.0,7.0,60,0.00,,,0.00,VWS V14.01,2013-03-03 18:41:00,
2013-03-03 13:42:00,33.3,20.9,29.69,NNW,333,3.0,7.0,60,0.00,,,0.00,VWS V14.01,2013-03-03 18:42:00,
2013-03-03 13:43:00,33.3,20.9,29.69,NNW,333,3.0,7.0,60,0.00,,,0.00,VWS V14.01,2013-03-03 18:43:00,
2013-03-03 13:44:00,33.2,20.8,29.69,WNW,294,2.0,10.0,60,0.00,,,0.00,VWS V14.01,2013-03-03 18:44:00,
2013-03-03 13:45:00,33.1,21.1,29.69,NNW,331,7.0,10.0,61,0.00,,,0.00,VWS V14.01,2013-03-03 18:45:00,
2013-03-03 13:46:00,33.1,21.1,29.69,WNW,301,0.0,10.0,61,0.00,,,0.00,VWS V14.01,2013-03-03 18:46:00,
2013-03-03 13:47:00,33.1,21.1,29.69,WNW,301,0.0,10.0,61,0.00,,,0.00,VWS V14.01,2013-03-03 18:47:00,
2013-03-03 13:48:00,33.1,21.1,29.69,North,10,6.0,10.0,61,0.00,,,0.00,VWS V14.01,2013-03-03 18:48:00,
2013-03-03 13:49:00,33.2,21.2,29.69,NNE,32,8.0,10.0,61,0.00,,,0.00,VWS V14.01,2013-03-03 18:49:00,
2013-03-03 13:50:00,33.2,21.2,29.69,NNE,33,10.0,10.0,61,0.00,,,0.00,VWS V14.01,2013-03-03 18:50:00,
2013-03-03 13:51:00,33.2,21.2,29.69,NNE,13,7.0,10.0,61,0.00,,,0.00,VWS V14.01,2013-03-03 18:51:00,
2013-03-03 13:52:00,33.2,21.2,29.69,NNE,13,7.0,10.0,61,0.00,,,0.00,VWS V14.01,2013-03-03 18:52:00,
2013-03-03 13:53:00,33.2,21.2,29.69,NNE,13,7.0,10.0,61,0.00,,,0.00,VWS V14.01,2013-03-03 18:53:00,
2013-03-03 13:54:00,33.3,21.3,29.69,WNW,292,7.0,10.0,61,0.00,,,0.00,VWS V14.01,2013-03-03 18:54:00,
2013-03-03 13:55:00,33.4,21.8,29.69,NW,322,1.0,10.0,62,0.00,,,0.00,VWS V14.01,2013-03-03 18:55:00,
2013-03-03 13:56:00,33.4,21.4,29.69,West,267,3.0,10.0,61,0.00,,,0.00,VWS V14.01,2013-03-03 18:56:00,
2013-03-03 13:57:00,33.4,21.4,29.69,West,267,3.0,10.0,61,0.00,,,0.00,VWS V14.01,2013-03-03 18:57:00,
2013-03-03 13:58:00,33.4,21.4,29.69,West,267,3.0,10.0,61,0.00,,,0.00,VWS V14.01,2013-03-03 18:58:00,
2013-03-03 13:59:00,33.5,21.1,29.69,North,360,4.0,10.0,60,0.00,,,0.00,VWS V14.01,2013-03-03 18:59:00,
2013-03-03 14:00:00,33.6,21.2,29.69,NNE,16,7.0,10.0,60,0.00,,,0.00,VWS V14.01,2013-03-03 19:00:00,
2013-03-03 14:01:00,33.6,21.2,29.69,NNE,33,4.0,4.0,60,0.00,,,0.00,VWS V14.01,2013-03-03 19:01:00,
2013-03-03 14:02:00,33.6,21.2,29.69,NNE,33,4.0,4.0,60,0.00,,,0.00,VWS V14.01,2013-03-03 19:02:00,
2013-03-03 14:03:00,33.6,21.2,29.69,NNE,33,4.0,4.0,60,0.00,,,0.00,VWS V14.01,2013-03-03 19:03:00,
2013-03-03 14:04:00,33.5,21.1,29.69,NNW,339,0.0,4.0,60,0.00,,,0.00,VWS V14.01,2013-03-03 19:04:00,
2013-03-03 14:05:00,33.5,21.1,29.69,NNE,32,3.0,4.0,60,0.00,,,0.00,VWS V14.01,2013-03-03 19:05:00,
2013-03-03 14:06:00,33.5,21.1,29.69,NNE,32,1.0,4.0,60,0.00,,,0.00,VWS V14.01,2013-03-03 19:06:00,
2013-03-03 14:07:00,33.5,21.1,29.69,NNE,32,1.0,4.0,60,0.00,,,0.00,VWS V14.01,2013-03-03 19:07:00,
2013-03-03 14:08:00,33.7,21.3,29.69,ENE,68,9.0,9.0,60,0.00,,,0.00,VWS V14.01,2013-03-03 19:08:00,
2013-03-03 14:09:00,33.7,21.3,29.69,ENE,68,9.0,9.0,60,0.00,,,0.00,VWS V14.01,2013-03-03 19:09:00,
2013-03-03 14:10:00,33.7,21.3,29.69,North,355,0.0,9.0,60,0.00,,,0.00,VWS V14.01,2013-03-03 19:10:00,
2013-03-03 14:11:00,33.7,21.3,29.69,North,355,0.0,9.0,60,0.00,,,0.00,VWS V14.01,2013-03-03 19:11:00,
2013-03-03 14:12:00,33.7,21.3,29.69,North,355,0.0,9.0,60,0.00,,,0.00,VWS V14.01,2013-03-03 19:12:00,
2013-03-03 14:13:00,33.7,21.3,29.69,North,355,0.0,9.0,60,0.00,,,0.00,VWS V14.01,2013-03-03 19:13:00,
2013-03-03 14:14:00,33.7,21.3,29.69,WNW,285,1.0,2.0,60,0.00,,,0.00,VWS V14.01,2013-03-03 19:14:00,
2013-03-03 14:15:00,33.7,21.3,29.69,ENE,78,3.0,7.0,60,0.00,,,0.00,VWS V14.01,2013-03-03 19:15:00,
2013-03-03 14:16:00,33.7,21.3,29.69,NNW,333,4.0,7.0,60,0.00,,,0.00,VWS V14.01,2013-03-03 19:16:00,
2013-03-03 14:17:00,33.7,21.3,29.69,NNW,333,4.0,7.0,60,0.00,,,0.00,VWS V14.01,2013-03-03 19:17:00,
2013-03-03 14:18:00,33.7,21.3,29.69,NNW,333,4.0,7.0,60,0.00,,,0.00,VWS V14.01,2013-03-03 19:18:00,
2013-03-03 14:19:00,33.7,20.9,29.69,NNW,346,9.0,10.0,59,0.00,,,0.00,VWS V14.01,2013-03-03 19:19:00,
2013-03-03 14:20:00,33.6,20.8,29.69,North,355,2.0,10.0,59,0.00,,,0.00,VWS V14.01,2013-03-03 19:20:00,
2013-03-03 14:21:00,33.5,20.7,29.69,NNE,19,2.0,2.0,59,0.00,,,0.00,VWS V14.01,2013-03-03 19:21:00,
2013-03-03 14:22:00,33.5,20.7,29.69,NNE,19,2.0,2.0,59,0.00,,,0.00,VWS V14.01,2013-03-03 19:22:00,
2013-03-03 14:23:00,33.5,20.7,29.69,NNE,19,2.0,2.0,59,0.00,,,0.00,VWS V14.01,2013-03-03 19:23:00,
2013-03-03 14:24:00,33.4,20.6,29.69,NNE,12,2.0,3.0,59,0.00,,,0.00,VWS V14.01,2013-03-03 19:24:00,
2013-03-03 14:25:00,33.4,21.0,29.69,NNE,30,5.0,5.0,60,0.00,,,0.00,VWS V14.01,2013-03-03 19:25:00,
2013-03-03 14:26:00,33.4,21.0,29.69,NE,36,7.0,7.0,60,0.00,,,0.00,VWS V14.01,2013-03-03 19:26:00,
2013-03-03 14:27:00,33.4,21.0,29.69,NE,36,7.0,7.0,60,0.00,,,0.00,VWS V14.01,2013-03-03 19:27:00,
2013-03-03 14:28:00,33.3,20.9,29.69,WNW,290,6.0,7.0,60,0.00,,,0.00,VWS V14.01,2013-03-03 19:28:00,
2013-03-03 14:29:00,33.3,20.9,29.69,NW,309,2.0,7.0,60,0.00,,,0.00,VWS V14.01,2013-03-03 19:29:00,
2013-03-03 14:30:00,33.3,20.9,29.69,NE,49,3.0,7.0,60,0.00,,,0.00,VWS V14.01,2013-03-03 19:30:00,
2013-03-03 14:31:00,33.3,20.9,29.69,ENE,62,3.0,3.0,60,0.00,,,0.00,VWS V14.01,2013-03-03 19:31:00,
2013-03-03 14:32:00,33.3,20.9,29.69,ENE,62,3.0,3.0,60,0.00,,,0.00,VWS V14.01,2013-03-03 19:32:00,
2013-03-03 14:33:00,33.3,20.9,29.69,ENE,62,3.0,3.0,60,0.00,,,0.00,VWS V14.01,2013-03-03 19:33:00,
2013-03-03 14:34:00,33.3,20.9,29.69,NNE,27,3.0,4.0,60,0.00,,,0.00,VWS V14.01,2013-03-03 19:34:00,
2013-03-03 14:35:00,33.3,20.9,29.69,North,5,2.0,8.0,60,0.00,,,0.00,VWS V14.01,2013-03-03 19:35:00,
2013-03-03 14:36:00,33.3,20.9,29.69,North,5,2.0,8.0,60,0.00,,,0.00,VWS V14.01,2013-03-03 19:36:00,
2013-03-03 14:37:00,33.3,20.9,29.69,North,5,2.0,8.0,60,0.00,,,0.00,VWS V14.01,2013-03-03 19:37:00,
2013-03-03 14:38:00,33.2,20.8,29.69,NE,42,6.0,8.0,60,0.00,,,0.00,VWS V14.01,2013-03-03 19:38:00,
2013-03-03 14:39:00,33.2,20.8,29.69,NE,38,4.0,8.0,60,0.00,,,0.00,VWS V14.01,2013-03-03 19:39:00,
2013-03-03 14:40:00,33.1,20.7,29.69,NE,41,4.0,9.0,60,0.00,,,0.00,VWS V14.01,2013-03-03 19:40:00,
2013-03-03 14:41:00,33.1,20.7,29.69,NE,41,4.0,9.0,60,0.00,,,0.00,VWS V14.01,2013-03-03 19:41:00,
2013-03-03 14:42:00,33.1,20.7,29.69,NE,41,4.0,9.0,60,0.00,,,0.00,VWS V14.01,2013-03-03 19:42:00,
2013-03-03 14:43:00,33.1,20.7,29.69,NE,41,4.0,9.0,60,0.00,,,0.00,VWS V14.01,2013-03-03 19:43:00,
2013-03-03 14:44:00,33.0,21.0,29.69,NNE,17,3.0,7.0,61,0.00,,,0.00,VWS V14.01,2013-03-03 19:44:00,
2013-03-03 14:45:00,33.0,21.0,29.69,NNE,32,2.0,8.0,61,0.00,,,0.00,VWS V14.01,2013-03-03 19:45:00,
2013-03-03 14:46:00,33.0,21.0,29.69,ENE,72,4.0,8.0,61,0.00,,,0.00,VWS V14.01,2013-03-03 19:46:00,
2013-03-03 14:47:00,33.0,21.0,29.69,ENE,72,4.0,8.0,61,0.00,,,0.00,VWS V14.01,2013-03-03 19:47:00,
2013-03-03 14:48:00,33.0,21.0,29.69,NE,40,3.0,8.0,61,0.00,,,0.00,VWS V14.01,2013-03-03 19:48:00,
2013-03-03 14:49:00,33.0,21.0,29.69,NNW,331,1.0,8.0,61,0.00,,,0.00,VWS V14.01,2013-03-03 19:49:00,
2013-03-03 14:50:00,33.0,21.0,29.69,NNW,331,2.0,8.0,61,0.00,,,0.00,VWS V14.01,2013-03-03 19:50:00,
2013-03-03 14:51:00,33.0,21.0,29.69,ESE,102,1.0,2.0,61,0.00,,,0.00,VWS V14.01,2013-03-03 19:51:00,
2013-03-03 14:52:00,33.0,21.0,29.69,ESE,102,1.0,2.0,61,0.00,,,0.00,VWS V14.01,2013-03-03 19:52:00,
2013-03-03 14:53:00,33.0,21.0,29.69,ESE,102,1.0,2.0,61,0.00,,,0.00,VWS V14.01,2013-03-03 19:53:00,
2013-03-03 14:54:00,33.1,21.1,29.69,WSW,256,1.0,5.0,61,0.00,,,0.00,VWS V14.01,2013-03-03 19:54:00,
2013-03-03 14:55:00,33.1,21.5,29.69,WNW,290,0.0,5.0,62,0.00,,,0.00,VWS V14.01,2013-03-03 19:55:00,
2013-03-03 14:56:00,33.1,21.5,29.69,NW,314,8.0,8.0,62,0.00,,,0.00,VWS V14.01,2013-03-03 19:56:00,
2013-03-03 14:57:00,33.1,21.5,29.69,NW,314,8.0,8.0,62,0.00,,,0.00,VWS V14.01,2013-03-03 19:57:00,
2013-03-03 14:58:00,33.1,21.5,29.69,NW,314,8.0,8.0,62,0.00,,,0.00,VWS V14.01,2013-03-03 19:58:00,
2013-03-03 14:59:00,33.2,21.2,29.69,West,265,4.0,8.0,61,0.00,,,0.00,VWS V14.01,2013-03-03 19:59:00,
2013-03-03 15:00:00,33.2,21.2,29.69,ENE,77,1.0,8.0,61,0.00,,,0.00,VWS V14.01,2013-03-03 20:00:00,
2013-03-03 15:01:00,33.2,21.2,29.69,East,86,1.0,3.0,61,0.00,,,0.00,VWS V14.01,2013-03-03 20:01:00,
2013-03-03 15:02:00,33.2,21.2,29.69,East,86,1.0,3.0,61,0.00,,,0.00,VWS V14.01,2013-03-03 20:02:00,
2013-03-03 15:03:00,33.2,21.2,29.69,NNE,19,4.0,4.0,61,0.00,,,0.00,VWS V14.01,2013-03-03 20:03:00,
2013-03-03 15:04:00,33.2,21.2,29.69,NNE,13,6.0,6.0,61,0.00,,,0.00,VWS V14.01,2013-03-03 20:04:00,
2013-03-03 15:05:00,33.2,21.2,29.69,North,355,3.0,7.0,61,0.00,,,0.00,VWS V14.01,2013-03-03 20:05:00,
2013-03-03 15:06:00,33.2,21.2,29.69,North,350,5.0,7.0,61,0.00,,,0.00,VWS V14.01,2013-03-03 20:06:00,
2013-03-03 15:07:00,33.2,21.2,29.69,North,350,5.0,7.0,61,0.00,,,0.00,VWS V14.01,2013-03-03 20:07:00,
2013-03-03 15:08:00,33.2,21.2,29.69,North,350,5.0,7.0,61,0.00,,,0.00,VWS V14.01,2013-03-03 20:08:00,
2013-03-03 15:09:00,33.1,21.1,29.69,SW,233,4.0,7.0,61,0.00,,,0.00,VWS V14.01,2013-03-03 20:09:00,
2013-03-03 15:10:00,33.1,21.5,29.69,West,271,0.0,7.0,62,0.00,,,0.00,VWS V14.01,2013-03-03 20:10:00,
2013-03-03 15:11:00,33.1,21.5,29.69,West,271,0.0,0.0,62,0.00,,,0.00,VWS V14.01,2013-03-03 20:11:00,
2013-03-03 15:12:00,33.1,21.5,29.69,West,271,0.0,0.0,62,0.00,,,0.00,VWS V14.01,2013-03-03 20:12:00,
2013-03-03 15:13:00,33.1,21.5,29.69,North,355,1.0,2.0,62,0.00,,,0.00,VWS V14.01,2013-03-03 20:13:00,
2013-03-03 15:14:00,33.1,21.5,29.69,West,270,1.0,3.0,62,0.00,,,0.00,VWS V14.01,2013-03-03 20:14:00,
2013-03-03 15:15:00,33.1,21.5,29.69,West,259,1.0,3.0,62,0.00,,,0.00,VWS V14.01,2013-03-03 20:15:00,
2013-03-03 15:16:00,33.1,21.5,29.69,WSW,254,0.0,3.0,62,0.00,,,0.00,VWS V14.01,2013-03-03 20:16:00,
2013-03-03 15:17:00,33.1,21.5,29.69,WSW,254,0.0,3.0,62,0.00,,,0.00,VWS V14.01,2013-03-03 20:17:00,
2013-03-03 15:18:00,33.1,21.5,29.69,WSW,254,0.0,3.0,62,0.00,,,0.00,VWS V14.01,2013-03-03 20:18:00,
2013-03-03 15:19:00,33.2,21.6,29.69,North,350,0.0,6.0,62,0.00,,,0.00,VWS V14.01,2013-03-03 20:19:00,
2013-03-03 15:20:00,33.2,21.6,29.69,NNE,16,0.0,6.0,62,0.00,,,0.00,VWS V14.01,2013-03-03 20:20:00,
2013-03-03 15:21:00,33.2,22.0,29.69,NNE,15,0.0,1.0,63,0.00,,,0.00,VWS V14.01,2013-03-03 20:21:00,
2013-03-03 15:22:00,33.2,22.0,29.69,NNE,15,0.0,1.0,63,0.00,,,0.00,VWS V14.01,2013-03-03 20:22:00,
2013-03-03 15:23:00,33.2,22.0,29.69,NNE,15,0.0,1.0,63,0.00,,,0.00,VWS V14.01,2013-03-03 20:23:00,
2013-03-03 15:24:00,33.3,21.7,29.69,WNW,292,2.0,2.0,62,0.00,,,0.00,VWS V14.01,2013-03-03 20:24:00,
2013-03-03 15:25:00,33.3,21.7,29.69,NW,321,2.0,2.0,62,0.00,,,0.00,VWS V14.01,2013-03-03 20:25:00,
2013-03-03 15:26:00,33.3,21.7,29.69,West,269,5.0,5.0,62,0.00,,,0.00,VWS V14.01,2013-03-03 20:26:00,
2013-03-03 15:27:00,33.3,21.7,29.69,West,269,5.0,5.0,62,0.00,,,0.00,VWS V14.01,2013-03-03 20:27:00,
2013-03-03 15:28:00,33.4,21.8,29.69,WNW,300,0.0,5.0,62,0.00,,,0.00,VWS V14.01,2013-03-03 20:28:00,
2013-03-03 15:29:00,33.3,21.7,29.69,NW,305,2.0,5.0,62,0.00,,,0.00,VWS V14.01,2013-03-03 20:29:00,
2013-03-03 15:30:00,33.4,21.4,29.69,NNW,345,6.0,6.0,61,0.00,,,0.00,VWS V14.01,2013-03-03 20:30:00,
2013-03-03 15:31:00,33.4,21.4,29.69,WNW,288,7.0,7.0,61,0.00,,,0.00,VWS V14.01,2013-03-03 20:31:00,
2013-03-03 15:32:00,33.4,21.4,29.69,WNW,288,7.0,7.0,61,0.00,,,0.00,VWS V14.01,2013-03-03 20:32:00,
2013-03-03 15:33:00,33.4,21.4,29.69,WNW,288,7.0,7.0,61,0.00,,,0.00,VWS V14.01,2013-03-03 20:33:00,
2013-03-03 15:34:00,33.3,21.3,29.69,NNW,346,2.0,8.0,61,0.00,,,0.00,VWS V14.01,2013-03-03 20:34:00,
2013-03-03 15:35:00,33.2,21.2,29.69,WNW,302,4.0,8.0,61,0.00,,,0.00,VWS V14.01,2013-03-03 20:35:00,
2013-03-03 15:36:00,33.2,21.2,29.69,WNW,294,2.0,8.0,61,0.00,,,0.00,VWS V14.01,2013-03-03 20:36:00,
2013-03-03 15:37:00,33.2,21.2,29.69,WNW,294,2.0,8.0,61,0.00,,,0.00,VWS V14.01,2013-03-03 20:37:00,
2013-03-03 15:38:00,33.2,21.2,29.69,NE,34,5.0,8.0,61,0.00,,,0.00,VWS V14.01,2013-03-03 20:38:00,
2013-03-03 15:39:00,33.2,21.2,29.69,NNE,32,1.0,8.0,61,0.00,,,0.00,VWS V14.01,2013-03-03 20:39:00,
2013-03-03 15:40:00,33.0,21.0,29.69,West,273,4.0,8.0,61,0.00,,,0.00,VWS V14.01,2013-03-03 20:40:00,
2013-03-03 15:41:00,33.0,21.0,29.69,West,273,4.0,8.0,61,0.00,,,0.00,VWS V14.01,2013-03-03 20:41:00,
2013-03-03 15:42:00,33.0,21.0,29.69,West,273,4.0,8.0,61,0.00,,,0.00,VWS V14.01,2013-03-03 20:42:00,
2013-03-03 15:43:00,33.0,21.0,29.69,West,273,4.0,8.0,61,0.00,,,0.00,VWS V14.01,2013-03-03 20:43:00,
2013-03-03 15:44:00,32.9,20.9,29.69,SW,234,4.0,10.0,61,0.00,,,0.00,VWS V14.01,2013-03-03 20:44:00,
2013-03-03 15:45:00,32.9,20.9,29.70,WSW,240,0.0,10.0,61,0.00,,,0.00,VWS V14.01,2013-03-03 20:45:00,
2013-03-03 15:46:00,32.9,20.9,29.70,WSW,240,0.0,10.0,61,0.00,,,0.00,VWS V14.01,2013-03-03 20:46:00,
2013-03-03 15:47:00,32.9,20.9,29.70,WSW,240,0.0,10.0,61,0.00,,,0.00,VWS V14.01,2013-03-03 20:47:00,
2013-03-03 15:48:00,32.8,20.9,29.70,East,86,2.0,10.0,61,0.00,,,0.00,VWS V14.01,2013-03-03 20:48:00,
2013-03-03 15:49:00,32.8,21.2,29.70,West,271,0.0,10.0,62,0.00,,,0.00,VWS V14.01,2013-03-03 20:49:00,
2013-03-03 15:50:00,32.8,21.2,29.70,NNW,346,5.0,10.0,62,0.00,,,0.00,VWS V14.01,2013-03-03 20:50:00,
2013-03-03 15:51:00,32.8,21.2,29.70,West,276,2.0,4.0,62,0.00,,,0.00,VWS V14.01,2013-03-03 20:51:00,
2013-03-03 15:52:00,32.8,21.2,29.70,West,276,2.0,4.0,62,0.00,,,0.00,VWS V14.01,2013-03-03 20:52:00,
2013-03-03 15:53:00,32.8,20.9,29.70,NNE,28,3.0,7.0,61,0.00,,,0.00,VWS V14.01,2013-03-03 20:53:00,
2013-03-03 15:54:00,32.7,21.1,29.70,NNW,340,0.0,7.0,62,0.00,,,0.00,VWS V14.01,2013-03-03 20:54:00,
2013-03-03 15:55:00,32.7,21.1,29.70,NW,308,0.0,7.0,62,0.00,,,0.00,VWS V14.01,2013-03-03 20:55:00,
2013-03-03 15:56:00,32.7,21.1,29.70,NW,314,4.0,8.0,62,0.00,,,0.00,VWS V14.01,2013-03-03 20:56:00,
2013-03-03 15:57:00,32.7,21.1,29.70,NW,314,4.0,8.0,62,0.00,,,0.00,VWS V14.01,2013-03-03 20:57:00,
2013-03-03 15:58:00,32.7,21.1,29.70,NW,314,4.0,8.0,62,0.00,,,0.00,VWS V14.01,2013-03-03 20:58:00,
2013-03-03 15:59:00,32.6,21.0,29.70,West,276,2.0,8.0,62,0.00,,,0.00,VWS V14.01,2013-03-03 20:59:00,
2013-03-03 16:00:00,32.6,21.0,29.70,West,274,1.0,8.0,62,0.00,,,0.00,VWS V14.01,2013-03-03 21:00:00,
2013-03-03 16:01:00,32.6,21.0,29.70,West,274,0.0,2.0,62,0.00,,,0.00,VWS V14.01,2013-03-03 21:01:00,
2013-03-03 16:02:00,32.6,21.0,29.70,West,274,0.0,2.0,62,0.00,,,0.00,VWS V14.01,2013-03-03 21:02:00,
2013-03-03 16:03:00,32.7,21.1,29.70,SW,227,6.0,6.0,62,0.00,,,0.00,VWS V14.01,2013-03-03 21:03:00,
2013-03-03 16:04:00,32.8,21.2,29.70,North,355,0.0,7.0,62,0.00,,,0.00,VWS V14.01,2013-03-03 21:04:00,
2013-03-03 16:05:00,32.8,21.6,29.70,North,355,0.0,7.0,63,0.00,,,0.00,VWS V14.01,2013-03-03 21:05:00,
2013-03-03 16:06:00,32.9,21.7,29.70,WSW,249,8.0,8.0,63,0.00,,,0.00,VWS V14.01,2013-03-03 21:06:00,
2013-03-03 16:07:00,32.9,21.7,29.70,WSW,249,8.0,8.0,63,0.00,,,0.00,VWS V14.01,2013-03-03 21:07:00,
2013-03-03 16:08:00,33.1,21.5,29.70,WNW,296,6.0,8.0,62,0.00,,,0.00,VWS V14.01,2013-03-03 21:08:00,
2013-03-03 16:09:00,33.1,21.5,29.70,NW,324,0.0,9.0,62,0.00,,,0.00,VWS V14.01,2013-03-03 21:09:00,
2013-03-03 16:10:00,33.2,21.6,29.70,North,360,4.0,9.0,62,0.00,,,0.00,VWS V14.01,2013-03-03 21:10:00,
2013-03-03 16:11:00,33.2,21.6,29.70,NNW,336,1.0,4.0,62,0.00,,,0.00,VWS V14.01,2013-03-03 21:11:00,
2013-03-03 16:12:00,33.2,21.6,29.70,NNW,336,1.0,4.0,62,0.00,,,0.00,VWS V14.01,2013-03-03 21:12:00,
2013-03-03 16:13:00,33.2,21.6,29.70,NNW,336,1.0,4.0,62,0.00,,,0.00,VWS V14.01,2013-03-03 21:13:00,
2013-03-03 16:14:00,33.2,21.2,29.70,NE,36,3.0,5.0,61,0.00,,,0.00,VWS V14.01,2013-03-03 21:14:00,
2013-03-03 16:15:00,33.2,21.2,29.70,NNW,330,2.0,7.0,61,0.00,,,0.00,VWS V14.01,2013-03-03 21:15:00,
2013-03-03 16:16:00,33.3,21.3,29.70,NW,315,5.0,8.0,61,0.00,,,0.00,VWS V14.01,2013-03-03 21:16:00,
2013-03-03 16:17:00,33.3,21.3,29.70,NW,315,5.0,8.0,61,0.00,,,0.00,VWS V14.01,2013-03-03 21:17:00,
2013-03-03 16:18:00,33.3,21.3,29.70,NW,315,5.0,8.0,61,0.00,,,0.00,VWS V14.01,2013-03-03 21:18:00,
2013-03-03 16:19:00,33.3,20.9,29.70,NNE,22,3.0,8.0,60,0.00,,,0.00,VWS V14.01,2013-03-03 21:19:00,
2013-03-03 16:20:00,33.3,20.9,29.70,NE,36,2.0,8.0,60,0.00,,,0.00,VWS V14.01,2013-03-03 21:20:00,
2013-03-03 16:21:00,33.3,20.9,29.70,NNE,18,3.0,3.0,60,0.00,,,0.00,VWS V14.01,2013-03-03 21:21:00,
2013-03-03 16:22:00,33.3,20.9,29.70,NNE,18,3.0,3.0,60,0.00,,,0.00,VWS V14.01,2013-03-03 21:22:00,
2013-03-03 16:23:00,33.1,20.7,29.70,NE,34,5.0,5.0,60,0.00,,,0.00,VWS V14.01,2013-03-03 21:23:00,
2013-03-03 16:24:00,33.1,20.7,29.70,NE,47,6.0,7.0,60,0.00,,,0.00,VWS V14.01,2013-03-03 21:24:00,
2013-03-03 16:25:00,33.0,20.6,29.70,North,350,0.0,7.0,60,0.00,,,0.00,VWS V14.01,2013-03-03 21:25:00,
2013-03-03 16:26:00,33.0,20.6,29.70,WNW,292,3.0,7.0,60,0.00,,,0.00,VWS V14.01,2013-03-03 21:26:00,
2013-03-03 16:27:00,33.0,20.6,29.70,WNW,292,3.0,7.0,60,0.00,,,0.00,VWS V14.01,2013-03-03 21:27:00,
2013-03-03 16:28:00,33.0,20.6,29.70,WNW,292,3.0,7.0,60,0.00,,,0.00,VWS V14.01,2013-03-03 21:28:00,
2013-03-03 16:29:00,32.9,20.5,29.70,NNW,347,2.0,7.0,60,0.00,,,0.00,VWS V14.01,2013-03-03 21:29:00,
2013-03-03 16:30:00,32.8,20.5,29.71,NNE,22,1.0,7.0,60,0.00,,,0.00,VWS V14.01,2013-03-03 21:30:00,
2013-03-03 16:31:00,32.8,20.5,29.71,NW,323,5.0,5.0,60,0.00,,,0.00,VWS V14.01,2013-03-03 21:31:00,
2013-03-03 16:32:00,32.8,20.5,29.71,NW,323,5.0,5.0,60,0.00,,,0.00,VWS V14.01,2013-03-03 21:32:00,
2013-03-03 16:33:00,32.8,20.5,29.71,NW,323,5.0,5.0,60,0.00,,,0.00,VWS V14.01,2013-03-03 21:33:00,
2013-03-03 16:34:00,32.7,20.4,29.71,West,276,1.0,5.0,60,0.00,,,0.00,VWS V14.01,2013-03-03 21:34:00,
2013-03-03 16:35:00,32.6,20.3,29.71,ENE,65,7.0,8.0,60,0.00,,,0.00,VWS V14.01,2013-03-03 21:35:00,
2013-03-03 16:36:00,32.6,20.3,29.71,ENE,65,7.0,8.0,60,0.00,,,0.00,VWS V14.01,2013-03-03 21:36:00,
2013-03-03 16:37:00,32.6,20.3,29.71,ENE,65,7.0,8.0,60,0.00,,,0.00,VWS V14.01,2013-03-03 21:37:00,
2013-03-03 16:38:00,32.4,20.1,29.71,NNE,32,4.0,8.0,60,0.00,,,0.00,VWS V14.01,2013-03-03 21:38:00,
2013-03-03 16:39:00,32.3,20.0,29.71,NNE,33,0.0,8.0,60,0.00,,,0.00,VWS V14.01,2013-03-03 21:39:00,
2013-03-03 16:40:00,32.2,20.3,29.71,NE,34,2.0,8.0,61,0.00,,,0.00,VWS V14.01,2013-03-03 21:40:00,
2013-03-03 16:41:00,32.2,20.3,29.71,NE,34,2.0,8.0,61,0.00,,,0.00,VWS V14.01,2013-03-03 21:41:00,
2013-03-03 16:42:00,32.2,20.3,29.71,NE,34,2.0,8.0,61,0.00,,,0.00,VWS V14.01,2013-03-03 21:42:00,
2013-03-03 16:43:00,32.2,20.3,29.71,NE,34,2.0,8.0,61,0.00,,,0.00,VWS V14.01,2013-03-03 21:43:00,
2013-03-03 16:44:00,31.8,19.9,29.71,North,9,3.0,4.0,61,0.00,,,0.00,VWS V14.01,2013-03-03 21:44:00,
2013-03-03 16:45:00,31.7,20.2,29.71,NE,51,1.0,4.0,62,0.00,,,0.00,VWS V14.01,2013-03-03 21:45:00,
2013-03-03 16:46:00,31.7,20.2,29.71,NNW,337,7.0,7.0,62,0.00,,,0.00,VWS V14.01,2013-03-03 21:46:00,
2013-03-03 16:47:00,31.7,20.2,29.71,NNW,337,7.0,7.0,62,0.00,,,0.00,VWS V14.01,2013-03-03 21:47:00,
2013-03-03 16:48:00,31.7,20.2,29.71,NNW,337,7.0,7.0,62,0.00,,,0.00,VWS V14.01,2013-03-03 21:48:00,
2013-03-03 16:49:00,31.5,20.0,29.71,ENE,62,4.0,9.0,62,0.00,,,0.00,VWS V14.01,2013-03-03 21:49:00,
2013-03-03 16:50:00,31.5,20.0,29.71,NW,312,2.0,9.0,62,0.00,,,0.00,VWS V14.01,2013-03-03 21:50:00,
2013-03-03 16:51:00,31.4,19.9,29.71,NW,312,0.0,0.0,62,0.00,,,0.00,VWS V14.01,2013-03-03 21:51:00,
2013-03-03 16:52:00,31.4,19.9,29.71,NW,312,0.0,0.0,62,0.00,,,0.00,VWS V14.01,2013-03-03 21:52:00,
2013-03-03 16:53:00,31.4,19.9,29.71,NW,312,0.0,0.0,62,0.00,,,0.00,VWS V14.01,2013-03-03 21:53:00,
2013-03-03 16:54:00,31.3,19.8,29.71,North,355,2.0,2.0,62,0.00,,,0.00,VWS V14.01,2013-03-03 21:54:00,
2013-03-03 16:55:00,31.3,20.2,29.71,SSW,198,0.0,2.0,63,0.00,,,0.00,VWS V14.01,2013-03-03 21:55:00,
2013-03-03 16:56:00,31.3,20.2,29.71,SSW,207,0.0,2.0,63,0.00,,,0.00,VWS V14.01,2013-03-03 21:56:00,
2013-03-03 16:57:00,31.3,20.2,29.71,SSW,207,0.0,2.0,63,0.00,,,0.00,VWS V14.01,2013-03-03 21:57:00,
2013-03-03 16:58:00,31.3,20.2,29.71,SSW,207,0.0,2.0,63,0.00,,,0.00,VWS V14.01,2013-03-03 21:58:00,
2013-03-03 16:59:00,31.2,20.1,29.71,SW,235,1.0,2.0,63,0.00,,,0.00,VWS V14.01,2013-03-03 21:59:00,
2013-03-03 17:00:00,31.1,20.0,29.71,SSW,192,2.0,2.0,63,0.00,,,0.00,VWS V14.01,2013-03-03 22:00:00,
2013-03-03 17:01:00,31.1,20.0,29.71,South,188,1.0,1.0,63,0.00,,,0.00,VWS V14.01,2013-03-03 22:01:00,
2013-03-03 17:02:00,31.1,20.0,29.71,South,188,1.0,1.0,63,0.00,,,0.00,VWS V14.01,2013-03-03 22:02:00,
2013-03-03 17:03:00,31.1,20.0,29.71,South,188,1.0,1.0,63,0.00,,,0.00,VWS V14.01,2013-03-03 22:03:00,
2013-03-03 17:04:00,31.0,19.9,29.71,NNW,337,6.0,6.0,63,0.00,,,0.00,VWS V14.01,2013-03-03 22:04:00,
2013-03-03 17:05:00,31.0,19.9,29.71,NW,320,0.0,6.0,63,0.00,,,0.00,VWS V14.01,2013-03-03 22:05:00,
2013-03-03 17:06:00,31.0,19.9,29.71,WNW,284,2.0,6.0,63,0.00,,,0.00,VWS V14.01,2013-03-03 22:06:00,
2013-03-03 17:07:00,31.0,19.9,29.71,WNW,284,2.0,6.0,63,0.00,,,0.00,VWS V14.01,2013-03-03 22:07:00,
2013-03-03 17:08:00,31.0,19.9,29.71,WNW,284,2.0,6.0,63,0.00,,,0.00,VWS V14.01,2013-03-03 22:08:00,
2013-03-03 17:09:00,30.9,20.2,29.71,NNW,340,1.0,6.0,64,0.00,,,0.00,VWS V14.01,2013-03-03 22:09:00,
2013-03-03 17:10:00,30.8,20.1,29.71,North,350,1.0,6.0,64,0.00,,,0.00,VWS V14.01,2013-03-03 22:10:00,
2013-03-03 17:11:00,30.8,20.1,29.71,NE,55,1.0,1.0,64,0.00,,,0.00,VWS V14.01,2013-03-03 22:11:00,
2013-03-03 17:12:00,30.8,20.1,29.71,NE,55,1.0,1.0,64,0.00,,,0.00,VWS V14.01,2013-03-03 22:12:00,
2013-03-03 17:13:00,30.8,20.1,29.71,NE,55,1.0,1.0,64,0.00,,,0.00,VWS V14.01,2013-03-03 22:13:00,
2013-03-03 17:14:00,30.7,20.0,29.71,SSW,193,1.0,3.0,64,0.00,,,0.00,VWS V14.01,2013-03-03 22:14:00,
2013-03-03 17:15:00,30.7,20.0,29.72,West,265,2.0,3.0,64,0.00,,,0.00,VWS V14.01,2013-03-03 22:15:00,
2013-03-03 17:16:00,30.7,20.0,29.72,West,265,2.0,3.0,64,0.00,,,0.00,VWS V14.01,2013-03-03 22:16:00,
2013-03-03 17:17:00,30.7,20.0,29.72,West,265,2.0,3.0,64,0.00,,,0.00,VWS V14.01,2013-03-03 22:17:00,
2013-03-03 17:18:00,30.7,20.0,29.72,NNW,336,5.0,5.0,64,0.00,,,0.00,VWS V14.01,2013-03-03 22:18:00,
2013-03-03 17:19:00,30.6,19.9,29.72,NNW,345,2.0,8.0,64,0.00,,,0.00,VWS V14.01,2013-03-03 22:19:00,
2013-03-03 17:20:00,30.6,19.9,29.72,ENE,68,4.0,10.0,64,0.00,,,0.00,VWS V14.01,2013-03-03 22:20:00,
2013-03-03 17:21:00,30.6,19.9,29.72,East,87,2.0,10.0,64,0.00,,,0.00,VWS V14.01,2013-03-03 22:21:00,
2013-03-03 17:22:00,30.6,19.9,29.72,East,87,2.0,10.0,64,0.00,,,0.00,VWS V14.01,2013-03-03 22:22:00,
2013-03-03 17:23:00,30.5,19.8,29.72,NNE,12,0.0,0.0,64,0.00,,,0.00,VWS V14.01,2013-03-03 22:23:00,
2013-03-03 17:24:00,30.5,20.1,29.72,West,262,7.0,7.0,65,0.00,,,0.00,VWS V14.01,2013-03-03 22:24:00,
2013-03-03 17:25:00,30.5,20.1,29.72,NW,323,3.0,8.0,65,0.00,,,0.00,VWS V14.01,2013-03-03 22:25:00,
2013-03-03 17:26:00,30.5,20.1,29.72,North,360,1.0,8.0,65,0.00,,,0.00,VWS V14.01,2013-03-03 22:26:00,
2013-03-03 17:27:00,30.5,20.1,29.72,North,360,1.0,8.0,65,0.00,,,0.00,VWS V14.01,2013-03-03 22:27:00,
2013-03-03 17:28:00,30.5,20.1,29.72,North,360,1.0,8.0,65,0.00,,,0.00,VWS V14.01,2013-03-03 22:28:00,
2013-03-03 17:29:00,30.4,20.1,29.72,ENE,67,1.0,8.0,65,0.00,,,0.00,VWS V14.01,2013-03-03 22:29:00,
2013-03-03 17:30:00,30.4,20.1,29.73,NW,320,1.0,8.0,65,0.00,,,0.00,VWS V14.01,2013-03-03 22:30:00,
2013-03-03 17:31:00,30.3,20.0,29.73,NW,306,2.0,4.0,65,0.00,,,0.00,VWS V14.01,2013-03-03 22:31:00,
2013-03-03 17:32:00,30.3,20.0,29.73,NW,306,2.0,4.0,65,0.00,,,0.00,VWS V14.01,2013-03-03 22:32:00,
2013-03-03 17:33:00,30.3,20.0,29.73,NW,306,2.0,4.0,65,0.00,,,0.00,VWS V14.01,2013-03-03 22:33:00,
2013-03-03 17:34:00,30.3,20.0,29.73,WNW,303,3.0,4.0,65,0.00,,,0.00,VWS V14.01,2013-03-03 22:34:00,
2013-03-03 17:35:00,30.2,19.9,29.73,SW,222,3.0,7.0,65,0.00,,,0.00,VWS V14.01,2013-03-03 22:35:00,
2013-03-03 17:36:00,30.2,19.9,29.73,NE,45,1.0,7.0,65,0.00,,,0.00,VWS V14.01,2013-03-03 22:36:00,
2013-03-03 17:37:00,30.2,19.9,29.73,NE,45,1.0,7.0,65,0.00,,,0.00,VWS V14.01,2013-03-03 22:37:00,
2013-03-03 17:38:00,30.2,19.9,29.73,NE,45,1.0,7.0,65,0.00,,,0.00,VWS V14.01,2013-03-03 22:38:00,
2013-03-03 17:39:00,30.1,19.8,29.73,North,355,5.0,7.0,65,0.00,,,0.00,VWS V14.01,2013-03-03 22:39:00,
2013-03-03 17:40:00,30.1,19.8,29.73,NW,306,1.0,7.0,65,0.00,,,0.00,VWS V14.01,2013-03-03 22:40:00,
2013-03-03 17:41:00,30.1,19.8,29.73,NW,306,1.0,1.0,65,0.00,,,0.00,VWS V14.01,2013-03-03 22:41:00,
2013-03-03 17:42:00,30.1,19.8,29.73,NW,306,1.0,1.0,65,0.00,,,0.00,VWS V14.01,2013-03-03 22:42:00,
2013-03-03 17:43:00,30.1,19.8,29.73,NW,306,1.0,1.0,65,0.00,,,0.00,VWS V14.01,2013-03-03 22:43:00,
2013-03-03 17:44:00,30.1,19.8,29.73,NNW,338,0.0,2.0,65,0.00,,,0.00,VWS V14.01,2013-03-03 22:44:00,
2013-03-03 17:45:00,30.1,20.1,29.73,NNW,336,7.0,7.0,66,0.00,,,0.00,VWS V14.01,2013-03-03 22:45:00,
2013-03-03 17:46:00,30.0,20.0,29.73,North,5,6.0,9.0,66,0.00,,,0.00,VWS V14.01,2013-03-03 22:46:00,
2013-03-03 17:47:00,30.0,20.0,29.73,North,5,6.0,9.0,66,0.00,,,0.00,VWS V14.01,2013-03-03 22:47:00,
2013-03-03 17:48:00,30.0,20.0,29.73,North,5,6.0,9.0,66,0.00,,,0.00,VWS V14.01,2013-03-03 22:48:00,
2013-03-03 17:49:00,29.9,19.6,29.73,NE,45,4.0,9.0,65,0.00,,,0.00,VWS V14.01,2013-03-03 22:49:00,
2013-03-03 17:50:00,29.9,19.6,29.73,NNE,27,1.0,9.0,65,0.00,,,0.00,VWS V14.01,2013-03-03 22:50:00,
2013-03-03 17:51:00,29.9,19.6,29.73,SW,229,9.0,9.0,65,0.00,,,0.00,VWS V14.01,2013-03-03 22:51:00,
2013-03-03 17:52:00,29.9,19.6,29.73,SW,229,9.0,9.0,65,0.00,,,0.00,VWS V14.01,2013-03-03 22:52:00,
2013-03-03 17:53:00,29.9,19.6,29.73,SW,229,9.0,9.0,65,0.00,,,0.00,VWS V14.01,2013-03-03 22:53:00,
2013-03-03 17:54:00,29.9,19.9,29.73,NW,318,3.0,9.0,66,0.00,,,0.00,VWS V14.01,2013-03-03 22:54:00,
2013-03-03 17:55:00,29.9,19.9,29.73,NNW,329,0.0,9.0,66,0.00,,,0.00,VWS V14.01,2013-03-03 22:55:00,
2013-03-03 17:56:00,29.8,19.8,29.73,NW,309,10.0,10.0,66,0.00,,,0.00,VWS V14.01,2013-03-03 22:56:00,
2013-03-03 17:57:00,29.8,19.8,29.73,NW,309,10.0,10.0,66,0.00,,,0.00,VWS V14.01,2013-03-03 22:57:00,
2013-03-03 17:58:00,29.8,19.8,29.73,NW,309,10.0,10.0,66,0.00,,,0.00,VWS V14.01,2013-03-03 22:58:00,
2013-03-03 17:59:00,29.8,19.8,29.73,NE,55,3.0,10.0,66,0.00,,,0.00,VWS V14.01,2013-03-03 22:59:00,
2013-03-03 18:00:00,29.8,19.8,29.73,NNW,344,2.0,10.0,66,0.00,,,0.00,VWS V14.01,2013-03-03 23:00:00,
2013-03-03 18:01:00,29.8,19.8,29.73,West,272,1.0,2.0,66,0.00,,,0.00,VWS V14.01,2013-03-03 23:01:00,
2013-03-03 18:02:00,29.8,19.8,29.73,West,272,1.0,2.0,66,0.00,,,0.00,VWS V14.01,2013-03-03 23:02:00,
2013-03-03 18:03:00,29.8,19.8,29.73,West,272,1.0,2.0,66,0.00,,,0.00,VWS V14.01,2013-03-03 23:03:00,
2013-03-03 18:04:00,29.7,19.8,29.73,NNW,331,4.0,5.0,66,0.00,,,0.00,VWS V14.01,2013-03-03 23:04:00,
2013-03-03 18:05:00,29.7,19.8,29.73,ENE,57,0.0,5.0,66,0.00,,,0.00,VWS V14.01,2013-03-03 23:05:00,
2013-03-03 18:06:00,29.7,19.8,29.73,ENE,57,0.0,5.0,66,0.00,,,0.00,VWS V14.01,2013-03-03 23:06:00,
2013-03-03 18:07:00,29.7,19.8,29.73,ENE,57,0.0,5.0,66,0.00,,,0.00,VWS V14.01,2013-03-03 23:07:00,
2013-03-03 18:08:00,29.7,19.8,29.73,ENE,57,0.0,5.0,66,0.00,,,0.00,VWS V14.01,2013-03-03 23:08:00,
2013-03-03 18:09:00,29.7,19.8,29.73,SE,131,3.0,5.0,66,0.00,,,0.00,VWS V14.01,2013-03-03 23:09:00,
2013-03-03 18:10:00,29.7,19.8,29.73,ENE,75,2.0,5.0,66,0.00,,,0.00,VWS V14.01,2013-03-03 23:10:00,
2013-03-03 18:11:00,29.7,19.8,29.73,SSW,203,4.0,4.0,66,0.00,,,0.00,VWS V14.01,2013-03-03 23:11:00,
2013-03-03 18:12:00,29.7,19.8,29.73,SSW,203,4.0,4.0,66,0.00,,,0.00,VWS V14.01,2013-03-03 23:12:00,
2013-03-03 18:13:00,29.6,19.3,29.73,ENE,78,7.0,14.0,65,0.00,,,0.00,VWS V14.01,2013-03-03 23:13:00,
2013-03-03 18:14:00,29.6,19.3,29.73,North,5,3.0,14.0,65,0.00,,,0.00,VWS V14.01,2013-03-03 23:14:00,
2013-03-03 18:15:00,29.6,19.3,29.73,NNW,330,2.0,14.0,65,0.00,,,0.00,VWS V14.01,2013-03-03 23:15:00,
2013-03-03 18:16:00,29.6,19.6,29.73,NNW,328,1.0,14.0,66,0.00,,,0.00,VWS V14.01,2013-03-03 23:16:00,
2013-03-03 18:17:00,29.6,19.6,29.73,NNW,328,1.0,14.0,66,0.00,,,0.00,VWS V14.01,2013-03-03 23:17:00,
2013-03-03 18:18:00,29.6,19.6,29.73,NNW,328,1.0,14.0,66,0.00,,,0.00,VWS V14.01,2013-03-03 23:18:00,
2013-03-03 18:19:00,29.5,19.6,29.73,WNW,296,10.0,14.0,66,0.00,,,0.00,VWS V14.01,2013-03-03 23:19:00,
2013-03-03 18:20:00,29.5,19.6,29.73,ESE,121,3.0,14.0,66,0.00,,,0.00,VWS V14.01,2013-03-03 23:20:00,
2013-03-03 18:21:00,29.5,19.6,29.73,WNW,295,2.0,4.0,66,0.00,,,0.00,VWS V14.01,2013-03-03 23:21:00,
2013-03-03 18:22:00,29.5,19.6,29.73,WNW,295,2.0,4.0,66,0.00,,,0.00,VWS V14.01,2013-03-03 23:22:00,
2013-03-03 18:23:00,29.4,19.5,29.73,ENE,71,5.0,7.0,66,0.00,,,0.00,VWS V14.01,2013-03-03 23:23:00,
2013-03-03 18:24:00,29.4,19.5,29.73,SSW,200,3.0,7.0,66,0.00,,,0.00,VWS V14.01,2013-03-03 23:24:00,
2013-03-03 18:25:00,29.4,19.1,29.73,NNE,30,6.0,7.0,65,0.00,,,0.00,VWS V14.01,2013-03-03 23:25:00,
2013-03-03 18:26:00,29.4,19.1,29.73,South,189,4.0,7.0,65,0.00,,,0.00,VWS V14.01,2013-03-03 23:26:00,
2013-03-03 18:27:00,29.4,19.1,29.73,South,189,4.0,7.0,65,0.00,,,0.00,VWS V14.01,2013-03-03 23:27:00,
2013-03-03 18:28:00,29.4,19.1,29.73,South,189,4.0,7.0,65,0.00,,,0.00,VWS V14.01,2013-03-03 23:28:00,
2013-03-03 18:29:00,29.3,19.4,29.73,ENE,67,2.0,8.0,66,0.00,,,0.00,VWS V14.01,2013-03-03 23:29:00,
2013-03-03 18:30:00,29.2,19.3,29.74,NNE,25,2.0,8.0,66,0.00,,,0.00,VWS V14.01,2013-03-03 23:30:00,
2013-03-03 18:31:00,29.2,19.3,29.74,North,9,7.0,7.0,66,0.00,,,0.00,VWS V14.01,2013-03-03 23:31:00,
2013-03-03 18:32:00,29.2,19.3,29.74,North,9,7.0,7.0,66,0.00,,,0.00,VWS V14.01,2013-03-03 23:32:00,
2013-03-03 18:33:00,29.2,19.3,29.74,NNW,334,7.0,7.0,66,0.00,,,0.00,VWS V14.01,2013-03-03 23:33:00,
2013-03-03 18:34:00,29.2,19.3,29.74,North,5,1.0,8.0,66,0.00,,,0.00,VWS V14.01,2013-03-03 23:34:00,
2013-03-03 18:35:00,29.1,19.2,29.74,East,89,8.0,8.0,66,0.00,,,0.00,VWS V14.01,2013-03-03 23:35:00,
2013-03-03 18:36:00,29.1,19.2,29.74,ESE,123,1.0,8.0,66,0.00,,,0.00,VWS V14.01,2013-03-03 23:36:00,
2013-03-03 18:37:00,29.1,19.2,29.74,ESE,123,1.0,8.0,66,0.00,,,0.00,VWS V14.01,2013-03-03 23:37:00,
2013-03-03 18:38:00,29.1,19.2,29.74,ESE,123,1.0,8.0,66,0.00,,,0.00,VWS V14.01,2013-03-03 23:38:00,
2013-03-03 18:39:00,29.0,19.1,29.74,NE,48,4.0,8.0,66,0.00,,,0.00,VWS V14.01,2013-03-03 23:39:00,
2013-03-03 18:40:00,29.0,19.1,29.74,NE,36,1.0,8.0,66,0.00,,,0.00,VWS V14.01,2013-03-03 23:40:00,
2013-03-03 18:41:00,29.0,19.1,29.74,NE,37,0.0,2.0,66,0.00,,,0.00,VWS V14.01,2013-03-03 23:41:00,
2013-03-03 18:42:00,29.0,19.1,29.74,NE,51,0.0,2.0,66,0.00,,,0.00,VWS V14.01,2013-03-03 23:42:00,
2013-03-03 18:43:00,29.0,19.1,29.74,NE,51,1.0,2.0,66,0.00,,,0.00,VWS V14.01,2013-03-03 23:43:00,
2013-03-03 18:44:00,28.9,19.0,29.74,ENE,57,0.0,2.0,66,0.00,,,0.00,VWS V14.01,2013-03-03 23:44:00,
2013-03-03 18:45:00,28.9,19.0,29.74,SE,126,2.0,5.0,66,0.00,,,0.00,VWS V14.01,2013-03-03 23:45:00,
2013-03-03 18:46:00,28.9,19.0,29.74,SE,126,4.0,5.0,66,0.00,,,0.00,VWS V14.01,2013-03-03 23:46:00,
2013-03-03 18:47:00,28.9,19.0,29.74,SE,126,4.0,5.0,66,0.00,,,0.00,VWS V14.01,2013-03-03 23:47:00,
2013-03-03 18:48:00,28.9,19.0,29.74,SE,126,4.0,5.0,66,0.00,,,0.00,VWS V14.01,2013-03-03 23:48:00,
2013-03-03 18:49:00,28.8,19.2,29.74,SE,146,2.0,5.0,67,0.00,,,0.00,VWS V14.01,2013-03-03 23:49:00,
2013-03-03 18:50:00,28.8,19.2,29.74,SE,146,1.0,5.0,67,0.00,,,0.00,VWS V14.01,2013-03-03 23:50:00,
2013-03-03 18:51:00,28.8,19.2,29.74,SE,146,0.0,0.0,67,0.00,,,0.00,VWS V14.01,2013-03-03 23:51:00,
2013-03-03 18:52:00,28.8,19.2,29.74,SE,146,0.0,0.0,67,0.00,,,0.00,VWS V14.01,2013-03-03 23:52:00,
2013-03-03 18:53:00,28.8,19.2,29.74,SE,146,0.0,0.0,67,0.00,,,0.00,VWS V14.01,2013-03-03 23:53:00,
2013-03-03 18:54:00,28.8,19.2,29.74,WSW,242,1.0,2.0,67,0.00,,,0.00,VWS V14.01,2013-03-03 23:54:00,
2013-03-03 18:55:00,28.8,19.2,29.74,South,188,0.0,3.0,67,0.00,,,0.00,VWS V14.01,2013-03-03 23:55:00,
2013-03-03 18:56:00,28.7,19.1,29.74,South,188,0.0,3.0,67,0.00,,,0.00,VWS V14.01,2013-03-03 23:56:00,
2013-03-03 18:57:00,28.7,19.1,29.74,South,188,0.0,3.0,67,0.00,,,0.00,VWS V14.01,2013-03-03 23:57:00,
2013-03-03 18:58:00,28.7,19.1,29.74,ESE,111,1.0,3.0,67,0.00,,,0.00,VWS V14.01,2013-03-03 23:58:00,
2013-03-03 18:59:00,28.7,19.1,29.74,ESE,111,0.0,3.0,67,0.00,,,0.00,VWS V14.01,2013-03-03 23:59:00,
2013-03-03 19:00:00,28.7,19.1,29.75,NE,44,2.0,4.0,67,0.00,,,0.00,VWS V14.01,2013-03-04 00:00:00,
2013-03-03 19:01:00,28.7,19.1,29.75,NE,44,3.0,3.0,67,0.00,,,0.00,VWS V14.01,2013-03-04 00:01:00,
2013-03-03 19:02:00,28.7,19.1,29.75,NE,44,3.0,3.0,67,0.00,,,0.00,VWS V14.01,2013-03-04 00:02:00,
2013-03-03 19:03:00,28.6,19.0,29.75,NNE,13,0.0,3.0,67,0.00,,,0.00,VWS V14.01,2013-03-04 00:03:00,
2013-03-03 19:04:00,28.6,19.4,29.75,NNE,29,1.0,3.0,68,0.00,,,0.00,VWS V14.01,2013-03-04 00:04:00,
2013-03-03 19:05:00,28.6,19.4,29.75,NNE,28,0.0,3.0,68,0.00,,,0.00,VWS V14.01,2013-03-04 00:05:00,
2013-03-03 19:06:00,28.6,19.4,29.75,NNE,28,1.0,3.0,68,0.00,,,0.00,VWS V14.01,2013-03-04 00:06:00,
2013-03-03 19:07:00,28.6,19.4,29.75,NNE,28,1.0,3.0,68,0.00,,,0.00,VWS V14.01,2013-03-04 00:07:00,
2013-03-03 19:08:00,28.5,19.3,29.75,WNW,302,7.0,7.0,68,0.00,,,0.00,VWS V14.01,2013-03-04 00:08:00,
2013-03-03 19:09:00,28.5,19.3,29.75,NNE,30,2.0,8.0,68,0.00,,,0.00,VWS V14.01,2013-03-04 00:09:00,
2013-03-03 19:10:00,28.5,19.3,29.75,NE,35,2.0,8.0,68,0.00,,,0.00,VWS V14.01,2013-03-04 00:10:00,
2013-03-03 19:11:00,28.5,19.3,29.75,NE,35,1.0,2.0,68,0.00,,,0.00,VWS V14.01,2013-03-04 00:11:00,
2013-03-03 19:12:00,28.5,19.3,29.75,NE,35,1.0,2.0,68,0.00,,,0.00,VWS V14.01,2013-03-04 00:12:00,
2013-03-03 19:13:00,28.5,19.3,29.75,NE,35,1.0,2.0,68,0.00,,,0.00,VWS V14.01,2013-03-04 00:13:00,
2013-03-03 19:14:00,28.4,19.2,29.75,NE,53,4.0,4.0,68,0.00,,,0.00,VWS V14.01,2013-03-04 00:14:00,
2013-03-03 19:15:00,28.4,19.2,29.75,NNW,336,0.0,5.0,68,0.00,,,0.00,VWS V14.01,2013-03-04 00:15:00,
2013-03-03 19:16:00,28.4,19.2,29.75,NNW,336,0.0,5.0,68,0.00,,,0.00,VWS V14.01,2013-03-04 00:16:00,
2013-03-03 19:17:00,28.4,19.2,29.75,NNW,336,0.0,5.0,68,0.00,,,0.00,VWS V14.01,2013-03-04 00:17:00,
2013-03-03 19:18:00,28.3,19.1,29.75,North,355,0.0,5.0,68,0.00,,,0.00,VWS V14.01,2013-03-04 00:18:00,
2013-03-03 19:19:00,28.3,19.1,29.75,North,355,0.0,5.0,68,0.00,,,0.00,VWS V14.01,2013-03-04 00:19:00,
2013-03-03 19:20:00,28.3,19.1,29.75,North,360,0.0,5.0,68,0.00,,,0.00,VWS V14.01,2013-03-04 00:20:00,
2013-03-03 19:21:00,28.3,19.1,29.75,North,360,0.0,5.0,68,0.00,,,0.00,VWS V14.01,2013-03-04 00:21:00,
2013-03-03 19:22:00,28.3,19.1,29.75,North,360,0.0,5.0,68,0.00,,,0.00,VWS V14.01,2013-03-04 00:22:00,
2013-03-03 19:23:00,28.2,19.0,29.75,NNW,341,5.0,5.0,68,0.00,,,0.00,VWS V14.01,2013-03-04 00:23:00,
2013-03-03 19:24:00,28.2,19.0,29.75,NW,323,0.0,5.0,68,0.00,,,0.00,VWS V14.01,2013-03-04 00:24:00,
2013-03-03 19:25:00,28.2,19.0,29.75,NW,323,0.0,5.0,68,0.00,,,0.00,VWS V14.01,2013-03-04 00:25:00,
2013-03-03 19:26:00,28.2,19.0,29.75,NW,323,0.0,5.0,68,0.00,,,0.00,VWS V14.01,2013-03-04 00:26:00,
2013-03-03 19:27:00,28.2,19.0,29.75,NW,323,0.0,5.0,68,0.00,,,0.00,VWS V14.01,2013-03-04 00:27:00,
2013-03-03 19:28:00,28.2,19.0,29.75,NW,323,0.0,5.0,68,0.00,,,0.00,VWS V14.01,2013-03-04 00:28:00,
2013-03-03 19:29:00,28.1,19.3,29.75,North,355,0.0,5.0,69,0.00,,,0.00,VWS V14.01,2013-03-04 00:29:00,
2013-03-03 19:30:00,28.1,19.3,29.75,North,349,1.0,5.0,69,0.00,,,0.00,VWS V14.01,2013-03-04 00:30:00,
2013-03-03 19:31:00,28.1,19.3,29.75,NW,312,2.0,3.0,69,0.00,,,0.00,VWS V14.01,2013-03-04 00:31:00,
2013-03-03 19:32:00,28.1,19.3,29.75,NW,312,2.0,3.0,69,0.00,,,0.00,VWS V14.01,2013-03-04 00:32:00,
2013-03-03 19:33:00,28.1,19.3,29.75,NW,312,2.0,3.0,69,0.00,,,0.00,VWS V14.01,2013-03-04 00:33:00,
2013-03-03 19:34:00,28.1,19.3,29.75,NNE,30,0.0,3.0,69,0.00,,,0.00,VWS V14.01,2013-03-04 00:34:00,
2013-03-03 19:35:00,28.0,19.2,29.75,NNE,20,2.0,3.0,69,0.00,,,0.00,VWS V14.01,2013-03-04 00:35:00,
2013-03-03 19:36:00,28.0,19.2,29.75,NNE,20,3.0,3.0,69,0.00,,,0.00,VWS V14.01,2013-03-04 00:36:00,
2013-03-03 19:37:00,28.0,19.2,29.75,NNE,20,3.0,3.0,69,0.00,,,0.00,VWS V14.01,2013-03-04 00:37:00,
2013-03-03 19:38:00,28.0,19.2,29.75,NNE,20,3.0,3.0,69,0.00,,,0.00,VWS V14.01,2013-03-04 00:38:00,
2013-03-03 19:39:00,28.0,19.2,29.75,NNW,335,0.0,3.0,69,0.00,,,0.00,VWS V14.01,2013-03-04 00:39:00,
2013-03-03 19:40:00,27.9,19.1,29.75,NNE,17,3.0,6.0,69,0.00,,,0.00,VWS V14.01,2013-03-04 00:40:00,
2013-03-03 19:41:00,27.9,19.1,29.75,NNE,17,2.0,3.0,69,0.00,,,0.00,VWS V14.01,2013-03-04 00:41:00,
2013-03-03 19:42:00,27.9,19.1,29.75,NNE,17,2.0,3.0,69,0.00,,,0.00,VWS V14.01,2013-03-04 00:42:00,
2013-03-03 19:43:00,27.9,19.1,29.75,NNW,332,2.0,6.0,69,0.00,,,0.00,VWS V14.01,2013-03-04 00:43:00,
2013-03-03 19:44:00,27.9,19.1,29.75,NNW,332,0.0,6.0,69,0.00,,,0.00,VWS V14.01,2013-03-04 00:44:00,
2013-03-03 19:45:00,27.9,19.1,29.76,NW,311,6.0,6.0,69,0.00,,,0.00,VWS V14.01,2013-03-04 00:45:00,
2013-03-03 19:46:00,27.9,19.1,29.76,NW,317,2.0,6.0,69,0.00,,,0.00,VWS V14.01,2013-03-04 00:46:00,
2013-03-03 19:47:00,27.9,19.1,29.76,NW,317,2.0,6.0,69,0.00,,,0.00,VWS V14.01,2013-03-04 00:47:00,
2013-03-03 19:48:00,27.8,19.0,29.76,WNW,296,5.0,8.0,69,0.00,,,0.00,VWS V14.01,2013-03-04 00:48:00,
2013-03-03 19:49:00,27.8,19.0,29.76,NNW,332,2.0,9.0,69,0.00,,,0.00,VWS V14.01,2013-03-04 00:49:00,
2013-03-03 19:50:00,27.8,19.0,29.76,NNE,15,2.0,9.0,69,0.00,,,0.00,VWS V14.01,2013-03-04 00:50:00,
2013-03-03 19:51:00,27.8,19.0,29.76,NNE,15,2.0,2.0,69,0.00,,,0.00,VWS V14.01,2013-03-04 00:51:00,
2013-03-03 19:52:00,27.8,19.0,29.76,NNE,15,2.0,2.0,69,0.00,,,0.00,VWS V14.01,2013-03-04 00:52:00,
2013-03-03 19:53:00,27.8,19.0,29.76,NNE,15,2.0,2.0,69,0.00,,,0.00,VWS V14.01,2013-03-04 00:53:00,
2013-03-03 19:54:00,27.7,18.9,29.76,NE,34,0.0,2.0,69,0.00,,,0.00,VWS V14.01,2013-03-04 00:54:00,
2013-03-03 19:55:00,27.7,18.9,29.76,NE,35,0.0,2.0,69,0.00,,,0.00,VWS V14.01,2013-03-04 00:55:00,
2013-03-03 19:56:00,27.7,18.9,29.76,NE,36,1.0,2.0,69,0.00,,,0.00,VWS V14.01,2013-03-04 00:56:00,
2013-03-03 19:57:00,27.7,18.9,29.76,NE,36,1.0,2.0,69,0.00,,,0.00,VWS V14.01,2013-03-04 00:57:00,
2013-03-03 19:58:00,27.7,18.9,29.76,NW,318,1.0,4.0,69,0.00,,,0.00,VWS V14.01,2013-03-04 00:58:00,
2013-03-03 19:59:00,27.6,18.8,29.76,NW,319,0.0,4.0,69,0.00,,,0.00,VWS V14.01,2013-03-04 00:59:00,
2013-03-03 20:00:00,27.6,19.1,29.76,SW,225,4.0,8.0,70,0.00,,,0.00,VWS V14.01,2013-03-04 01:00:00,
2013-03-03 20:01:00,27.6,19.1,29.76,NE,42,3.0,4.0,70,0.00,,,0.00,VWS V14.01,2013-03-04 01:01:00,
2013-03-03 20:02:00,27.6,19.1,29.76,NE,42,3.0,4.0,70,0.00,,,0.00,VWS V14.01,2013-03-04 01:02:00,
2013-03-03 20:03:00,27.6,19.1,29.76,NE,42,3.0,4.0,70,0.00,,,0.00,VWS V14.01,2013-03-04 01:03:00,
2013-03-03 20:04:00,27.6,19.1,29.76,NE,48,0.0,4.0,70,0.00,,,0.00,VWS V14.01,2013-03-04 01:04:00,
2013-03-03 20:05:00,27.5,19.0,29.76,NE,37,1.0,4.0,70,0.00,,,0.00,VWS V14.01,2013-03-04 01:05:00,
2013-03-03 20:06:00,27.5,19.0,29.76,NE,38,3.0,4.0,70,0.00,,,0.00,VWS V14.01,2013-03-04 01:06:00,
2013-03-03 20:07:00,27.5,19.0,29.76,ENE,58,1.0,4.0,70,0.00,,,0.00,VWS V14.01,2013-03-04 01:07:00,
2013-03-03 20:08:00,27.5,19.0,29.76,North,355,3.0,4.0,70,0.00,,,0.00,VWS V14.01,2013-03-04 01:08:00,
2013-03-03 20:09:00,27.5,19.0,29.76,North,355,0.0,4.0,70,0.00,,,0.00,VWS V14.01,2013-03-04 01:09:00,
2013-03-03 20:10:00,27.5,19.0,29.76,NW,318,4.0,4.0,70,0.00,,,0.00,VWS V14.01,2013-03-04 01:10:00,
2013-03-03 20:11:00,27.5,19.0,29.76,East,84,3.0,7.0,70,0.00,,,0.00,VWS V14.01,2013-03-04 01:11:00,
2013-03-03 20:12:00,27.5,19.0,29.76,East,84,3.0,7.0,70,0.00,,,0.00,VWS V14.01,2013-03-04 01:12:00,
2013-03-03 20:13:00,27.5,19.0,29.76,East,84,3.0,7.0,70,0.00,,,0.00,VWS V14.01,2013-03-04 01:13:00,
2013-03-03 20:14:00,27.4,18.6,29.76,North,9,5.0,9.0,69,0.00,,,0.00,VWS V14.01,2013-03-04 01:14:00,
2013-03-03 20:15:00,27.4,18.9,29.76,NE,45,6.0,9.0,70,0.00,,,0.00,VWS V14.01,2013-03-04 01:15:00,
2013-03-03 20:16:00,27.4,18.9,29.76,NE,44,6.0,9.0,70,0.00,,,0.00,VWS V14.01,2013-03-04 01:16:00,
2013-03-03 20:17:00,27.4,18.9,29.76,NE,44,6.0,9.0,70,0.00,,,0.00,VWS V14.01,2013-03-04 01:17:00,
2013-03-03 20:18:00,27.4,18.9,29.76,NE,44,0.0,9.0,70,0.00,,,0.00,VWS V14.01,2013-03-04 01:18:00,
2013-03-03 20:19:00,27.4,18.9,29.76,NE,45,1.0,9.0,70,0.00,,,0.00,VWS V14.01,2013-03-04 01:19:00,
2013-03-03 20:20:00,27.4,18.9,29.76,NW,317,3.0,9.0,70,0.00,,,0.00,VWS V14.01,2013-03-04 01:20:00,
2013-03-03 20:21:00,27.4,18.9,29.76,NW,317,3.0,9.0,70,0.00,,,0.00,VWS V14.01,2013-03-04 01:21:00,
2013-03-03 20:22:00,27.4,18.9,29.76,NW,317,3.0,9.0,70,0.00,,,0.00,VWS V14.01,2013-03-04 01:22:00,
2013-03-03 20:23:00,27.3,18.8,29.76,NW,322,5.0,5.0,70,0.00,,,0.00,VWS V14.01,2013-03-04 01:23:00,
2013-03-03 20:24:00,27.3,18.8,29.76,NNW,331,1.0,5.0,70,0.00,,,0.00,VWS V14.01,2013-03-04 01:24:00,
2013-03-03 20:25:00,27.3,18.8,29.76,NNW,331,0.0,5.0,70,0.00,,,0.00,VWS V14.01,2013-03-04 01:25:00,
2013-03-03 20:26:00,27.3,18.8,29.76,NNW,331,2.0,5.0,70,0.00,,,0.00,VWS V14.01,2013-03-04 01:26:00,
2013-03-03 20:27:00,27.3,18.8,29.76,NNW,331,2.0,5.0,70,0.00,,,0.00,VWS V14.01,2013-03-04 01:27:00,
2013-03-03 20:28:00,27.3,18.8,29.76,NNW,331,2.0,5.0,70,0.00,,,0.00,VWS V14.01,2013-03-04 01:28:00,
2013-03-03 20:29:00,27.2,18.7,29.76,WNW,282,0.0,5.0,70,0.00,,,0.00,VWS V14.01,2013-03-04 01:29:00,
2013-03-03 20:30:00,27.2,18.7,29.77,South,175,1.0,5.0,70,0.00,,,0.00,VWS V14.01,2013-03-04 01:30:00,
2013-03-03 20:31:00,27.2,18.7,29.77,ESE,102,2.0,2.0,70,0.00,,,0.00,VWS V14.01,2013-03-04 01:31:00,
2013-03-03 20:32:00,27.2,18.7,29.77,ESE,102,2.0,2.0,70,0.00,,,0.00,VWS V14.01,2013-03-04 01:32:00,
2013-03-03 20:33:00,27.2,18.7,29.77,ESE,102,2.0,2.0,70,0.00,,,0.00,VWS V14.01,2013-03-04 01:33:00,
2013-03-03 20:34:00,27.1,18.6,29.77,West,270,4.0,14.0,70,0.00,,,0.00,VWS V14.01,2013-03-04 01:34:00,
2013-03-03 20:35:00,27.1,18.6,29.77,West,259,0.0,14.0,70,0.00,,,0.00,VWS V14.01,2013-03-04 01:35:00,
2013-03-03 20:36:00,27.1,18.6,29.77,West,259,0.0,14.0,70,0.00,,,0.00,VWS V14.01,2013-03-04 01:36:00,
2013-03-03 20:37:00,27.1,18.6,29.77,West,259,0.0,14.0,70,0.00,,,0.00,VWS V14.01,2013-03-04 01:37:00,
2013-03-03 20:38:00,27.1,18.6,29.77,West,259,0.0,14.0,70,0.00,,,0.00,VWS V14.01,2013-03-04 01:38:00,
2013-03-03 20:39:00,27.0,18.5,29.77,North,360,1.0,14.0,70,0.00,,,0.00,VWS V14.01,2013-03-04 01:39:00,
2013-03-03 20:40:00,27.0,18.5,29.77,ENE,78,3.0,14.0,70,0.00,,,0.00,VWS V14.01,2013-03-04 01:40:00,
2013-03-03 20:41:00,26.9,18.4,29.77,West,280,8.0,8.0,70,0.00,,,0.00,VWS V14.01,2013-03-04 01:41:00,
2013-03-03 20:42:00,26.9,18.4,29.77,West,280,8.0,8.0,70,0.00,,,0.00,VWS V14.01,2013-03-04 01:42:00,
2013-03-03 20:43:00,26.9,18.4,29.77,West,280,8.0,8.0,70,0.00,,,0.00,VWS V14.01,2013-03-04 01:43:00,
2013-03-03 20:44:00,26.9,18.4,29.77,NNE,29,3.0,8.0,70,0.00,,,0.00,VWS V14.01,2013-03-04 01:44:00,
2013-03-03 20:45:00,26.9,18.4,29.77,NNW,327,3.0,8.0,70,0.00,,,0.00,VWS V14.01,2013-03-04 01:45:00,
2013-03-03 20:46:00,26.9,18.4,29.77,NNE,17,2.0,8.0,70,0.00,,,0.00,VWS V14.01,2013-03-04 01:46:00,
2013-03-03 20:47:00,26.9,18.4,29.77,NNE,17,2.0,8.0,70,0.00,,,0.00,VWS V14.01,2013-03-04 01:47:00,
2013-03-03 20:48:00,26.8,18.3,29.77,NNW,346,2.0,8.0,70,0.00,,,0.00,VWS V14.01,2013-03-04 01:48:00,
2013-03-03 20:49:00,26.8,18.3,29.77,North,360,0.0,8.0,70,0.00,,,0.00,VWS V14.01,2013-03-04 01:49:00,
2013-03-03 20:50:00,26.8,18.3,29.77,North,5,4.0,10.0,70,0.00,,,0.00,VWS V14.01,2013-03-04 01:50:00,
2013-03-03 20:51:00,26.8,18.3,29.77,NE,40,6.0,6.0,70,0.00,,,0.00,VWS V14.01,2013-03-04 01:51:00,
2013-03-03 20:52:00,26.8,18.3,29.77,NE,40,6.0,6.0,70,0.00,,,0.00,VWS V14.01,2013-03-04 01:52:00,
2013-03-03 20:53:00,26.8,18.3,29.77,NE,40,6.0,6.0,70,0.00,,,0.00,VWS V14.01,2013-03-04 01:53:00,
2013-03-03 20:54:00,26.7,18.2,29.77,NE,48,4.0,6.0,70,0.00,,,0.00,VWS V14.01,2013-03-04 01:54:00,
2013-03-03 20:55:00,26.7,18.2,29.77,NNW,329,2.0,6.0,70,0.00,,,0.00,VWS V14.01,2013-03-04 01:55:00,
2013-03-03 20:56:00,26.7,18.2,29.77,West,280,4.0,6.0,70,0.00,,,0.00,VWS V14.01,2013-03-04 01:56:00,
2013-03-03 20:57:00,26.7,18.2,29.77,West,280,4.0,6.0,70,0.00,,,0.00,VWS V14.01,2013-03-04 01:57:00,
2013-03-03 20:58:00,26.7,18.6,29.77,ENE,66,4.0,7.0,71,0.00,,,0.00,VWS V14.01,2013-03-04 01:58:00,
2013-03-03 20:59:00,26.7,18.6,29.77,NNW,338,5.0,11.0,71,0.00,,,0.00,VWS V14.01,2013-03-04 01:59:00,
2013-03-03 21:00:00,26.7,18.6,29.77,North,9,2.0,11.0,71,0.00,,,0.00,VWS V14.01,2013-03-04 02:00:00,
2013-03-03 21:01:00,26.7,18.6,29.77,ENE,66,3.0,11.0,71,0.00,,,0.00,VWS V14.01,2013-03-04 02:01:00,
2013-03-03 21:02:00,26.7,18.6,29.77,ENE,66,3.0,11.0,71,0.00,,,0.00,VWS V14.01,2013-03-04 02:02:00,
2013-03-03 21:03:00,26.7,18.6,29.77,West,271,2.0,3.0,71,0.00,,,0.00,VWS V14.01,2013-03-04 02:03:00,
2013-03-03 21:04:00,26.7,18.6,29.77,East,98,6.0,6.0,71,0.00,,,0.00,VWS V14.01,2013-03-04 02:04:00,
2013-03-03 21:05:00,26.7,18.6,29.77,NNE,17,2.0,6.0,71,0.00,,,0.00,VWS V14.01,2013-03-04 02:05:00,
2013-03-03 21:06:00,26.7,18.6,29.77,North,360,6.0,15.0,71,0.00,,,0.00,VWS V14.01,2013-03-04 02:06:00,
2013-03-03 21:07:00,26.7,18.6,29.77,NNW,329,12.0,15.0,71,0.00,,,0.00,VWS V14.01,2013-03-04 02:07:00,
2013-03-03 21:08:00,26.6,18.5,29.77,NNE,31,0.0,15.0,71,0.00,,,0.00,VWS V14.01,2013-03-04 02:08:00,
2013-03-03 21:09:00,26.6,18.5,29.77,West,278,6.0,15.0,71,0.00,,,0.00,VWS V14.01,2013-03-04 02:09:00,
2013-03-03 21:10:00,26.6,18.5,29.77,SSE,161,2.0,15.0,71,0.00,,,0.00,VWS V14.01,2013-03-04 02:10:00,
2013-03-03 21:11:00,26.6,18.5,29.77,SSE,159,2.0,2.0,71,0.00,,,0.00,VWS V14.01,2013-03-04 02:11:00,
2013-03-03 21:12:00,26.6,18.5,29.77,SSE,159,2.0,2.0,71,0.00,,,0.00,VWS V14.01,2013-03-04 02:12:00,
2013-03-03 21:13:00,26.6,18.5,29.77,SW,214,2.0,3.0,71,0.00,,,0.00,VWS V14.01,2013-03-04 02:13:00,
2013-03-03 21:14:00,26.6,18.5,29.77,WSW,253,2.0,7.0,71,0.00,,,0.00,VWS V14.01,2013-03-04 02:14:00,
2013-03-03 21:15:00,26.5,18.4,29.78,East,86,3.0,7.0,71,0.00,,,0.00,VWS V14.01,2013-03-04 02:15:00,
2013-03-03 21:16:00,26.5,18.4,29.78,NW,307,5.0,7.0,71,0.00,,,0.00,VWS V14.01,2013-03-04 02:16:00,
2013-03-03 21:17:00,26.5,18.4,29.78,NW,307,5.0,7.0,71,0.00,,,0.00,VWS V14.01,2013-03-04 02:17:00,
2013-03-03 21:18:00,26.5,18.4,29.78,North,5,2.0,7.0,71,0.00,,,0.00,VWS V14.01,2013-03-04 02:18:00,
2013-03-03 21:19:00,26.5,18.4,29.78,West,267,3.0,9.0,71,0.00,,,0.00,VWS V14.01,2013-03-04 02:19:00,
2013-03-03 21:20:00,26.5,18.7,29.78,NW,322,2.0,10.0,72,0.00,,,0.00,VWS V14.01,2013-03-04 02:20:00,
2013-03-03 21:21:00,26.4,18.6,29.78,North,360,6.0,8.0,72,0.00,,,0.00,VWS V14.01,2013-03-04 02:21:00,
2013-03-03 21:22:00,26.4,18.6,29.78,North,360,6.0,8.0,72,0.00,,,0.00,VWS V14.01,2013-03-04 02:22:00,
2013-03-03 21:23:00,26.4,18.6,29.78,North,360,6.0,8.0,72,0.00,,,0.00,VWS V14.01,2013-03-04 02:23:00,
2013-03-03 21:24:00,26.4,18.6,29.78,WNW,300,6.0,8.0,72,0.00,,,0.00,VWS V14.01,2013-03-04 02:24:00,
2013-03-03 21:25:00,26.3,18.5,29.78,NNW,342,2.0,8.0,72,0.00,,,0.00,VWS V14.01,2013-03-04 02:25:00,
2013-03-03 21:26:00,26.3,18.5,29.78,North,5,3.0,8.0,72,0.00,,,0.00,VWS V14.01,2013-03-04 02:26:00,
2013-03-03 21:27:00,26.3,18.5,29.78,North,5,3.0,8.0,72,0.00,,,0.00,VWS V14.01,2013-03-04 02:27:00,
2013-03-03 21:28:00,26.3,18.5,29.78,North,5,3.0,8.0,72,0.00,,,0.00,VWS V14.01,2013-03-04 02:28:00,
2013-03-03 21:29:00,26.3,18.5,29.78,NW,304,3.0,14.0,72,0.00,,,0.00,VWS V14.01,2013-03-04 02:29:00,
2013-03-03 21:30:00,26.3,18.5,29.77,NNE,12,2.0,14.0,72,0.00,,,0.00,VWS V14.01,2013-03-04 02:30:00,
2013-03-03 21:31:00,26.3,18.5,29.77,NNE,12,2.0,14.0,72,0.00,,,0.00,VWS V14.01,2013-03-04 02:31:00,
2013-03-03 21:32:00,26.3,18.5,29.77,NNE,12,2.0,14.0,72,0.00,,,0.00,VWS V14.01,2013-03-04 02:32:00,
2013-03-03 21:33:00,26.3,18.5,29.77,North,5,2.0,12.0,72,0.00,,,0.00,VWS V14.01,2013-03-04 02:33:00,
2013-03-03 21:34:00,26.2,18.4,29.77,NNE,33,1.0,12.0,72,0.00,,,0.00,VWS V14.01,2013-03-04 02:34:00,
2013-03-03 21:35:00,26.3,18.5,29.77,SE,128,2.0,12.0,72,0.00,,,0.00,VWS V14.01,2013-03-04 02:35:00,
2013-03-03 21:36:00,26.3,18.5,29.77,NNE,13,3.0,12.0,72,0.00,,,0.00,VWS V14.01,2013-03-04 02:36:00,
2013-03-03 21:37:00,26.3,18.5,29.77,NNE,13,3.0,12.0,72,0.00,,,0.00,VWS V14.01,2013-03-04 02:37:00,
2013-03-03 21:38:00,26.2,18.4,29.77,ENE,71,1.0,12.0,72,0.00,,,0.00,VWS V14.01,2013-03-04 02:38:00,
2013-03-03 21:39:00,26.2,18.4,29.77,West,261,1.0,12.0,72,0.00,,,0.00,VWS V14.01,2013-03-04 02:39:00,
2013-03-03 21:40:00,26.2,18.4,29.77,NE,49,4.0,12.0,72,0.00,,,0.00,VWS V14.01,2013-03-04 02:40:00,
2013-03-03 21:41:00,26.2,18.4,29.77,NNW,340,1.0,4.0,72,0.00,,,0.00,VWS V14.01,2013-03-04 02:41:00,
2013-03-03 21:42:00,26.2,18.4,29.77,NNW,340,1.0,4.0,72,0.00,,,0.00,VWS V14.01,2013-03-04 02:42:00,
2013-03-03 21:43:00,26.2,18.4,29.77,NE,48,2.0,6.0,72,0.00,,,0.00,VWS V14.01,2013-03-04 02:43:00,
2013-03-03 21:44:00,26.1,18.3,29.77,North,355,4.0,8.0,72,0.00,,,0.00,VWS V14.01,2013-03-04 02:44:00,
2013-03-03 21:45:00,26.1,18.3,29.78,North,355,3.0,8.0,72,0.00,,,0.00,VWS V14.01,2013-03-04 02:45:00,
2013-03-03 21:46:00,26.1,18.3,29.78,ENE,75,7.0,8.0,72,0.00,,,0.00,VWS V14.01,2013-03-04 02:46:00,
2013-03-03 21:47:00,26.1,18.3,29.78,ENE,75,7.0,8.0,72,0.00,,,0.00,VWS V14.01,2013-03-04 02:47:00,
2013-03-03 21:48:00,26.1,18.3,29.78,NNE,17,1.0,8.0,72,0.00,,,0.00,VWS V14.01,2013-03-04 02:48:00,
2013-03-03 21:49:00,26.1,18.3,29.78,NNE,14,3.0,8.0,72,0.00,,,0.00,VWS V14.01,2013-03-04 02:49:00,
2013-03-03 21:50:00,26.1,18.3,29.78,WNW,284,0.0,8.0,72,0.00,,,0.00,VWS V14.01,2013-03-04 02:50:00,
2013-03-03 21:51:00,26.1,18.3,29.78,WNW,284,2.0,2.0,72,0.00,,,0.00,VWS V14.01,2013-03-04 02:51:00,
2013-03-03 21:52:00,26.1,18.3,29.78,WNW,284,2.0,2.0,72,0.00,,,0.00,VWS V14.01,2013-03-04 02:52:00,
2013-03-03 21:53:00,26.1,18.3,29.78,WNW,284,2.0,2.0,72,0.00,,,0.00,VWS V14.01,2013-03-04 02:53:00,
2013-03-03 21:54:00,26.0,18.2,29.78,NNW,327,3.0,4.0,72,0.00,,,0.00,VWS V14.01,2013-03-04 02:54:00,
2013-03-03 21:55:00,26.1,18.3,29.78,NE,38,0.0,4.0,72,0.00,,,0.00,VWS V14.01,2013-03-04 02:55:00,
2013-03-03 21:56:00,26.0,18.2,29.78,NE,39,1.0,4.0,72,0.00,,,0.00,VWS V14.01,2013-03-04 02:56:00,
2013-03-03 21:57:00,26.0,18.2,29.78,NE,39,1.0,4.0,72,0.00,,,0.00,VWS V14.01,2013-03-04 02:57:00,
2013-03-03 21:58:00,26.0,18.2,29.78,NE,39,1.0,4.0,72,0.00,,,0.00,VWS V14.01,2013-03-04 02:58:00,
2013-03-03 21:59:00,26.0,18.2,29.78,NE,48,3.0,4.0,72,0.00,,,0.00,VWS V14.01,2013-03-04 02:59:00,
2013-03-03 22:00:00,26.0,18.2,29.77,North,5,2.0,5.0,72,0.00,,,0.00,VWS V14.01,2013-03-04 03:00:00,
2013-03-03 22:01:00,26.0,18.5,29.77,SW,225,5.0,5.0,73,0.00,,,0.00,VWS V14.01,2013-03-04 03:01:00,
2013-03-03 22:02:00,26.0,18.5,29.77,SW,225,5.0,5.0,73,0.00,,,0.00,VWS V14.01,2013-03-04 03:02:00,
2013-03-03 22:03:00,26.0,18.5,29.77,SW,225,5.0,5.0,73,0.00,,,0.00,VWS V14.01,2013-03-04 03:03:00,
2013-03-03 22:04:00,25.9,18.5,29.77,North,5,3.0,6.0,73,0.00,,,0.00,VWS V14.01,2013-03-04 03:04:00,
2013-03-03 22:05:00,25.9,18.5,29.77,ENE,73,1.0,6.0,73,0.00,,,0.00,VWS V14.01,2013-03-04 03:05:00,
2013-03-03 22:06:00,25.9,18.5,29.77,ENE,73,0.0,6.0,73,0.00,,,0.00,VWS V14.01,2013-03-04 03:06:00,
2013-03-03 22:07:00,25.9,18.5,29.77,ENE,73,0.0,6.0,73,0.00,,,0.00,VWS V14.01,2013-03-04 03:07:00,
2013-03-03 22:08:00,25.9,18.5,29.77,West,263,1.0,11.0,73,0.00,,,0.00,VWS V14.01,2013-03-04 03:08:00,
2013-03-03 22:09:00,25.9,18.5,29.77,WNW,290,6.0,11.0,73,0.00,,,0.00,VWS V14.01,2013-03-04 03:09:00,
2013-03-03 22:10:00,25.9,18.5,29.77,NNE,18,3.0,11.0,73,0.00,,,0.00,VWS V14.01,2013-03-04 03:10:00,
2013-03-03 22:11:00,25.8,18.4,29.77,ENE,59,2.0,7.0,73,0.00,,,0.00,VWS V14.01,2013-03-04 03:11:00,
2013-03-03 22:12:00,25.8,18.4,29.77,ENE,59,2.0,7.0,73,0.00,,,0.00,VWS V14.01,2013-03-04 03:12:00,
2013-03-03 22:13:00,25.8,18.4,29.77,NE,41,1.0,7.0,73,0.00,,,0.00,VWS V14.01,2013-03-04 03:13:00,
2013-03-03 22:14:00,25.8,18.4,29.77,NE,39,1.0,7.0,73,0.00,,,0.00,VWS V14.01,2013-03-04 03:14:00,
2013-03-03 22:15:00,25.8,18.4,29.77,NNE,27,1.0,7.0,73,0.00,,,0.00,VWS V14.01,2013-03-04 03:15:00,
2013-03-03 22:16:00,25.8,18.4,29.77,NNE,29,1.0,7.0,73,0.00,,,0.00,VWS V14.01,2013-03-04 03:16:00,
2013-03-03 22:17:00,25.8,18.4,29.77,NNE,29,1.0,7.0,73,0.00,,,0.00,VWS V14.01,2013-03-04 03:17:00,
2013-03-03 22:18:00,25.8,18.4,29.77,NNE,29,1.0,7.0,73,0.00,,,0.00,VWS V14.01,2013-03-04 03:18:00,
2013-03-03 22:19:00,25.8,18.4,29.77,ENE,70,13.0,15.0,73,0.00,,,0.00,VWS V14.01,2013-03-04 03:19:00,
2013-03-03 22:20:00,25.8,18.4,29.77,NE,53,1.0,15.0,73,0.00,,,0.00,VWS V14.01,2013-03-04 03:20:00,
2013-03-03 22:21:00,25.8,18.4,29.77,NNE,17,4.0,4.0,73,0.00,,,0.00,VWS V14.01,2013-03-04 03:21:00,
2013-03-03 22:22:00,25.8,18.4,29.77,NNE,17,4.0,4.0,73,0.00,,,0.00,VWS V14.01,2013-03-04 03:22:00,
2013-03-03 22:23:00,25.7,18.3,29.77,North,360,6.0,8.0,73,0.00,,,0.00,VWS V14.01,2013-03-04 03:23:00,
2013-03-03 22:24:00,25.7,18.3,29.77,ENE,61,8.0,8.0,73,0.00,,,0.00,VWS V14.01,2013-03-04 03:24:00,
2013-03-03 22:25:00,25.7,18.3,29.77,North,5,1.0,8.0,73,0.00,,,0.00,VWS V14.01,2013-03-04 03:25:00,
2013-03-03 22:26:00,25.7,18.3,29.77,NNW,331,5.0,8.0,73,0.00,,,0.00,VWS V14.01,2013-03-04 03:26:00,
2013-03-03 22:27:00,25.7,18.3,29.77,NNW,331,5.0,8.0,73,0.00,,,0.00,VWS V14.01,2013-03-04 03:27:00,
2013-03-03 22:28:00,25.7,18.3,29.77,NNW,343,1.0,9.0,73,0.00,,,0.00,VWS V14.01,2013-03-04 03:28:00,
2013-03-03 22:29:00,25.6,17.8,29.77,North,350,1.0,9.0,72,0.00,,,0.00,VWS V14.01,2013-03-04 03:29:00,
2013-03-03 22:30:00,25.6,17.8,29.77,South,185,3.0,9.0,72,0.00,,,0.00,VWS V14.01,2013-03-04 03:30:00,
2013-03-03 22:31:00,25.6,17.8,29.77,ENE,70,2.0,2.0,72,0.00,,,0.00,VWS V14.01,2013-03-04 03:31:00,
2013-03-03 22:32:00,25.6,17.8,29.77,ENE,70,2.0,2.0,72,0.00,,,0.00,VWS V14.01,2013-03-04 03:32:00,
2013-03-03 22:33:00,25.6,17.8,29.77,ENE,70,2.0,2.0,72,0.00,,,0.00,VWS V14.01,2013-03-04 03:33:00,
2013-03-03 22:34:00,25.6,17.8,29.77,NE,37,0.0,2.0,72,0.00,,,0.00,VWS V14.01,2013-03-04 03:34:00,
2013-03-03 22:35:00,25.6,17.8,29.77,NE,44,5.0,6.0,72,0.00,,,0.00,VWS V14.01,2013-03-04 03:35:00,
2013-03-03 22:36:00,25.6,17.8,29.77,NNE,31,13.0,13.0,72,0.00,,,0.00,VWS V14.01,2013-03-04 03:36:00,
2013-03-03 22:37:00,25.6,17.8,29.77,NNE,31,13.0,13.0,72,0.00,,,0.00,VWS V14.01,2013-03-04 03:37:00,
2013-03-03 22:38:00,25.6,17.8,29.77,NNE,31,13.0,13.0,72,0.00,,,0.00,VWS V14.01,2013-03-04 03:38:00,
2013-03-03 22:39:00,25.5,17.4,29.77,NNW,327,9.0,13.0,71,0.00,,,0.00,VWS V14.01,2013-03-04 03:39:00,
2013-03-03 22:40:00,25.5,17.4,29.77,NE,46,5.0,13.0,71,0.00,,,0.00,VWS V14.01,2013-03-04 03:40:00,
2013-03-03 22:41:00,25.5,17.4,29.77,SW,216,9.0,9.0,71,0.00,,,0.00,VWS V14.01,2013-03-04 03:41:00,
2013-03-03 22:42:00,25.5,17.4,29.77,SW,216,9.0,9.0,71,0.00,,,0.00,VWS V14.01,2013-03-04 03:42:00,
2013-03-03 22:43:00,25.5,17.4,29.77,SW,233,3.0,9.0,71,0.00,,,0.00,VWS V14.01,2013-03-04 03:43:00,
2013-03-03 22:44:00,25.4,17.3,29.77,ENE,69,1.0,9.0,71,0.00,,,0.00,VWS V14.01,2013-03-04 03:44:00,
2013-03-03 22:45:00,25.4,17.3,29.77,North,350,5.0,9.0,71,0.00,,,0.00,VWS V14.01,2013-03-04 03:45:00,
2013-03-03 22:46:00,25.5,17.4,29.77,NNW,340,5.0,9.0,71,0.00,,,0.00,VWS V14.01,2013-03-04 03:46:00,
2013-03-03 22:47:00,25.5,17.4,29.77,NNW,340,5.0,9.0,71,0.00,,,0.00,VWS V14.01,2013-03-04 03:47:00,
2013-03-03 22:48:00,25.5,17.4,29.77,NNW,340,5.0,9.0,71,0.00,,,0.00,VWS V14.01,2013-03-04 03:48:00,
2013-03-03 22:49:00,25.4,17.3,29.77,NNE,20,4.0,9.0,71,0.00,,,0.00,VWS V14.01,2013-03-04 03:49:00,
2013-03-03 22:50:00,25.4,17.0,29.77,NW,304,5.0,9.0,70,0.00,,,0.00,VWS V14.01,2013-03-04 03:50:00,
2013-03-03 22:51:00,25.4,17.0,29.77,NE,46,3.0,5.0,70,0.00,,,0.00,VWS V14.01,2013-03-04 03:51:00,
2013-03-03 22:52:00,25.4,17.0,29.77,NE,46,3.0,5.0,70,0.00,,,0.00,VWS V14.01,2013-03-04 03:52:00,
2013-03-03 22:53:00,25.4,17.0,29.77,NE,46,3.0,5.0,70,0.00,,,0.00,VWS V14.01,2013-03-04 03:53:00,
2013-03-03 22:54:00,25.4,17.0,29.77,NNE,29,5.0,6.0,70,0.00,,,0.00,VWS V14.01,2013-03-04 03:54:00,
2013-03-03 22:55:00,25.4,17.0,29.77,WSW,250,4.0,6.0,70,0.00,,,0.00,VWS V14.01,2013-03-04 03:55:00,
2013-03-03 22:56:00,25.4,17.0,29.77,NE,47,5.0,6.0,70,0.00,,,0.00,VWS V14.01,2013-03-04 03:56:00,
2013-03-03 22:57:00,25.4,17.0,29.77,NE,47,5.0,6.0,70,0.00,,,0.00,VWS V14.01,2013-03-04 03:57:00,
2013-03-03 22:58:00,25.3,16.9,29.77,SE,143,1.0,6.0,70,0.00,,,0.00,VWS V14.01,2013-03-04 03:58:00,
2013-03-03 22:59:00,25.3,16.9,29.77,SE,143,1.0,6.0,70,0.00,,,0.00,VWS V14.01,2013-03-04 03:59:00,
2013-03-03 23:00:00,25.3,16.9,29.77,NNE,32,1.0,6.0,70,0.00,,,0.00,VWS V14.01,2013-03-04 04:00:00,
2013-03-03 23:01:00,25.3,16.9,29.77,North,355,4.0,6.0,70,0.00,,,0.00,VWS V14.01,2013-03-04 04:01:00,
2013-03-03 23:02:00,25.3,16.9,29.77,North,355,4.0,6.0,70,0.00,,,0.00,VWS V14.01,2013-03-04 04:02:00,
2013-03-03 23:03:00,25.3,16.9,29.77,ENE,60,2.0,4.0,70,0.00,,,0.00,VWS V14.01,2013-03-04 04:03:00,
2013-03-03 23:04:00,25.3,16.9,29.77,WNW,302,10.0,10.0,70,0.00,,,0.00,VWS V14.01,2013-03-04 04:04:00,
2013-03-03 23:05:00,25.2,16.8,29.77,East,89,2.0,10.0,70,0.00,,,0.00,VWS V14.01,2013-03-04 04:05:00,
2013-03-03 23:06:00,25.2,16.8,29.77,ENE,64,4.0,10.0,70,0.00,,,0.00,VWS V14.01,2013-03-04 04:06:00,
2013-03-03 23:07:00,25.2,16.8,29.77,ENE,64,4.0,10.0,70,0.00,,,0.00,VWS V14.01,2013-03-04 04:07:00,
2013-03-03 23:08:00,25.2,16.8,29.77,NNE,28,3.0,10.0,70,0.00,,,0.00,VWS V14.01,2013-03-04 04:08:00,
2013-03-03 23:09:00,25.2,16.8,29.77,West,267,4.0,12.0,70,0.00,,,0.00,VWS V14.01,2013-03-04 04:09:00,
2013-03-03 23:10:00,25.2,16.8,29.77,NNE,13,12.0,12.0,70,0.00,,,0.00,VWS V14.01,2013-03-04 04:10:00,
2013-03-03 23:11:00,25.2,16.8,29.77,NW,323,9.0,15.0,70,0.00,,,0.00,VWS V14.01,2013-03-04 04:11:00,
2013-03-03 23:12:00,25.2,16.8,29.77,NW,323,9.0,15.0,70,0.00,,,0.00,VWS V14.01,2013-03-04 04:12:00,
2013-03-03 23:13:00,25.2,16.8,29.77,NW,323,9.0,15.0,70,0.00,,,0.00,VWS V14.01,2013-03-04 04:13:00,
2013-03-03 23:14:00,25.1,16.7,29.77,North,5,1.0,15.0,70,0.00,,,0.00,VWS V14.01,2013-03-04 04:14:00,
2013-03-03 23:15:00,25.1,16.7,29.78,NE,39,4.0,15.0,70,0.00,,,0.00,VWS V14.01,2013-03-04 04:15:00,
2013-03-03 23:16:00,25.1,16.7,29.78,WSW,239,4.0,15.0,70,0.00,,,0.00,VWS V14.01,2013-03-04 04:16:00,
2013-03-03 23:17:00,25.1,16.7,29.78,SSE,150,7.0,15.0,70,0.00,,,0.00,VWS V14.01,2013-03-04 04:17:00,
2013-03-03 23:18:00,25.1,16.7,29.78,NNW,339,3.0,15.0,70,0.00,,,0.00,VWS V14.01,2013-03-04 04:18:00,
2013-03-03 23:19:00,25.1,16.7,29.78,NNW,337,12.0,15.0,70,0.00,,,0.00,VWS V14.01,2013-03-04 04:19:00,
2013-03-03 23:20:00,25.0,16.6,29.78,South,186,3.0,15.0,70,0.00,,,0.00,VWS V14.01,2013-03-04 04:20:00,
2013-03-03 23:21:00,25.0,16.6,29.78,ENE,68,4.0,4.0,70,0.00,,,0.00,VWS V14.01,2013-03-04 04:21:00,
2013-03-03 23:22:00,25.0,16.6,29.78,NE,44,2.0,4.0,70,0.00,,,0.00,VWS V14.01,2013-03-04 04:22:00,
2013-03-03 23:23:00,25.0,16.6,29.78,NNE,13,1.0,5.0,70,0.00,,,0.00,VWS V14.01,2013-03-04 04:23:00,
2013-03-03 23:24:00,24.9,16.5,29.78,West,274,7.0,10.0,70,0.00,,,0.00,VWS V14.01,2013-03-04 04:24:00,
2013-03-03 23:25:00,25.0,16.6,29.78,NE,42,5.0,12.0,70,0.00,,,0.00,VWS V14.01,2013-03-04 04:25:00,
2013-03-03 23:26:00,24.9,16.5,29.78,NNE,13,0.0,12.0,70,0.00,,,0.00,VWS V14.01,2013-03-04 04:26:00,
2013-03-03 23:27:00,24.9,16.5,29.78,NNE,13,0.0,12.0,70,0.00,,,0.00,VWS V14.01,2013-03-04 04:27:00,
2013-03-03 23:28:00,24.9,16.5,29.78,NNE,13,0.0,12.0,70,0.00,,,0.00,VWS V14.01,2013-03-04 04:28:00,
2013-03-03 23:29:00,24.9,16.5,29.78,NNE,30,5.0,12.0,70,0.00,,,0.00,VWS V14.01,2013-03-04 04:29:00,
2013-03-03 23:30:00,24.9,16.5,29.78,North,360,3.0,12.0,70,0.00,,,0.00,VWS V14.01,2013-03-04 04:30:00,
2013-03-03 23:31:00,24.9,16.5,29.78,North,360,2.0,3.0,70,0.00,,,0.00,VWS V14.01,2013-03-04 04:31:00,
2013-03-03 23:32:00,24.9,16.5,29.78,North,360,2.0,3.0,70,0.00,,,0.00,VWS V14.01,2013-03-04 04:32:00,
2013-03-03 23:33:00,24.9,16.5,29.78,WNW,288,8.0,10.0,70,0.00,,,0.00,VWS V14.01,2013-03-04 04:33:00,
2013-03-03 23:34:00,24.8,16.4,29.78,West,275,10.0,13.0,70,0.00,,,0.00,VWS V14.01,2013-03-04 04:34:00,
2013-03-03 23:35:00,24.8,16.4,29.78,SSW,201,2.0,13.0,70,0.00,,,0.00,VWS V14.01,2013-03-04 04:35:00,
2013-03-03 23:36:00,24.8,16.4,29.78,West,279,7.0,13.0,70,0.00,,,0.00,VWS V14.01,2013-03-04 04:36:00,
2013-03-03 23:37:00,24.8,16.4,29.78,West,279,7.0,13.0,70,0.00,,,0.00,VWS V14.01,2013-03-04 04:37:00,
2013-03-03 23:38:00,24.8,16.4,29.78,North,11,6.0,13.0,70,0.00,,,0.00,VWS V14.01,2013-03-04 04:38:00,
2013-03-03 23:39:00,24.8,16.4,29.78,SE,140,1.0,13.0,70,0.00,,,0.00,VWS V14.01,2013-03-04 04:39:00,
2013-03-03 23:40:00,24.8,16.4,29.78,WNW,300,1.0,13.0,70,0.00,,,0.00,VWS V14.01,2013-03-04 04:40:00,
2013-03-03 23:41:00,24.8,16.4,29.78,North,360,3.0,7.0,70,0.00,,,0.00,VWS V14.01,2013-03-04 04:41:00,
2013-03-03 23:42:00,24.8,16.4,29.78,North,360,3.0,7.0,70,0.00,,,0.00,VWS V14.01,2013-03-04 04:42:00,
2013-03-03 23:43:00,24.8,16.4,29.78,North,360,3.0,7.0,70,0.00,,,0.00,VWS V14.01,2013-03-04 04:43:00,
2013-03-03 23:44:00,24.7,16.3,29.78,NW,323,3.0,7.0,70,0.00,,,0.00,VWS V14.01,2013-03-04 04:44:00,
2013-03-03 23:45:00,24.7,16.3,29.78,SSE,152,1.0,7.0,70,0.00,,,0.00,VWS V14.01,2013-03-04 04:45:00,
2013-03-03 23:46:00,24.7,16.3,29.78,NE,55,8.0,8.0,70,0.00,,,0.00,VWS V14.01,2013-03-04 04:46:00,
2013-03-03 23:47:00,24.7,16.3,29.78,NE,55,8.0,8.0,70,0.00,,,0.00,VWS V14.01,2013-03-04 04:47:00,
2013-03-03 23:48:00,24.7,16.3,29.78,NNE,18,3.0,8.0,70,0.00,,,0.00,VWS V14.01,2013-03-04 04:48:00,
2013-03-03 23:49:00,24.7,16.3,29.78,ESE,110,2.0,8.0,70,0.00,,,0.00,VWS V14.01,2013-03-04 04:49:00,
2013-03-03 23:50:00,24.7,16.3,29.78,NE,48,6.0,8.0,70,0.00,,,0.00,VWS V14.01,2013-03-04 04:50:00,
2013-03-03 23:51:00,24.7,16.3,29.78,WNW,287,10.0,10.0,70,0.00,,,0.00,VWS V14.01,2013-03-04 04:51:00,
2013-03-03 23:52:00,24.7,16.3,29.78,WNW,287,10.0,10.0,70,0.00,,,0.00,VWS V14.01,2013-03-04 04:52:00,
2013-03-03 23:53:00,24.6,16.2,29.78,NE,47,0.0,10.0,70,0.00,,,0.00,VWS V14.01,2013-03-04 04:53:00,
2013-03-03 23:54:00,24.6,16.2,29.78,SW,234,2.0,10.0,70,0.00,,,0.00,VWS V14.01,2013-03-04 04:54:00,
2013-03-03 23:55:00,24.6,16.2,29.78,WNW,295,5.0,10.0,70,0.00,,,0.00,VWS V14.01,2013-03-04 04:55:00,
2013-03-03 23:56:00,24.6,16.2,29.78,WNW,286,6.0,12.0,70,0.00,,,0.00,VWS V14.01,2013-03-04 04:56:00,
2013-03-03 23:57:00,24.6,16.2,29.78,WNW,286,6.0,12.0,70,0.00,,,0.00,VWS V14.01,2013-03-04 04:57:00,
2013-03-03 23:58:00,24.6,16.2,29.78,WNW,286,6.0,12.0,70,0.00,,,0.00,VWS V14.01,2013-03-04 04:58:00,
2013-03-03 23:59:00,24.5,16.1,29.78,SSW,205,7.0,12.0,70,0.00,,,0.00,VWS V14.01,2013-03-04 04:59:00,